<?xml version="1.0" encoding="UTF-8" standalone="no" ?>
<gpx xmlns="http://www.topografix.com/GPX/1/1" xmlns:xsi="http://www.w3.org/2001/XMLSchema-instance" xsi:schemaLocation="http://www.topografix.com/GPX/1/1 http://www.topografix.com/GPX/1/1/gpx.xsd" version="1.1" creator="VisuGPX - https://www.visugpx.com">
  <metadata>
    <name>De Riedisheim à Titisee</name>
  </metadata>
  <trk>
    <name><![CDATA[De Riedisheim à Titisee]]></name>
    <trkseg>
      <trkpt lat="47.74981" lon="7.36593">
        <ele>249.735391</ele>
        <time>2022-08-22T20:36:51.261Z</time>
      </trkpt>
      <trkpt lat="47.75009" lon="7.36551">
        <ele>249.735391</ele>
        <time>2022-08-22T20:36:58.381Z</time>
      </trkpt>
      <trkpt lat="47.75021" lon="7.36524">
        <ele>249.735391</ele>
        <time>2022-08-22T20:37:01.907Z</time>
      </trkpt>
      <trkpt lat="47.75068" lon="7.36421">
        <ele>247.716817</ele>
        <time>2022-08-22T20:37:14.290Z</time>
      </trkpt>
      <trkpt lat="47.75088" lon="7.36383">
        <ele>246.536475</ele>
        <time>2022-08-22T20:37:18.977Z</time>
      </trkpt>
      <trkpt lat="47.75117" lon="7.36334">
        <ele>244.908788</ele>
        <time>2022-08-22T20:37:23.288Z</time>
      </trkpt>
      <trkpt lat="47.75116" lon="7.36324">
        <ele>244.657889</ele>
        <time>2022-08-22T20:37:23.947Z</time>
      </trkpt>
      <trkpt lat="47.75128" lon="7.36284">
        <ele>243.575492</ele>
        <time>2022-08-22T20:37:26.736Z</time>
      </trkpt>
      <trkpt lat="47.75167" lon="7.36281">
        <ele>242.408876</ele>
        <time>2022-08-22T20:37:32.043Z</time>
      </trkpt>
      <trkpt lat="47.75176" lon="7.3628">
        <ele>242.165205</ele>
        <time>2022-08-22T20:37:33.286Z</time>
      </trkpt>
      <trkpt lat="47.75247" lon="7.36272">
        <ele>240.244295</ele>
        <time>2022-08-22T20:37:43.571Z</time>
      </trkpt>
      <trkpt lat="47.75291" lon="7.36264">
        <ele>239.06493</ele>
        <time>2022-08-22T20:37:48.617Z</time>
      </trkpt>
      <trkpt lat="47.75304" lon="7.36264">
        <ele>238.713677</ele>
        <time>2022-08-22T20:37:50.443Z</time>
      </trkpt>
      <trkpt lat="47.75315" lon="7.36265">
        <ele>238.408401</ele>
        <time>2022-08-22T20:37:51.943Z</time>
      </trkpt>
      <trkpt lat="47.75319" lon="7.36282">
        <ele>238.303146</ele>
        <time>2022-08-22T20:37:53.350Z</time>
      </trkpt>
      <trkpt lat="47.7533" lon="7.36288">
        <ele>238.325887</ele>
        <time>2022-08-22T20:37:55.010Z</time>
      </trkpt>
      <trkpt lat="47.75332" lon="7.36303">
        <ele>238.345862</ele>
        <time>2022-08-22T20:37:56.426Z</time>
      </trkpt>
      <trkpt lat="47.75341" lon="7.36304">
        <ele>238.362388</ele>
        <time>2022-08-22T20:37:57.854Z</time>
      </trkpt>
      <trkpt lat="47.75344" lon="7.36332">
        <ele>238.398984</ele>
        <time>2022-08-22T20:38:00.671Z</time>
      </trkpt>
      <trkpt lat="47.7541" lon="7.36446">
        <ele>238.587286</ele>
        <time>2022-08-22T20:38:16.729Z</time>
      </trkpt>
      <trkpt lat="47.75419" lon="7.36456">
        <ele>238.609356</ele>
        <time>2022-08-22T20:38:18.812Z</time>
      </trkpt>
      <trkpt lat="47.75442" lon="7.36462">
        <ele>238.670272</ele>
        <time>2022-08-22T20:38:22.510Z</time>
      </trkpt>
      <trkpt lat="47.75454" lon="7.36491">
        <ele>238.745685</ele>
        <time>2022-08-22T20:38:26.347Z</time>
      </trkpt>
      <trkpt lat="47.75451" lon="7.36496">
        <ele>238.760364</ele>
        <time>2022-08-22T20:38:26.974Z</time>
      </trkpt>
      <trkpt lat="47.75446" lon="7.36502">
        <ele>238.781304</ele>
        <time>2022-08-22T20:38:28.024Z</time>
      </trkpt>
      <trkpt lat="47.75442" lon="7.36514">
        <ele>238.810007</ele>
        <time>2022-08-22T20:38:29.471Z</time>
      </trkpt>
      <trkpt lat="47.75439" lon="7.36565">
        <ele>238.918763</ele>
        <time>2022-08-22T20:38:41.279Z</time>
      </trkpt>
      <trkpt lat="47.75434" lon="7.36569">
        <ele>238.936812</ele>
        <time>2022-08-22T20:38:42.426Z</time>
      </trkpt>
      <trkpt lat="47.75428" lon="7.36573">
        <ele>238.957035</ele>
        <time>2022-08-22T20:38:43.715Z</time>
      </trkpt>
      <trkpt lat="47.75425" lon="7.36579">
        <ele>238.972656</ele>
        <time>2022-08-22T20:38:44.677Z</time>
      </trkpt>
      <trkpt lat="47.7543" lon="7.36588">
        <ele>238.997651</ele>
        <time>2022-08-22T20:38:45.717Z</time>
      </trkpt>
      <trkpt lat="47.75439" lon="7.36644">
        <ele>239.12147</ele>
        <time>2022-08-22T20:38:51.796Z</time>
      </trkpt>
      <trkpt lat="47.75461" lon="7.36738">
        <ele>238.996837</ele>
        <time>2022-08-22T20:39:02.048Z</time>
      </trkpt>
      <trkpt lat="47.75495" lon="7.36855">
        <ele>238.592549</ele>
        <time>2022-08-22T20:39:12.992Z</time>
      </trkpt>
      <trkpt lat="47.75527" lon="7.36981">
        <ele>238.100322</ele>
        <time>2022-08-22T20:39:24.540Z</time>
      </trkpt>
      <trkpt lat="47.75532" lon="7.36982">
        <ele>238.065088</ele>
        <time>2022-08-22T20:39:25.226Z</time>
      </trkpt>
      <trkpt lat="47.7555" lon="7.36971">
        <ele>237.940597</ele>
        <time>2022-08-22T20:39:27.683Z</time>
      </trkpt>
      <trkpt lat="47.75621" lon="7.37091">
        <ele>237.261215</ele>
        <time>2022-08-22T20:39:41.562Z</time>
      </trkpt>
      <trkpt lat="47.75661" lon="7.37149">
        <ele>236.854488</ele>
        <time>2022-08-22T20:39:48.978Z</time>
      </trkpt>
      <trkpt lat="47.75719" lon="7.37265">
        <ele>236.129281</ele>
        <time>2022-08-22T20:40:01.491Z</time>
      </trkpt>
      <trkpt lat="47.75744" lon="7.37315">
        <ele>235.798403</ele>
        <time>2022-08-22T20:40:06.608Z</time>
      </trkpt>
      <trkpt lat="47.75847" lon="7.37499">
        <ele>234.196256</ele>
        <time>2022-08-22T20:40:26.113Z</time>
      </trkpt>
      <trkpt lat="47.75871" lon="7.3754">
        <ele>233.991791</ele>
        <time>2022-08-22T20:40:30.707Z</time>
      </trkpt>
      <trkpt lat="47.7592" lon="7.37621">
        <ele>233.763419</ele>
        <time>2022-08-22T20:40:40.280Z</time>
      </trkpt>
      <trkpt lat="47.75982" lon="7.3772">
        <ele>233.521229</ele>
        <time>2022-08-22T20:40:54.227Z</time>
      </trkpt>
      <trkpt lat="47.7606" lon="7.37851">
        <ele>233.777677</ele>
        <time>2022-08-22T20:41:12.247Z</time>
      </trkpt>
      <trkpt lat="47.76117" lon="7.38046">
        <ele>234.235931</ele>
        <time>2022-08-22T20:41:35.120Z</time>
      </trkpt>
      <trkpt lat="47.76152" lon="7.38147">
        <ele>234.530496</ele>
        <time>2022-08-22T20:41:47.380Z</time>
      </trkpt>
      <trkpt lat="47.76168" lon="7.38206">
        <ele>234.730293</ele>
        <time>2022-08-22T20:41:54.308Z</time>
      </trkpt>
      <trkpt lat="47.76174" lon="7.38257">
        <ele>234.906441</ele>
        <time>2022-08-22T20:41:59.897Z</time>
      </trkpt>
      <trkpt lat="47.76175" lon="7.38358">
        <ele>235.252095</ele>
        <time>2022-08-22T20:42:10.773Z</time>
      </trkpt>
      <trkpt lat="47.76184" lon="7.38418">
        <ele>235.463456</ele>
        <time>2022-08-22T20:42:17.418Z</time>
      </trkpt>
      <trkpt lat="47.76224" lon="7.3854">
        <ele>235.091015</ele>
        <time>2022-08-22T20:42:30.376Z</time>
      </trkpt>
      <trkpt lat="47.76301" lon="7.38774">
        <ele>234.102021</ele>
        <time>2022-08-22T20:42:52.062Z</time>
      </trkpt>
      <trkpt lat="47.76311" lon="7.38816">
        <ele>233.904678</ele>
        <time>2022-08-22T20:42:55.764Z</time>
      </trkpt>
      <trkpt lat="47.76373" lon="7.38758">
        <ele>233.437472</ele>
        <time>2022-08-22T20:43:05.384Z</time>
      </trkpt>
      <trkpt lat="47.76408" lon="7.38726">
        <ele>233.550045</ele>
        <time>2022-08-22T20:43:11.380Z</time>
      </trkpt>
      <trkpt lat="47.76446" lon="7.38689">
        <ele>233.67614</ele>
        <time>2022-08-22T20:43:18.677Z</time>
      </trkpt>
      <trkpt lat="47.76459" lon="7.38678">
        <ele>233.717625</ele>
        <time>2022-08-22T20:43:21.071Z</time>
      </trkpt>
      <trkpt lat="47.76472" lon="7.38675">
        <ele>233.753944</ele>
        <time>2022-08-22T20:43:23.268Z</time>
      </trkpt>
      <trkpt lat="47.765" lon="7.3869">
        <ele>233.8359</ele>
        <time>2022-08-22T20:43:28.010Z</time>
      </trkpt>
      <trkpt lat="47.76518" lon="7.38711">
        <ele>233.900015</ele>
        <time>2022-08-22T20:43:31.570Z</time>
      </trkpt>
      <trkpt lat="47.76544" lon="7.38747">
        <ele>233.988898</ele>
        <time>2022-08-22T20:43:37.260Z</time>
      </trkpt>
      <trkpt lat="47.76558" lon="7.38781">
        <ele>234.050612</ele>
        <time>2022-08-22T20:43:41.450Z</time>
      </trkpt>
      <trkpt lat="47.76579" lon="7.38856">
        <ele>234.179289</ele>
        <time>2022-08-22T20:43:50.207Z</time>
      </trkpt>
      <trkpt lat="47.76605" lon="7.3896">
        <ele>234.351078</ele>
        <time>2022-08-22T20:44:01.885Z</time>
      </trkpt>
      <trkpt lat="47.76612" lon="7.38969">
        <ele>234.328251</ele>
        <time>2022-08-22T20:44:03.234Z</time>
      </trkpt>
      <trkpt lat="47.76633" lon="7.39024">
        <ele>234.221272</ele>
        <time>2022-08-22T20:44:09.050Z</time>
      </trkpt>
      <trkpt lat="47.7667" lon="7.39125">
        <ele>234.028613</ele>
        <time>2022-08-22T20:44:19.291Z</time>
      </trkpt>
      <trkpt lat="47.76705" lon="7.39164">
        <ele>233.920176</ele>
        <time>2022-08-22T20:44:25.301Z</time>
      </trkpt>
      <trkpt lat="47.76733" lon="7.39238">
        <ele>234.17605</ele>
        <time>2022-08-22T20:44:34.116Z</time>
      </trkpt>
      <trkpt lat="47.76738" lon="7.39243">
        <ele>234.209166</ele>
        <time>2022-08-22T20:44:35.110Z</time>
      </trkpt>
      <trkpt lat="47.76743" lon="7.39249">
        <ele>234.239955</ele>
        <time>2022-08-22T20:44:36.028Z</time>
      </trkpt>
      <trkpt lat="47.76766" lon="7.39303">
        <ele>234.467258</ele>
        <time>2022-08-22T20:44:42.877Z</time>
      </trkpt>
      <trkpt lat="47.76777" lon="7.39315">
        <ele>234.540646</ele>
        <time>2022-08-22T20:44:45.090Z</time>
      </trkpt>
      <trkpt lat="47.76799" lon="7.39365">
        <ele>234.756002</ele>
        <time>2022-08-22T20:44:51.706Z</time>
      </trkpt>
      <trkpt lat="47.76792" lon="7.39428">
        <ele>235.099515</ele>
        <time>2022-08-22T20:44:58.912Z</time>
      </trkpt>
      <trkpt lat="47.76776" lon="7.39569">
        <ele>236.092954</ele>
        <time>2022-08-22T20:45:15.178Z</time>
      </trkpt>
      <trkpt lat="47.76772" lon="7.39575">
        <ele>236.157344</ele>
        <time>2022-08-22T20:45:16.181Z</time>
      </trkpt>
      <trkpt lat="47.76758" lon="7.39574">
        <ele>236.296091</ele>
        <time>2022-08-22T20:45:18.385Z</time>
      </trkpt>
      <trkpt lat="47.76753" lon="7.39582">
        <ele>236.372436</ele>
        <time>2022-08-22T20:45:19.594Z</time>
      </trkpt>
      <trkpt lat="47.76747" lon="7.39641">
        <ele>236.736348</ele>
        <time>2022-08-22T20:45:26.160Z</time>
      </trkpt>
      <trkpt lat="47.76738" lon="7.39733">
        <ele>236.871343</ele>
        <time>2022-08-22T20:45:36.179Z</time>
      </trkpt>
      <trkpt lat="47.76728" lon="7.39823">
        <ele>237.002491</ele>
        <time>2022-08-22T20:45:45.492Z</time>
      </trkpt>
      <trkpt lat="47.76721" lon="7.39897">
        <ele>237.110928</ele>
        <time>2022-08-22T20:45:52.561Z</time>
      </trkpt>
      <trkpt lat="47.76699" lon="7.40093">
        <ele>236.498198</ele>
        <time>2022-08-22T20:46:10.178Z</time>
      </trkpt>
      <trkpt lat="47.76689" lon="7.40167">
        <ele>236.279297</ele>
        <time>2022-08-22T20:46:16.849Z</time>
      </trkpt>
      <trkpt lat="47.76693" lon="7.40186">
        <ele>236.26053</ele>
        <time>2022-08-22T20:46:18.711Z</time>
      </trkpt>
      <trkpt lat="47.76716" lon="7.40236">
        <ele>236.205094</ele>
        <time>2022-08-22T20:46:24.211Z</time>
      </trkpt>
      <trkpt lat="47.76731" lon="7.40291">
        <ele>236.150271</ele>
        <time>2022-08-22T20:46:29.846Z</time>
      </trkpt>
      <trkpt lat="47.76732" lon="7.4031">
        <ele>236.131945</ele>
        <time>2022-08-22T20:46:31.676Z</time>
      </trkpt>
      <trkpt lat="47.76717" lon="7.40412">
        <ele>236.041677</ele>
        <time>2022-08-22T20:46:42.408Z</time>
      </trkpt>
      <trkpt lat="47.76709" lon="7.40454">
        <ele>236.103343</ele>
        <time>2022-08-22T20:46:47.121Z</time>
      </trkpt>
      <trkpt lat="47.76667" lon="7.40799">
        <ele>236.284645</ele>
        <time>2022-08-22T20:47:24.105Z</time>
      </trkpt>
      <trkpt lat="47.76656" lon="7.40935">
        <ele>236.146991</ele>
        <time>2022-08-22T20:47:36.179Z</time>
      </trkpt>
      <trkpt lat="47.76628" lon="7.4116">
        <ele>235.846791</ele>
        <time>2022-08-22T20:47:57.150Z</time>
      </trkpt>
      <trkpt lat="47.76609" lon="7.41336">
        <ele>235.891506</ele>
        <time>2022-08-22T20:48:16.397Z</time>
      </trkpt>
      <trkpt lat="47.76587" lon="7.41518">
        <ele>235.703702</ele>
        <time>2022-08-22T20:48:34.686Z</time>
      </trkpt>
      <trkpt lat="47.7659" lon="7.41582">
        <ele>235.387812</ele>
        <time>2022-08-22T20:48:40.100Z</time>
      </trkpt>
      <trkpt lat="47.76566" lon="7.41649">
        <ele>235.011259</ele>
        <time>2022-08-22T20:48:46.340Z</time>
      </trkpt>
      <trkpt lat="47.76551" lon="7.41702">
        <ele>234.723658</ele>
        <time>2022-08-22T20:48:50.995Z</time>
      </trkpt>
      <trkpt lat="47.76545" lon="7.41778">
        <ele>234.554125</ele>
        <time>2022-08-22T20:48:57.113Z</time>
      </trkpt>
      <trkpt lat="47.76533" lon="7.41843">
        <ele>234.446946</ele>
        <time>2022-08-22T20:49:02.897Z</time>
      </trkpt>
      <trkpt lat="47.7653" lon="7.41866">
        <ele>234.410899</ele>
        <time>2022-08-22T20:49:05.042Z</time>
      </trkpt>
      <trkpt lat="47.76537" lon="7.41932">
        <ele>234.305809</ele>
        <time>2022-08-22T20:49:12.098Z</time>
      </trkpt>
      <trkpt lat="47.76505" lon="7.42014">
        <ele>234.578436</ele>
        <time>2022-08-22T20:49:22.400Z</time>
      </trkpt>
      <trkpt lat="47.76499" lon="7.42048">
        <ele>234.839831</ele>
        <time>2022-08-22T20:49:26.368Z</time>
      </trkpt>
      <trkpt lat="47.76504" lon="7.42188">
        <ele>235.881677</ele>
        <time>2022-08-22T20:49:42.443Z</time>
      </trkpt>
      <trkpt lat="47.76501" lon="7.42205">
        <ele>236.015239</ele>
        <time>2022-08-22T20:49:44.509Z</time>
      </trkpt>
      <trkpt lat="47.76472" lon="7.42264">
        <ele>236.485886</ele>
        <time>2022-08-22T20:49:52.905Z</time>
      </trkpt>
      <trkpt lat="47.76473" lon="7.42302">
        <ele>236.704923</ele>
        <time>2022-08-22T20:49:57.184Z</time>
      </trkpt>
      <trkpt lat="47.76465" lon="7.4237">
        <ele>237.102776</ele>
        <time>2022-08-22T20:50:04.790Z</time>
      </trkpt>
      <trkpt lat="47.76472" lon="7.42413">
        <ele>237.361253</ele>
        <time>2022-08-22T20:50:09.584Z</time>
      </trkpt>
      <trkpt lat="47.76484" lon="7.42456">
        <ele>237.631503</ele>
        <time>2022-08-22T20:50:14.597Z</time>
      </trkpt>
      <trkpt lat="47.76485" lon="7.42478">
        <ele>237.760876</ele>
        <time>2022-08-22T20:50:16.987Z</time>
      </trkpt>
      <trkpt lat="47.76424" lon="7.4304">
        <ele>238.926886</ele>
        <time>2022-08-22T20:51:18.198Z</time>
      </trkpt>
      <trkpt lat="47.76418" lon="7.43078">
        <ele>238.931331</ele>
        <time>2022-08-22T20:51:22.319Z</time>
      </trkpt>
      <trkpt lat="47.76401" lon="7.43128">
        <ele>238.937538</ele>
        <time>2022-08-22T20:51:27.966Z</time>
      </trkpt>
      <trkpt lat="47.76395" lon="7.43187">
        <ele>238.944202</ele>
        <time>2022-08-22T20:51:33.845Z</time>
      </trkpt>
      <trkpt lat="47.76396" lon="7.43284">
        <ele>238.910251</ele>
        <time>2022-08-22T20:51:43.013Z</time>
      </trkpt>
      <trkpt lat="47.76359" lon="7.43622">
        <ele>237.922589</ele>
        <time>2022-08-22T20:52:13.930Z</time>
      </trkpt>
      <trkpt lat="47.76333" lon="7.43746">
        <ele>237.53555</ele>
        <time>2022-08-22T20:52:25.558Z</time>
      </trkpt>
      <trkpt lat="47.76326" lon="7.43926">
        <ele>236.939228</ele>
        <time>2022-08-22T20:52:41.458Z</time>
      </trkpt>
      <trkpt lat="47.76314" lon="7.44011">
        <ele>236.640006</ele>
        <time>2022-08-22T20:52:49.130Z</time>
      </trkpt>
      <trkpt lat="47.76297" lon="7.44189">
        <ele>236.04068</ele>
        <time>2022-08-22T20:53:05.447Z</time>
      </trkpt>
      <trkpt lat="47.76246" lon="7.44168">
        <ele>235.777939</ele>
        <time>2022-08-22T20:53:12.496Z</time>
      </trkpt>
      <trkpt lat="47.76223" lon="7.44183">
        <ele>235.658793</ele>
        <time>2022-08-22T20:53:15.595Z</time>
      </trkpt>
      <trkpt lat="47.76212" lon="7.44205">
        <ele>235.582755</ele>
        <time>2022-08-22T20:53:17.967Z</time>
      </trkpt>
      <trkpt lat="47.76207" lon="7.44235">
        <ele>235.53647</ele>
        <time>2022-08-22T20:53:20.802Z</time>
      </trkpt>
      <trkpt lat="47.76219" lon="7.44277">
        <ele>235.469151</ele>
        <time>2022-08-22T20:53:24.998Z</time>
      </trkpt>
      <trkpt lat="47.76259" lon="7.44375">
        <ele>235.297777</ele>
        <time>2022-08-22T20:53:36.422Z</time>
      </trkpt>
      <trkpt lat="47.76267" lon="7.44396">
        <ele>235.261409</ele>
        <time>2022-08-22T20:53:38.683Z</time>
      </trkpt>
      <trkpt lat="47.76335" lon="7.44545">
        <ele>235.069455</ele>
        <time>2022-08-22T20:53:56.002Z</time>
      </trkpt>
      <trkpt lat="47.76339" lon="7.44553">
        <ele>235.059373</ele>
        <time>2022-08-22T20:53:57.424Z</time>
      </trkpt>
      <trkpt lat="47.76391" lon="7.44658">
        <ele>234.93209</ele>
        <time>2022-08-22T20:54:10.115Z</time>
      </trkpt>
      <trkpt lat="47.7644" lon="7.44777">
        <ele>234.719559</ele>
        <time>2022-08-22T20:54:22.700Z</time>
      </trkpt>
      <trkpt lat="47.76472" lon="7.44814">
        <ele>234.629023</ele>
        <time>2022-08-22T20:54:28.227Z</time>
      </trkpt>
      <trkpt lat="47.7649" lon="7.44812">
        <ele>234.588659</ele>
        <time>2022-08-22T20:54:30.739Z</time>
      </trkpt>
      <trkpt lat="47.7653" lon="7.44783">
        <ele>234.563116</ele>
        <time>2022-08-22T20:54:37.514Z</time>
      </trkpt>
      <trkpt lat="47.76596" lon="7.4462">
        <ele>234.693669</ele>
        <time>2022-08-22T20:54:57.988Z</time>
      </trkpt>
      <trkpt lat="47.76601" lon="7.44622">
        <ele>234.699638</ele>
        <time>2022-08-22T20:54:58.814Z</time>
      </trkpt>
      <trkpt lat="47.76554" lon="7.44746">
        <ele>234.673394</ele>
        <time>2022-08-22T20:55:11.967Z</time>
      </trkpt>
      <trkpt lat="47.76529" lon="7.44796">
        <ele>234.644788</ele>
        <time>2022-08-22T20:55:17.884Z</time>
      </trkpt>
      <trkpt lat="47.765" lon="7.4482">
        <ele>234.62212</ele>
        <time>2022-08-22T20:55:22.888Z</time>
      </trkpt>
      <trkpt lat="47.76477" lon="7.4484">
        <ele>234.604393</ele>
        <time>2022-08-22T20:55:26.784Z</time>
      </trkpt>
      <trkpt lat="47.76467" lon="7.44856">
        <ele>234.625249</ele>
        <time>2022-08-22T20:55:29.130Z</time>
      </trkpt>
      <trkpt lat="47.76463" lon="7.44874">
        <ele>234.660153</ele>
        <time>2022-08-22T20:55:30.903Z</time>
      </trkpt>
      <trkpt lat="47.7647" lon="7.44894">
        <ele>234.701545</ele>
        <time>2022-08-22T20:55:33.323Z</time>
      </trkpt>
      <trkpt lat="47.76536" lon="7.45065">
        <ele>235.065424</ele>
        <time>2022-08-22T20:55:54.336Z</time>
      </trkpt>
      <trkpt lat="47.76588" lon="7.452">
        <ele>235.24471</ele>
        <time>2022-08-22T20:56:11.084Z</time>
      </trkpt>
      <trkpt lat="47.7683" lon="7.45865">
        <ele>234.512355</ele>
        <time>2022-08-22T20:57:23.824Z</time>
      </trkpt>
      <trkpt lat="47.76922" lon="7.46119">
        <ele>233.766027</ele>
        <time>2022-08-22T20:57:48.153Z</time>
      </trkpt>
      <trkpt lat="47.77088" lon="7.46545">
        <ele>234.54486</ele>
        <time>2022-08-22T20:58:41.116Z</time>
      </trkpt>
      <trkpt lat="47.77341" lon="7.47227">
        <ele>235.026639</ele>
        <time>2022-08-22T21:00:01.415Z</time>
      </trkpt>
      <trkpt lat="47.77389" lon="7.47356">
        <ele>234.527232</ele>
        <time>2022-08-22T21:00:14.059Z</time>
      </trkpt>
      <trkpt lat="47.7747" lon="7.47575">
        <ele>233.990566</ele>
        <time>2022-08-22T21:00:35.638Z</time>
      </trkpt>
      <trkpt lat="47.77593" lon="7.47903">
        <ele>234.807946</ele>
        <time>2022-08-22T21:01:16.103Z</time>
      </trkpt>
      <trkpt lat="47.77718" lon="7.48238">
        <ele>235.743237</ele>
        <time>2022-08-22T21:01:57.318Z</time>
      </trkpt>
      <trkpt lat="47.77841" lon="7.48569">
        <ele>234.491414</ele>
        <time>2022-08-22T21:02:31.277Z</time>
      </trkpt>
      <trkpt lat="47.78039" lon="7.49105">
        <ele>226.124785</ele>
        <time>2022-08-22T21:03:15.447Z</time>
      </trkpt>
      <trkpt lat="47.78073" lon="7.49247">
        <ele>224.843902</ele>
        <time>2022-08-22T21:03:27.244Z</time>
      </trkpt>
      <trkpt lat="47.78096" lon="7.49351">
        <ele>224.307743</ele>
        <time>2022-08-22T21:03:37.254Z</time>
      </trkpt>
      <trkpt lat="47.78165" lon="7.49649">
        <ele>224.087701</ele>
        <time>2022-08-22T21:04:10.584Z</time>
      </trkpt>
      <trkpt lat="47.78178" lon="7.49707">
        <ele>223.896037</ele>
        <time>2022-08-22T21:04:16.354Z</time>
      </trkpt>
      <trkpt lat="47.78178" lon="7.49711">
        <ele>223.885601</ele>
        <time>2022-08-22T21:04:16.653Z</time>
      </trkpt>
      <trkpt lat="47.78184" lon="7.49737">
        <ele>223.799315</ele>
        <time>2022-08-22T21:04:19.051Z</time>
      </trkpt>
      <trkpt lat="47.78279" lon="7.50156">
        <ele>220.578507</ele>
        <time>2022-08-22T21:04:53.977Z</time>
      </trkpt>
      <trkpt lat="47.78297" lon="7.5021">
        <ele>220.163656</ele>
        <time>2022-08-22T21:04:58.796Z</time>
      </trkpt>
      <trkpt lat="47.78294" lon="7.50219">
        <ele>220.092103</ele>
        <time>2022-08-22T21:04:59.647Z</time>
      </trkpt>
      <trkpt lat="47.78295" lon="7.50235">
        <ele>219.98391</ele>
        <time>2022-08-22T21:05:00.931Z</time>
      </trkpt>
      <trkpt lat="47.78301" lon="7.50245">
        <ele>219.888169</ele>
        <time>2022-08-22T21:05:02.065Z</time>
      </trkpt>
      <trkpt lat="47.78311" lon="7.50249">
        <ele>219.785834</ele>
        <time>2022-08-22T21:05:03.296Z</time>
      </trkpt>
      <trkpt lat="47.78322" lon="7.50243">
        <ele>219.66268</ele>
        <time>2022-08-22T21:05:04.802Z</time>
      </trkpt>
      <trkpt lat="47.78354" lon="7.50293">
        <ele>219.336958</ele>
        <time>2022-08-22T21:05:10.645Z</time>
      </trkpt>
      <trkpt lat="47.78418" lon="7.50397">
        <ele>219.189833</ele>
        <time>2022-08-22T21:05:24.267Z</time>
      </trkpt>
      <trkpt lat="47.78426" lon="7.50411">
        <ele>219.170743</ele>
        <time>2022-08-22T21:05:26.163Z</time>
      </trkpt>
      <trkpt lat="47.78438" lon="7.5043">
        <ele>219.142693</ele>
        <time>2022-08-22T21:05:28.911Z</time>
      </trkpt>
      <trkpt lat="47.78516" lon="7.50546">
        <ele>219.293427</ele>
        <time>2022-08-22T21:05:46.079Z</time>
      </trkpt>
      <trkpt lat="47.78564" lon="7.50611">
        <ele>219.481443</ele>
        <time>2022-08-22T21:05:56.479Z</time>
      </trkpt>
      <trkpt lat="47.78591" lon="7.50637">
        <ele>219.575584</ele>
        <time>2022-08-22T21:06:01.707Z</time>
      </trkpt>
      <trkpt lat="47.78627" lon="7.50649">
        <ele>219.742361</ele>
        <time>2022-08-22T21:06:07.530Z</time>
      </trkpt>
      <trkpt lat="47.78647" lon="7.50648">
        <ele>219.845872</ele>
        <time>2022-08-22T21:06:10.722Z</time>
      </trkpt>
      <trkpt lat="47.78635" lon="7.50728">
        <ele>220.130506</ele>
        <time>2022-08-22T21:06:19.484Z</time>
      </trkpt>
      <trkpt lat="47.7862" lon="7.50772">
        <ele>220.301835</ele>
        <time>2022-08-22T21:06:24.756Z</time>
      </trkpt>
      <trkpt lat="47.78604" lon="7.50802">
        <ele>220.436336</ele>
        <time>2022-08-22T21:06:28.989Z</time>
      </trkpt>
      <trkpt lat="47.78594" lon="7.50815">
        <ele>220.506321</ele>
        <time>2022-08-22T21:06:31.144Z</time>
      </trkpt>
      <trkpt lat="47.7859" lon="7.50821">
        <ele>220.536867</ele>
        <time>2022-08-22T21:06:32.114Z</time>
      </trkpt>
      <trkpt lat="47.78511" lon="7.50911">
        <ele>220.778607</ele>
        <time>2022-08-22T21:06:47.912Z</time>
      </trkpt>
      <trkpt lat="47.78479" lon="7.50965">
        <ele>220.896477</ele>
        <time>2022-08-22T21:06:55.270Z</time>
      </trkpt>
      <trkpt lat="47.78465" lon="7.51">
        <ele>220.964326</ele>
        <time>2022-08-22T21:06:59.284Z</time>
      </trkpt>
      <trkpt lat="47.78461" lon="7.51011">
        <ele>220.959783</ele>
        <time>2022-08-22T21:07:00.883Z</time>
      </trkpt>
      <trkpt lat="47.78454" lon="7.51027">
        <ele>220.889487</ele>
        <time>2022-08-22T21:07:02.488Z</time>
      </trkpt>
      <trkpt lat="47.78434" lon="7.51085">
        <ele>220.641971</ele>
        <time>2022-08-22T21:07:08.399Z</time>
      </trkpt>
      <trkpt lat="47.78336" lon="7.51393">
        <ele>219.432761</ele>
        <time>2022-08-22T21:07:37.818Z</time>
      </trkpt>
      <trkpt lat="47.78342" lon="7.51396">
        <ele>219.400511</ele>
        <time>2022-08-22T21:07:39.075Z</time>
      </trkpt>
      <trkpt lat="47.7833" lon="7.51431">
        <ele>219.271564</ele>
        <time>2022-08-22T21:07:42.769Z</time>
      </trkpt>
      <trkpt lat="47.78333" lon="7.51446">
        <ele>219.220441</ele>
        <time>2022-08-22T21:07:44.294Z</time>
      </trkpt>
      <trkpt lat="47.78349" lon="7.51487">
        <ele>219.079272</ele>
        <time>2022-08-22T21:07:48.772Z</time>
      </trkpt>
      <trkpt lat="47.78365" lon="7.5151">
        <ele>219.035081</ele>
        <time>2022-08-22T21:07:51.852Z</time>
      </trkpt>
      <trkpt lat="47.78382" lon="7.51525">
        <ele>218.995153</ele>
        <time>2022-08-22T21:07:54.873Z</time>
      </trkpt>
      <trkpt lat="47.78554" lon="7.51546">
        <ele>218.498818</ele>
        <time>2022-08-22T21:08:19.108Z</time>
      </trkpt>
      <trkpt lat="47.78608" lon="7.51567">
        <ele>218.172887</ele>
        <time>2022-08-22T21:08:26.255Z</time>
      </trkpt>
      <trkpt lat="47.78651" lon="7.51592">
        <ele>217.905982</ele>
        <time>2022-08-22T21:08:32.074Z</time>
      </trkpt>
      <trkpt lat="47.78688" lon="7.5162">
        <ele>217.661397</ele>
        <time>2022-08-22T21:08:37.496Z</time>
      </trkpt>
      <trkpt lat="47.78749" lon="7.51685">
        <ele>217.278471</ele>
        <time>2022-08-22T21:08:47.122Z</time>
      </trkpt>
      <trkpt lat="47.78799" lon="7.51759">
        <ele>216.923951</ele>
        <time>2022-08-22T21:08:56.426Z</time>
      </trkpt>
      <trkpt lat="47.78818" lon="7.51798">
        <ele>216.760702</ele>
        <time>2022-08-22T21:09:00.952Z</time>
      </trkpt>
      <trkpt lat="47.78873" lon="7.51938">
        <ele>216.663337</ele>
        <time>2022-08-22T21:09:16.788Z</time>
      </trkpt>
      <trkpt lat="47.79005" lon="7.52285">
        <ele>216.565819</ele>
        <time>2022-08-22T21:09:56.458Z</time>
      </trkpt>
      <trkpt lat="47.79071" lon="7.52388">
        <ele>216.462841</ele>
        <time>2022-08-22T21:10:10.022Z</time>
      </trkpt>
      <trkpt lat="47.79116" lon="7.52434">
        <ele>216.403986</ele>
        <time>2022-08-22T21:10:17.794Z</time>
      </trkpt>
      <trkpt lat="47.79173" lon="7.5248">
        <ele>216.364461</ele>
        <time>2022-08-22T21:10:27.111Z</time>
      </trkpt>
      <trkpt lat="47.79283" lon="7.52554">
        <ele>216.30283</ele>
        <time>2022-08-22T21:10:45.157Z</time>
      </trkpt>
      <trkpt lat="47.7997" lon="7.53001">
        <ele>216.621048</ele>
        <time>2022-08-22T21:12:36.200Z</time>
      </trkpt>
      <trkpt lat="47.80043" lon="7.53048">
        <ele>217.357865</ele>
        <time>2022-08-22T21:12:48.960Z</time>
      </trkpt>
      <trkpt lat="47.80402" lon="7.53282">
        <ele>221.778417</ele>
        <time>2022-08-22T21:13:57.483Z</time>
      </trkpt>
      <trkpt lat="47.80414" lon="7.53276">
        <ele>221.868983</ele>
        <time>2022-08-22T21:13:58.974Z</time>
      </trkpt>
      <trkpt lat="47.80422" lon="7.53281">
        <ele>221.92879</ele>
        <time>2022-08-22T21:14:00.544Z</time>
      </trkpt>
      <trkpt lat="47.8043" lon="7.53287">
        <ele>221.994915</ele>
        <time>2022-08-22T21:14:01.597Z</time>
      </trkpt>
      <trkpt lat="47.8044" lon="7.53308">
        <ele>222.012967</ele>
        <time>2022-08-22T21:14:03.479Z</time>
      </trkpt>
      <trkpt lat="47.80666" lon="7.53458">
        <ele>217.396518</ele>
        <time>2022-08-22T21:14:30.398Z</time>
      </trkpt>
      <trkpt lat="47.80734" lon="7.5357">
        <ele>215.649877</ele>
        <time>2022-08-22T21:14:41.833Z</time>
      </trkpt>
      <trkpt lat="47.80765" lon="7.53608">
        <ele>215.236068</ele>
        <time>2022-08-22T21:14:46.648Z</time>
      </trkpt>
      <trkpt lat="47.80936" lon="7.53718">
        <ele>213.55177</ele>
        <time>2022-08-22T21:15:10.512Z</time>
      </trkpt>
      <trkpt lat="47.80946" lon="7.5372">
        <ele>213.453879</ele>
        <time>2022-08-22T21:15:11.644Z</time>
      </trkpt>
      <trkpt lat="47.80958" lon="7.53705">
        <ele>213.29945</ele>
        <time>2022-08-22T21:15:13.543Z</time>
      </trkpt>
      <trkpt lat="47.80963" lon="7.53709">
        <ele>213.240149</ele>
        <time>2022-08-22T21:15:14.400Z</time>
      </trkpt>
      <trkpt lat="47.80965" lon="7.5371">
        <ele>213.223634</ele>
        <time>2022-08-22T21:15:14.652Z</time>
      </trkpt>
      <trkpt lat="47.80972" lon="7.53716">
        <ele>213.147824</ele>
        <time>2022-08-22T21:15:15.655Z</time>
      </trkpt>
      <trkpt lat="47.80976" lon="7.53719">
        <ele>213.09886</ele>
        <time>2022-08-22T21:15:16.185Z</time>
      </trkpt>
      <trkpt lat="47.80975" lon="7.53733">
        <ele>213.005473</ele>
        <time>2022-08-22T21:15:17.269Z</time>
      </trkpt>
      <trkpt lat="47.80984" lon="7.53757">
        <ele>212.818526</ele>
        <time>2022-08-22T21:15:19.880Z</time>
      </trkpt>
      <trkpt lat="47.80982" lon="7.53763">
        <ele>212.773319</ele>
        <time>2022-08-22T21:15:20.374Z</time>
      </trkpt>
      <trkpt lat="47.80979" lon="7.53775">
        <ele>212.68997</ele>
        <time>2022-08-22T21:15:21.365Z</time>
      </trkpt>
      <trkpt lat="47.80977" lon="7.53781">
        <ele>212.646566</ele>
        <time>2022-08-22T21:15:21.821Z</time>
      </trkpt>
      <trkpt lat="47.81047" lon="7.53817">
        <ele>212.060262</ele>
        <time>2022-08-22T21:15:30.703Z</time>
      </trkpt>
      <trkpt lat="47.81125" lon="7.53831">
        <ele>211.723285</ele>
        <time>2022-08-22T21:15:40.530Z</time>
      </trkpt>
      <trkpt lat="47.81171" lon="7.53858">
        <ele>211.509507</ele>
        <time>2022-08-22T21:15:47.810Z</time>
      </trkpt>
      <trkpt lat="47.81377" lon="7.54071">
        <ele>212.504261</ele>
        <time>2022-08-22T21:16:27.861Z</time>
      </trkpt>
      <trkpt lat="47.81411" lon="7.54102">
        <ele>212.71656</ele>
        <time>2022-08-22T21:16:34.252Z</time>
      </trkpt>
      <trkpt lat="47.81463" lon="7.54136">
        <ele>213.022849</ele>
        <time>2022-08-22T21:16:43.462Z</time>
      </trkpt>
      <trkpt lat="47.81465" lon="7.5413">
        <ele>213.044357</ele>
        <time>2022-08-22T21:16:44.853Z</time>
      </trkpt>
      <trkpt lat="47.81672" lon="7.54198">
        <ele>214.584481</ele>
        <time>2022-08-22T21:17:18.879Z</time>
      </trkpt>
      <trkpt lat="47.81675" lon="7.54213">
        <ele>214.7279</ele>
        <time>2022-08-22T21:17:20.579Z</time>
      </trkpt>
      <trkpt lat="47.81683" lon="7.54221">
        <ele>214.881354</ele>
        <time>2022-08-22T21:17:22.293Z</time>
      </trkpt>
      <trkpt lat="47.81698" lon="7.54217">
        <ele>215.106039</ele>
        <time>2022-08-22T21:17:24.832Z</time>
      </trkpt>
      <trkpt lat="47.81703" lon="7.54197">
        <ele>215.317359</ele>
        <time>2022-08-22T21:17:27.295Z</time>
      </trkpt>
      <trkpt lat="47.81692" lon="7.54178">
        <ele>215.571277</ele>
        <time>2022-08-22T21:17:30.302Z</time>
      </trkpt>
      <trkpt lat="47.81703" lon="7.54122">
        <ele>216.171807</ele>
        <time>2022-08-22T21:17:37.498Z</time>
      </trkpt>
      <trkpt lat="47.81703" lon="7.54096">
        <ele>216.436883</ele>
        <time>2022-08-22T21:17:40.592Z</time>
      </trkpt>
      <trkpt lat="47.81699" lon="7.54076">
        <ele>216.650932</ele>
        <time>2022-08-22T21:17:43.168Z</time>
      </trkpt>
      <trkpt lat="47.81696" lon="7.5407">
        <ele>216.72671</ele>
        <time>2022-08-22T21:17:44.101Z</time>
      </trkpt>
      <trkpt lat="47.81693" lon="7.54064">
        <ele>216.802452</ele>
        <time>2022-08-22T21:17:44.947Z</time>
      </trkpt>
      <trkpt lat="47.8167" lon="7.54025">
        <ele>217.336964</ele>
        <time>2022-08-22T21:17:51.086Z</time>
      </trkpt>
      <trkpt lat="47.81665" lon="7.54017">
        <ele>217.374278</ele>
        <time>2022-08-22T21:17:52.262Z</time>
      </trkpt>
      <trkpt lat="47.81659" lon="7.54006">
        <ele>217.422419</ele>
        <time>2022-08-22T21:17:53.749Z</time>
      </trkpt>
      <trkpt lat="47.81656" lon="7.54011">
        <ele>217.447173</ele>
        <time>2022-08-22T21:17:54.671Z</time>
      </trkpt>
      <trkpt lat="47.81647" lon="7.54007">
        <ele>217.498454</ele>
        <time>2022-08-22T21:17:56.756Z</time>
      </trkpt>
      <trkpt lat="47.81625" lon="7.53983">
        <ele>217.645384</ele>
        <time>2022-08-22T21:18:02.219Z</time>
      </trkpt>
      <trkpt lat="47.81615" lon="7.53981">
        <ele>217.696317</ele>
        <time>2022-08-22T21:18:04.217Z</time>
      </trkpt>
      <trkpt lat="47.81592" lon="7.53983">
        <ele>217.82157</ele>
        <time>2022-08-22T21:18:08.801Z</time>
      </trkpt>
      <trkpt lat="47.81571" lon="7.54005">
        <ele>217.956709</ele>
        <time>2022-08-22T21:18:13.894Z</time>
      </trkpt>
      <trkpt lat="47.8153" lon="7.5412">
        <ele>218.146407</ele>
        <time>2022-08-22T21:18:31.200Z</time>
      </trkpt>
      <trkpt lat="47.81526" lon="7.54118">
        <ele>218.12016</ele>
        <time>2022-08-22T21:18:31.990Z</time>
      </trkpt>
      <trkpt lat="47.81523" lon="7.5413">
        <ele>218.062424</ele>
        <time>2022-08-22T21:18:33.115Z</time>
      </trkpt>
      <trkpt lat="47.81479" lon="7.54391">
        <ele>217.130114</ele>
        <time>2022-08-22T21:18:55.370Z</time>
      </trkpt>
      <trkpt lat="47.81477" lon="7.54428">
        <ele>217.134956</ele>
        <time>2022-08-22T21:18:58.899Z</time>
      </trkpt>
      <trkpt lat="47.81462" lon="7.54502">
        <ele>217.145032</ele>
        <time>2022-08-22T21:19:06.486Z</time>
      </trkpt>
      <trkpt lat="47.8144" lon="7.54636">
        <ele>217.541015</ele>
        <time>2022-08-22T21:19:21.245Z</time>
      </trkpt>
      <trkpt lat="47.81415" lon="7.54787">
        <ele>219.06156</ele>
        <time>2022-08-22T21:19:40.117Z</time>
      </trkpt>
      <trkpt lat="47.8141" lon="7.54838">
        <ele>219.566738</ele>
        <time>2022-08-22T21:19:46.272Z</time>
      </trkpt>
      <trkpt lat="47.81414" lon="7.54876">
        <ele>219.786659</ele>
        <time>2022-08-22T21:19:50.756Z</time>
      </trkpt>
      <trkpt lat="47.81415" lon="7.54888">
        <ele>219.800253</ele>
        <time>2022-08-22T21:19:52.096Z</time>
      </trkpt>
      <trkpt lat="47.81417" lon="7.54919">
        <ele>219.834691</ele>
        <time>2022-08-22T21:19:55.665Z</time>
      </trkpt>
      <trkpt lat="47.81425" lon="7.54919">
        <ele>219.847716</ele>
        <time>2022-08-22T21:19:57.276Z</time>
      </trkpt>
      <trkpt lat="47.81422" lon="7.55022">
        <ele>219.961851</ele>
        <time>2022-08-22T21:20:08.353Z</time>
      </trkpt>
      <trkpt lat="47.81418" lon="7.55029">
        <ele>219.971076</ele>
        <time>2022-08-22T21:20:09.068Z</time>
      </trkpt>
      <trkpt lat="47.81411" lon="7.55032">
        <ele>219.983721</ele>
        <time>2022-08-22T21:20:10.224Z</time>
      </trkpt>
      <trkpt lat="47.81398" lon="7.5504">
        <ele>220.007094</ele>
        <time>2022-08-22T21:20:12.146Z</time>
      </trkpt>
      <trkpt lat="47.81388" lon="7.55227">
        <ele>218.372576</ele>
        <time>2022-08-22T21:20:26.224Z</time>
      </trkpt>
      <trkpt lat="47.81388" lon="7.55256">
        <ele>218.011254</ele>
        <time>2022-08-22T21:20:28.406Z</time>
      </trkpt>
      <trkpt lat="47.81387" lon="7.55323">
        <ele>217.178248</ele>
        <time>2022-08-22T21:20:33.299Z</time>
      </trkpt>
      <trkpt lat="47.81387" lon="7.55377">
        <ele>216.706441</ele>
        <time>2022-08-22T21:20:37.180Z</time>
      </trkpt>
      <trkpt lat="47.81394" lon="7.55459">
        <ele>216.557191</ele>
        <time>2022-08-22T21:20:43.322Z</time>
      </trkpt>
      <trkpt lat="47.81401" lon="7.55513">
        <ele>216.456518</ele>
        <time>2022-08-22T21:20:47.539Z</time>
      </trkpt>
      <trkpt lat="47.81409" lon="7.55537">
        <ele>216.40853</ele>
        <time>2022-08-22T21:20:49.815Z</time>
      </trkpt>
      <trkpt lat="47.81419" lon="7.55579">
        <ele>216.328175</ele>
        <time>2022-08-22T21:20:55.197Z</time>
      </trkpt>
      <trkpt lat="47.81427" lon="7.55625">
        <ele>216.446291</ele>
        <time>2022-08-22T21:21:01.491Z</time>
      </trkpt>
      <trkpt lat="47.81453" lon="7.55705">
        <ele>218.612908</ele>
        <time>2022-08-22T21:21:13.340Z</time>
      </trkpt>
      <trkpt lat="47.81452" lon="7.55724">
        <ele>219.084535</ele>
        <time>2022-08-22T21:21:16.297Z</time>
      </trkpt>
      <trkpt lat="47.81449" lon="7.55734">
        <ele>219.3414</ele>
        <time>2022-08-22T21:21:17.617Z</time>
      </trkpt>
      <trkpt lat="47.81426" lon="7.55772">
        <ele>220.595534</ele>
        <time>2022-08-22T21:21:24.955Z</time>
      </trkpt>
      <trkpt lat="47.81412" lon="7.55809">
        <ele>221.633003</ele>
        <time>2022-08-22T21:21:31.114Z</time>
      </trkpt>
      <trkpt lat="47.814" lon="7.5589">
        <ele>223.304073</ele>
        <time>2022-08-22T21:21:42.419Z</time>
      </trkpt>
      <trkpt lat="47.81403" lon="7.55911">
        <ele>223.62238</ele>
        <time>2022-08-22T21:21:45.898Z</time>
      </trkpt>
      <trkpt lat="47.81363" lon="7.55898">
        <ele>224.528087</ele>
        <time>2022-08-22T21:21:54.402Z</time>
      </trkpt>
      <trkpt lat="47.81339" lon="7.56109">
        <ele>226.747951</ele>
        <time>2022-08-22T21:22:17.405Z</time>
      </trkpt>
      <trkpt lat="47.81349" lon="7.56113">
        <ele>226.753435</ele>
        <time>2022-08-22T21:22:19.276Z</time>
      </trkpt>
      <trkpt lat="47.8138" lon="7.56123">
        <ele>226.771051</ele>
        <time>2022-08-22T21:22:41.110Z</time>
      </trkpt>
      <trkpt lat="47.81364" lon="7.56196">
        <ele>226.799944</ele>
        <time>2022-08-22T21:22:50.736Z</time>
      </trkpt>
      <trkpt lat="47.81362" lon="7.56203">
        <ele>226.802915</ele>
        <time>2022-08-22T21:22:51.725Z</time>
      </trkpt>
      <trkpt lat="47.81343" lon="7.56267">
        <ele>226.803768</ele>
        <time>2022-08-22T21:23:00.335Z</time>
      </trkpt>
      <trkpt lat="47.81321" lon="7.56345">
        <ele>226.639658</ele>
        <time>2022-08-22T21:23:10.865Z</time>
      </trkpt>
      <trkpt lat="47.81314" lon="7.56375">
        <ele>226.578416</ele>
        <time>2022-08-22T21:23:14.781Z</time>
      </trkpt>
      <trkpt lat="47.81281" lon="7.56521">
        <ele>226.336231</ele>
        <time>2022-08-22T21:23:34.026Z</time>
      </trkpt>
      <trkpt lat="47.81262" lon="7.56608">
        <ele>226.530673</ele>
        <time>2022-08-22T21:23:46.012Z</time>
      </trkpt>
      <trkpt lat="47.81255" lon="7.56639">
        <ele>226.598542</ele>
        <time>2022-08-22T21:23:50.274Z</time>
      </trkpt>
      <trkpt lat="47.81248" lon="7.56669">
        <ele>226.666903</ele>
        <time>2022-08-22T21:23:54.587Z</time>
      </trkpt>
      <trkpt lat="47.81228" lon="7.56764">
        <ele>226.87862</ele>
        <time>2022-08-22T21:24:08.266Z</time>
      </trkpt>
      <trkpt lat="47.8122" lon="7.56803">
        <ele>226.999252</ele>
        <time>2022-08-22T21:24:13.931Z</time>
      </trkpt>
      <trkpt lat="47.81215" lon="7.56831">
        <ele>227.082821</ele>
        <time>2022-08-22T21:24:17.775Z</time>
      </trkpt>
      <trkpt lat="47.8121" lon="7.56852">
        <ele>227.150104</ele>
        <time>2022-08-22T21:24:20.939Z</time>
      </trkpt>
      <trkpt lat="47.81203" lon="7.5688">
        <ele>227.236559</ele>
        <time>2022-08-22T21:24:24.918Z</time>
      </trkpt>
      <trkpt lat="47.81188" lon="7.56962">
        <ele>227.487929</ele>
        <time>2022-08-22T21:24:36.446Z</time>
      </trkpt>
      <trkpt lat="47.81176" lon="7.57039">
        <ele>227.628279</ele>
        <time>2022-08-22T21:24:46.687Z</time>
      </trkpt>
      <trkpt lat="47.81174" lon="7.57058">
        <ele>227.593905</ele>
        <time>2022-08-22T21:24:49.300Z</time>
      </trkpt>
      <trkpt lat="47.81179" lon="7.57071">
        <ele>227.567211</ele>
        <time>2022-08-22T21:24:50.831Z</time>
      </trkpt>
      <trkpt lat="47.8117" lon="7.57135">
        <ele>227.453679</ele>
        <time>2022-08-22T21:24:57.308Z</time>
      </trkpt>
      <trkpt lat="47.8114" lon="7.57363">
        <ele>226.981501</ele>
        <time>2022-08-22T21:25:18.024Z</time>
      </trkpt>
      <trkpt lat="47.81138" lon="7.57447">
        <ele>226.770807</ele>
        <time>2022-08-22T21:25:25.595Z</time>
      </trkpt>
      <trkpt lat="47.81141" lon="7.57581">
        <ele>226.508371</ele>
        <time>2022-08-22T21:25:37.986Z</time>
      </trkpt>
      <trkpt lat="47.81147" lon="7.57853">
        <ele>226.509856</ele>
        <time>2022-08-22T21:26:04.912Z</time>
      </trkpt>
      <trkpt lat="47.81127" lon="7.58079">
        <ele>226.934095</ele>
        <time>2022-08-22T21:26:29.383Z</time>
      </trkpt>
      <trkpt lat="47.81105" lon="7.58199">
        <ele>227.111177</ele>
        <time>2022-08-22T21:26:42.800Z</time>
      </trkpt>
      <trkpt lat="47.81113" lon="7.58224">
        <ele>227.149935</ele>
        <time>2022-08-22T21:26:45.737Z</time>
      </trkpt>
      <trkpt lat="47.81111" lon="7.58249">
        <ele>227.184659</ele>
        <time>2022-08-22T21:26:48.319Z</time>
      </trkpt>
      <trkpt lat="47.81098" lon="7.5828">
        <ele>227.23685</ele>
        <time>2022-08-22T21:26:52.138Z</time>
      </trkpt>
      <trkpt lat="47.8109" lon="7.58325">
        <ele>227.303305</ele>
        <time>2022-08-22T21:26:56.845Z</time>
      </trkpt>
      <trkpt lat="47.81141" lon="7.58682">
        <ele>226.83057</ele>
        <time>2022-08-22T21:27:30.977Z</time>
      </trkpt>
      <trkpt lat="47.81146" lon="7.58755">
        <ele>226.739303</ele>
        <time>2022-08-22T21:27:37.795Z</time>
      </trkpt>
      <trkpt lat="47.81143" lon="7.58793">
        <ele>226.690896</ele>
        <time>2022-08-22T21:27:41.411Z</time>
      </trkpt>
      <trkpt lat="47.81128" lon="7.58864">
        <ele>226.624149</ele>
        <time>2022-08-22T21:27:48.526Z</time>
      </trkpt>
      <trkpt lat="47.81089" lon="7.58994">
        <ele>227.014265</ele>
        <time>2022-08-22T21:28:03.849Z</time>
      </trkpt>
      <trkpt lat="47.81082" lon="7.59048">
        <ele>227.165062</ele>
        <time>2022-08-22T21:28:09.768Z</time>
      </trkpt>
      <trkpt lat="47.81075" lon="7.59073">
        <ele>227.240194</ele>
        <time>2022-08-22T21:28:12.720Z</time>
      </trkpt>
      <trkpt lat="47.81071" lon="7.59083">
        <ele>227.270097</ele>
        <time>2022-08-22T21:28:13.892Z</time>
      </trkpt>
      <trkpt lat="47.81082" lon="7.59179">
        <ele>227.704333</ele>
        <time>2022-08-22T21:28:24.439Z</time>
      </trkpt>
      <trkpt lat="47.81092" lon="7.59277">
        <ele>228.206764</ele>
        <time>2022-08-22T21:28:35.208Z</time>
      </trkpt>
      <trkpt lat="47.81105" lon="7.59491">
        <ele>229.284418</ele>
        <time>2022-08-22T21:28:58.463Z</time>
      </trkpt>
      <trkpt lat="47.81104" lon="7.59589">
        <ele>229.771451</ele>
        <time>2022-08-22T21:29:08.994Z</time>
      </trkpt>
      <trkpt lat="47.81098" lon="7.59786">
        <ele>230.506875</ele>
        <time>2022-08-22T21:29:30.162Z</time>
      </trkpt>
      <trkpt lat="47.81098" lon="7.59892">
        <ele>230.857156</ele>
        <time>2022-08-22T21:29:41.621Z</time>
      </trkpt>
      <trkpt lat="47.81091" lon="7.59923">
        <ele>230.885841</ele>
        <time>2022-08-22T21:29:44.864Z</time>
      </trkpt>
      <trkpt lat="47.81088" lon="7.59932">
        <ele>230.870606</ele>
        <time>2022-08-22T21:29:49.622Z</time>
      </trkpt>
      <trkpt lat="47.81077" lon="7.59971">
        <ele>230.808044</ele>
        <time>2022-08-22T21:30:09.111Z</time>
      </trkpt>
      <trkpt lat="47.81073" lon="7.59986">
        <ele>230.783828</ele>
        <time>2022-08-22T21:30:16.621Z</time>
      </trkpt>
      <trkpt lat="47.81065" lon="7.60011">
        <ele>230.741555</ele>
        <time>2022-08-22T21:30:29.825Z</time>
      </trkpt>
      <trkpt lat="47.81066" lon="7.60012">
        <ele>230.737756</ele>
        <time>2022-08-22T21:30:30.960Z</time>
      </trkpt>
      <trkpt lat="47.81092" lon="7.6003">
        <ele>230.674646</ele>
        <time>2022-08-22T21:30:34.727Z</time>
      </trkpt>
      <trkpt lat="47.81095" lon="7.60035">
        <ele>230.664173</ele>
        <time>2022-08-22T21:30:35.353Z</time>
      </trkpt>
      <trkpt lat="47.81097" lon="7.60038">
        <ele>230.658919</ele>
        <time>2022-08-22T21:30:35.673Z</time>
      </trkpt>
      <trkpt lat="47.81098" lon="7.60043">
        <ele>230.650606</ele>
        <time>2022-08-22T21:30:36.162Z</time>
      </trkpt>
      <trkpt lat="47.81105" lon="7.60044">
        <ele>230.634383</ele>
        <time>2022-08-22T21:30:37.146Z</time>
      </trkpt>
      <trkpt lat="47.81249" lon="7.60142">
        <ele>230.432693</ele>
        <time>2022-08-22T21:30:59.383Z</time>
      </trkpt>
      <trkpt lat="47.81328" lon="7.60193">
        <ele>230.400512</ele>
        <time>2022-08-22T21:31:12.271Z</time>
      </trkpt>
      <trkpt lat="47.81356" lon="7.6021">
        <ele>230.492501</ele>
        <time>2022-08-22T21:31:17.025Z</time>
      </trkpt>
      <trkpt lat="47.81373" lon="7.60221">
        <ele>230.549704</ele>
        <time>2022-08-22T21:31:20.002Z</time>
      </trkpt>
      <trkpt lat="47.81386" lon="7.60239">
        <ele>230.605756</ele>
        <time>2022-08-22T21:31:22.914Z</time>
      </trkpt>
      <trkpt lat="47.81391" lon="7.60259">
        <ele>230.649989</ele>
        <time>2022-08-22T21:31:25.228Z</time>
      </trkpt>
      <trkpt lat="47.81386" lon="7.60328">
        <ele>230.79379</ele>
        <time>2022-08-22T21:31:32.721Z</time>
      </trkpt>
      <trkpt lat="47.81366" lon="7.60426">
        <ele>231.073576</ele>
        <time>2022-08-22T21:31:43.624Z</time>
      </trkpt>
      <trkpt lat="47.81339" lon="7.60583">
        <ele>231.704058</ele>
        <time>2022-08-22T21:32:01.028Z</time>
      </trkpt>
      <trkpt lat="47.81334" lon="7.60609">
        <ele>231.810943</ele>
        <time>2022-08-22T21:32:04.056Z</time>
      </trkpt>
      <trkpt lat="47.81319" lon="7.60696">
        <ele>232.420128</ele>
        <time>2022-08-22T21:32:14.069Z</time>
      </trkpt>
      <trkpt lat="47.81309" lon="7.60754">
        <ele>232.988999</ele>
        <time>2022-08-22T21:32:21.195Z</time>
      </trkpt>
      <trkpt lat="47.81296" lon="7.60809">
        <ele>233.535142</ele>
        <time>2022-08-22T21:32:28.031Z</time>
      </trkpt>
      <trkpt lat="47.8128" lon="7.60863">
        <ele>234.086872</ele>
        <time>2022-08-22T21:32:34.901Z</time>
      </trkpt>
      <trkpt lat="47.81271" lon="7.60892">
        <ele>234.382479</ele>
        <time>2022-08-22T21:32:39.459Z</time>
      </trkpt>
      <trkpt lat="47.81245" lon="7.60961">
        <ele>234.814726</ele>
        <time>2022-08-22T21:32:50.892Z</time>
      </trkpt>
      <trkpt lat="47.8124" lon="7.6097">
        <ele>234.872156</ele>
        <time>2022-08-22T21:32:52.552Z</time>
      </trkpt>
      <trkpt lat="47.81224" lon="7.61013">
        <ele>235.110505</ele>
        <time>2022-08-22T21:32:59.488Z</time>
      </trkpt>
      <trkpt lat="47.81216" lon="7.61011">
        <ele>235.174226</ele>
        <time>2022-08-22T21:33:00.946Z</time>
      </trkpt>
      <trkpt lat="47.81211" lon="7.61015">
        <ele>235.214558</ele>
        <time>2022-08-22T21:33:01.868Z</time>
      </trkpt>
      <trkpt lat="47.81206" lon="7.61029">
        <ele>235.289257</ele>
        <time>2022-08-22T21:33:03.516Z</time>
      </trkpt>
      <trkpt lat="47.81213" lon="7.61045">
        <ele>235.384237</ele>
        <time>2022-08-22T21:33:05.609Z</time>
      </trkpt>
      <trkpt lat="47.81208" lon="7.6106">
        <ele>235.460371</ele>
        <time>2022-08-22T21:33:07.765Z</time>
      </trkpt>
      <trkpt lat="47.81236" lon="7.61051">
        <ele>235.664133</ele>
        <time>2022-08-22T21:33:12.215Z</time>
      </trkpt>
      <trkpt lat="47.8136" lon="7.61088">
        <ele>234.98855</ele>
        <time>2022-08-22T21:33:28.253Z</time>
      </trkpt>
      <trkpt lat="47.81378" lon="7.61095">
        <ele>234.852025</ele>
        <time>2022-08-22T21:33:30.532Z</time>
      </trkpt>
      <trkpt lat="47.81425" lon="7.61133">
        <ele>234.472047</ele>
        <time>2022-08-22T21:33:37.311Z</time>
      </trkpt>
      <trkpt lat="47.81451" lon="7.6125">
        <ele>234.12707</ele>
        <time>2022-08-22T21:33:47.432Z</time>
      </trkpt>
      <trkpt lat="47.81446" lon="7.61256">
        <ele>234.100758</ele>
        <time>2022-08-22T21:33:49.605Z</time>
      </trkpt>
      <trkpt lat="47.81428" lon="7.61237">
        <ele>234.008462</ele>
        <time>2022-08-22T21:33:53.394Z</time>
      </trkpt>
      <trkpt lat="47.81422" lon="7.61236">
        <ele>233.984688</ele>
        <time>2022-08-22T21:33:54.382Z</time>
      </trkpt>
      <trkpt lat="47.81413" lon="7.61277">
        <ele>233.864935</ele>
        <time>2022-08-22T21:34:25.681Z</time>
      </trkpt>
      <trkpt lat="47.81403" lon="7.61274">
        <ele>233.822576</ele>
        <time>2022-08-22T21:34:36.290Z</time>
      </trkpt>
      <trkpt lat="47.81413" lon="7.61277">
        <ele>233.780217</ele>
        <time>2022-08-22T21:34:46.537Z</time>
      </trkpt>
      <trkpt lat="47.81422" lon="7.61236">
        <ele>234.18983</ele>
        <time>2022-08-22T21:35:15.487Z</time>
      </trkpt>
      <trkpt lat="47.81428" lon="7.61237">
        <ele>234.334451</ele>
        <time>2022-08-22T21:35:16.743Z</time>
      </trkpt>
      <trkpt lat="47.81446" lon="7.61256">
        <ele>234.895908</ele>
        <time>2022-08-22T21:35:21.840Z</time>
      </trkpt>
      <trkpt lat="47.81451" lon="7.6125">
        <ele>235.055971</ele>
        <time>2022-08-22T21:35:24.002Z</time>
      </trkpt>
      <trkpt lat="47.81493" lon="7.61348">
        <ele>237.02797</ele>
        <time>2022-08-22T21:35:40.133Z</time>
      </trkpt>
      <trkpt lat="47.81498" lon="7.61374">
        <ele>237.487436</ele>
        <time>2022-08-22T21:35:43.584Z</time>
      </trkpt>
      <trkpt lat="47.81489" lon="7.61488">
        <ele>238.180471</ele>
        <time>2022-08-22T21:35:57.617Z</time>
      </trkpt>
      <trkpt lat="47.81518" lon="7.6149">
        <ele>238.118511</ele>
        <time>2022-08-22T21:36:02.465Z</time>
      </trkpt>
      <trkpt lat="47.8152" lon="7.61489">
        <ele>238.113508</ele>
        <time>2022-08-22T21:36:02.850Z</time>
      </trkpt>
      <trkpt lat="47.8154" lon="7.61411">
        <ele>237.993649</ele>
        <time>2022-08-22T21:36:13.302Z</time>
      </trkpt>
      <trkpt lat="47.8159" lon="7.61343">
        <ele>237.275231</ele>
        <time>2022-08-22T21:36:23.402Z</time>
      </trkpt>
      <trkpt lat="47.8162" lon="7.61266">
        <ele>235.46532</ele>
        <time>2022-08-22T21:36:31.579Z</time>
      </trkpt>
      <trkpt lat="47.81645" lon="7.61225">
        <ele>234.325683</ele>
        <time>2022-08-22T21:36:36.967Z</time>
      </trkpt>
      <trkpt lat="47.8185" lon="7.61347">
        <ele>229.731074</ele>
        <time>2022-08-22T21:37:01.453Z</time>
      </trkpt>
      <trkpt lat="47.82066" lon="7.61507">
        <ele>227.570762</ele>
        <time>2022-08-22T21:37:31.605Z</time>
      </trkpt>
      <trkpt lat="47.82137" lon="7.61578">
        <ele>227.17313</ele>
        <time>2022-08-22T21:37:43.125Z</time>
      </trkpt>
      <trkpt lat="47.82282" lon="7.61739">
        <ele>226.605605</ele>
        <time>2022-08-22T21:38:08.697Z</time>
      </trkpt>
      <trkpt lat="47.82383" lon="7.61841">
        <ele>226.195998</ele>
        <time>2022-08-22T21:38:25.154Z</time>
      </trkpt>
      <trkpt lat="47.82533" lon="7.61966">
        <ele>225.555328</ele>
        <time>2022-08-22T21:38:48.360Z</time>
      </trkpt>
      <trkpt lat="47.82632" lon="7.62037">
        <ele>225.200239</ele>
        <time>2022-08-22T21:39:03.610Z</time>
      </trkpt>
      <trkpt lat="47.8264" lon="7.62075">
        <ele>225.166124</ele>
        <time>2022-08-22T21:39:07.201Z</time>
      </trkpt>
      <trkpt lat="47.82647" lon="7.62082">
        <ele>225.163616</ele>
        <time>2022-08-22T21:39:08.523Z</time>
      </trkpt>
      <trkpt lat="47.82659" lon="7.62082">
        <ele>225.160112</ele>
        <time>2022-08-22T21:39:10.000Z</time>
      </trkpt>
      <trkpt lat="47.82677" lon="7.62057">
        <ele>225.152645</ele>
        <time>2022-08-22T21:39:13.517Z</time>
      </trkpt>
      <trkpt lat="47.82834" lon="7.62084">
        <ele>225.355228</ele>
        <time>2022-08-22T21:39:37.302Z</time>
      </trkpt>
      <trkpt lat="47.82947" lon="7.62102">
        <ele>226.023581</ele>
        <time>2022-08-22T21:39:55.654Z</time>
      </trkpt>
      <trkpt lat="47.8303" lon="7.62101">
        <ele>226.432004</ele>
        <time>2022-08-22T21:40:09.264Z</time>
      </trkpt>
      <trkpt lat="47.83051" lon="7.62102">
        <ele>226.527188</ele>
        <time>2022-08-22T21:40:12.632Z</time>
      </trkpt>
      <trkpt lat="47.83134" lon="7.62118">
        <ele>226.907243</ele>
        <time>2022-08-22T21:40:26.063Z</time>
      </trkpt>
      <trkpt lat="47.83252" lon="7.62155">
        <ele>226.519834</ele>
        <time>2022-08-22T21:40:42.658Z</time>
      </trkpt>
      <trkpt lat="47.83255" lon="7.62169">
        <ele>226.477459</ele>
        <time>2022-08-22T21:40:43.925Z</time>
      </trkpt>
      <trkpt lat="47.83264" lon="7.62175">
        <ele>226.432914</ele>
        <time>2022-08-22T21:40:45.188Z</time>
      </trkpt>
      <trkpt lat="47.83273" lon="7.62178">
        <ele>226.387603</ele>
        <time>2022-08-22T21:40:46.453Z</time>
      </trkpt>
      <trkpt lat="47.83288" lon="7.62167">
        <ele>226.316011</ele>
        <time>2022-08-22T21:40:48.554Z</time>
      </trkpt>
      <trkpt lat="47.83301" lon="7.62168">
        <ele>226.254684</ele>
        <time>2022-08-22T21:40:50.268Z</time>
      </trkpt>
      <trkpt lat="47.83508" lon="7.62247">
        <ele>224.640281</ele>
        <time>2022-08-22T21:41:16.445Z</time>
      </trkpt>
      <trkpt lat="47.83653" lon="7.62266">
        <ele>224.838943</ele>
        <time>2022-08-22T21:41:38.626Z</time>
      </trkpt>
      <trkpt lat="47.83756" lon="7.62279">
        <ele>226.299453</ele>
        <time>2022-08-22T21:41:56.491Z</time>
      </trkpt>
      <trkpt lat="47.83819" lon="7.62271">
        <ele>227.365409</ele>
        <time>2022-08-22T21:42:08.176Z</time>
      </trkpt>
      <trkpt lat="47.83855" lon="7.62268">
        <ele>227.957562</ele>
        <time>2022-08-22T21:42:14.927Z</time>
      </trkpt>
      <trkpt lat="47.83905" lon="7.62267">
        <ele>228.541491</ele>
        <time>2022-08-22T21:42:23.901Z</time>
      </trkpt>
      <trkpt lat="47.83956" lon="7.62264">
        <ele>229.136669</ele>
        <time>2022-08-22T21:42:32.471Z</time>
      </trkpt>
      <trkpt lat="47.84016" lon="7.62272">
        <ele>229.848225</ele>
        <time>2022-08-22T21:42:42.178Z</time>
      </trkpt>
      <trkpt lat="47.84041" lon="7.62266">
        <ele>229.977432</ele>
        <time>2022-08-22T21:42:46.181Z</time>
      </trkpt>
      <trkpt lat="47.8411" lon="7.62288">
        <ele>229.727233</ele>
        <time>2022-08-22T21:42:56.377Z</time>
      </trkpt>
      <trkpt lat="47.84204" lon="7.62337">
        <ele>229.369343</ele>
        <time>2022-08-22T21:43:09.099Z</time>
      </trkpt>
      <trkpt lat="47.84271" lon="7.62378">
        <ele>228.729668</ele>
        <time>2022-08-22T21:43:18.258Z</time>
      </trkpt>
      <trkpt lat="47.84421" lon="7.62465">
        <ele>226.949005</ele>
        <time>2022-08-22T21:43:38.139Z</time>
      </trkpt>
      <trkpt lat="47.84506" lon="7.62508">
        <ele>225.584375</ele>
        <time>2022-08-22T21:43:48.298Z</time>
      </trkpt>
      <trkpt lat="47.8458" lon="7.62531">
        <ele>224.359118</ele>
        <time>2022-08-22T21:43:56.566Z</time>
      </trkpt>
      <trkpt lat="47.84736" lon="7.62565">
        <ele>221.792342</ele>
        <time>2022-08-22T21:44:14.252Z</time>
      </trkpt>
      <trkpt lat="47.84749" lon="7.6259">
        <ele>221.561428</ele>
        <time>2022-08-22T21:44:16.917Z</time>
      </trkpt>
      <trkpt lat="47.84756" lon="7.62591">
        <ele>221.494044</ele>
        <time>2022-08-22T21:44:17.661Z</time>
      </trkpt>
      <trkpt lat="47.84763" lon="7.62592">
        <ele>221.41385</ele>
        <time>2022-08-22T21:44:18.559Z</time>
      </trkpt>
      <trkpt lat="47.8477" lon="7.62594">
        <ele>221.336814</ele>
        <time>2022-08-22T21:44:19.464Z</time>
      </trkpt>
      <trkpt lat="47.84782" lon="7.62579">
        <ele>221.173523</ele>
        <time>2022-08-22T21:44:21.324Z</time>
      </trkpt>
      <trkpt lat="47.84789" lon="7.62578">
        <ele>221.093748</ele>
        <time>2022-08-22T21:44:22.207Z</time>
      </trkpt>
      <trkpt lat="47.84871" lon="7.62632">
        <ele>220.144243</ele>
        <time>2022-08-22T21:44:33.210Z</time>
      </trkpt>
      <trkpt lat="47.84962" lon="7.62717">
        <ele>219.634114</ele>
        <time>2022-08-22T21:44:47.488Z</time>
      </trkpt>
      <trkpt lat="47.85067" lon="7.6285">
        <ele>219.380576</ele>
        <time>2022-08-22T21:45:06.549Z</time>
      </trkpt>
      <trkpt lat="47.85203" lon="7.63037">
        <ele>220.051097</ele>
        <time>2022-08-22T21:45:36.117Z</time>
      </trkpt>
      <trkpt lat="47.85304" lon="7.63182">
        <ele>221.091385</ele>
        <time>2022-08-22T21:45:59.042Z</time>
      </trkpt>
      <trkpt lat="47.8532" lon="7.63202">
        <ele>221.227077</ele>
        <time>2022-08-22T21:46:02.660Z</time>
      </trkpt>
      <trkpt lat="47.85337" lon="7.63237">
        <ele>221.416349</ele>
        <time>2022-08-22T21:46:07.637Z</time>
      </trkpt>
      <trkpt lat="47.85353" lon="7.63254">
        <ele>221.547051</ele>
        <time>2022-08-22T21:46:10.973Z</time>
      </trkpt>
      <trkpt lat="47.85374" lon="7.63288">
        <ele>221.74807</ele>
        <time>2022-08-22T21:46:17.231Z</time>
      </trkpt>
      <trkpt lat="47.854" lon="7.63337">
        <ele>222.018265</ele>
        <time>2022-08-22T21:46:25.448Z</time>
      </trkpt>
      <trkpt lat="47.85408" lon="7.6335">
        <ele>222.097828</ele>
        <time>2022-08-22T21:46:27.107Z</time>
      </trkpt>
      <trkpt lat="47.85415" lon="7.63361">
        <ele>222.038841</ele>
        <time>2022-08-22T21:46:28.562Z</time>
      </trkpt>
      <trkpt lat="47.85426" lon="7.63376">
        <ele>221.923041</ele>
        <time>2022-08-22T21:46:30.568Z</time>
      </trkpt>
      <trkpt lat="47.85456" lon="7.63422">
        <ele>221.570032</ele>
        <time>2022-08-22T21:46:36.070Z</time>
      </trkpt>
      <trkpt lat="47.85474" lon="7.63483">
        <ele>221.206357</ele>
        <time>2022-08-22T21:46:41.726Z</time>
      </trkpt>
      <trkpt lat="47.85531" lon="7.63597">
        <ele>220.398541</ele>
        <time>2022-08-22T21:46:53.070Z</time>
      </trkpt>
      <trkpt lat="47.85592" lon="7.63692">
        <ele>219.594012</ele>
        <time>2022-08-22T21:47:03.538Z</time>
      </trkpt>
      <trkpt lat="47.85614" lon="7.6372">
        <ele>219.326291</ele>
        <time>2022-08-22T21:47:07.168Z</time>
      </trkpt>
      <trkpt lat="47.85644" lon="7.63751">
        <ele>218.996725</ele>
        <time>2022-08-22T21:47:12.025Z</time>
      </trkpt>
      <trkpt lat="47.85706" lon="7.63799">
        <ele>219.024717</ele>
        <time>2022-08-22T21:47:22.354Z</time>
      </trkpt>
      <trkpt lat="47.85759" lon="7.6384">
        <ele>219.048516</ele>
        <time>2022-08-22T21:47:31.535Z</time>
      </trkpt>
      <trkpt lat="47.85783" lon="7.63871">
        <ele>219.061339</ele>
        <time>2022-08-22T21:47:36.653Z</time>
      </trkpt>
      <trkpt lat="47.858" lon="7.63869">
        <ele>219.068158</ele>
        <time>2022-08-22T21:47:39.321Z</time>
      </trkpt>
      <trkpt lat="47.85846" lon="7.63899">
        <ele>219.030931</ele>
        <time>2022-08-22T21:47:47.311Z</time>
      </trkpt>
      <trkpt lat="47.85902" lon="7.6394">
        <ele>218.982474</ele>
        <time>2022-08-22T21:47:57.363Z</time>
      </trkpt>
      <trkpt lat="47.85915" lon="7.63948">
        <ele>218.972066</ele>
        <time>2022-08-22T21:47:59.428Z</time>
      </trkpt>
      <trkpt lat="47.86045" lon="7.64052">
        <ele>218.053155</ele>
        <time>2022-08-22T21:48:17.760Z</time>
      </trkpt>
      <trkpt lat="47.86062" lon="7.64076">
        <ele>217.839768</ele>
        <time>2022-08-22T21:48:20.393Z</time>
      </trkpt>
      <trkpt lat="47.86082" lon="7.64093">
        <ele>217.617933</ele>
        <time>2022-08-22T21:48:23.293Z</time>
      </trkpt>
      <trkpt lat="47.86122" lon="7.6413">
        <ele>217.217582</ele>
        <time>2022-08-22T21:48:29.001Z</time>
      </trkpt>
      <trkpt lat="47.86279" lon="7.64282">
        <ele>216.672715</ele>
        <time>2022-08-22T21:48:54.775Z</time>
      </trkpt>
      <trkpt lat="47.86461" lon="7.64477">
        <ele>217.315171</ele>
        <time>2022-08-22T21:49:30.691Z</time>
      </trkpt>
      <trkpt lat="47.86521" lon="7.64535">
        <ele>217.586215</ele>
        <time>2022-08-22T21:49:42.126Z</time>
      </trkpt>
      <trkpt lat="47.86581" lon="7.64591">
        <ele>217.820189</ele>
        <time>2022-08-22T21:49:53.515Z</time>
      </trkpt>
      <trkpt lat="47.86917" lon="7.64861">
        <ele>218.883255</ele>
        <time>2022-08-22T21:50:52.282Z</time>
      </trkpt>
      <trkpt lat="47.87193" lon="7.65079">
        <ele>222.412212</ele>
        <time>2022-08-22T21:51:45.078Z</time>
      </trkpt>
      <trkpt lat="47.87261" lon="7.65138">
        <ele>224.394119</ele>
        <time>2022-08-22T21:51:59.433Z</time>
      </trkpt>
      <trkpt lat="47.8734" lon="7.65224">
        <ele>226.94087</ele>
        <time>2022-08-22T21:52:18.852Z</time>
      </trkpt>
      <trkpt lat="47.87348" lon="7.65224">
        <ele>227.124871</ele>
        <time>2022-08-22T21:52:20.299Z</time>
      </trkpt>
      <trkpt lat="47.87351" lon="7.65215">
        <ele>227.305778</ele>
        <time>2022-08-22T21:52:21.799Z</time>
      </trkpt>
      <trkpt lat="47.87405" lon="7.65276">
        <ele>229.152534</ele>
        <time>2022-08-22T21:52:35.352Z</time>
      </trkpt>
      <trkpt lat="47.8742" lon="7.65296">
        <ele>229.705346</ele>
        <time>2022-08-22T21:52:39.297Z</time>
      </trkpt>
      <trkpt lat="47.87435" lon="7.65315">
        <ele>230.253706</ele>
        <time>2022-08-22T21:52:43.095Z</time>
      </trkpt>
      <trkpt lat="47.87453" lon="7.6534">
        <ele>230.902101</ele>
        <time>2022-08-22T21:52:47.619Z</time>
      </trkpt>
      <trkpt lat="47.87474" lon="7.65371">
        <ele>231.713911</ele>
        <time>2022-08-22T21:52:53.101Z</time>
      </trkpt>
      <trkpt lat="47.87477" lon="7.65375">
        <ele>231.830446</ele>
        <time>2022-08-22T21:52:53.923Z</time>
      </trkpt>
      <trkpt lat="47.87495" lon="7.654">
        <ele>232.233868</ele>
        <time>2022-08-22T21:52:58.361Z</time>
      </trkpt>
      <trkpt lat="47.8752" lon="7.65443">
        <ele>232.699042</ele>
        <time>2022-08-22T21:53:05.255Z</time>
      </trkpt>
      <trkpt lat="47.87527" lon="7.65454">
        <ele>232.819938</ele>
        <time>2022-08-22T21:53:07.024Z</time>
      </trkpt>
      <trkpt lat="47.87527" lon="7.6547">
        <ele>232.949642</ele>
        <time>2022-08-22T21:53:08.885Z</time>
      </trkpt>
      <trkpt lat="47.87539" lon="7.65483">
        <ele>233.126905</ele>
        <time>2022-08-22T21:53:11.262Z</time>
      </trkpt>
      <trkpt lat="47.87536" lon="7.6549">
        <ele>233.191141</ele>
        <time>2022-08-22T21:53:12.161Z</time>
      </trkpt>
      <trkpt lat="47.87518" lon="7.65529">
        <ele>233.581252</ele>
        <time>2022-08-22T21:53:17.372Z</time>
      </trkpt>
      <trkpt lat="47.87511" lon="7.65544">
        <ele>233.723931</ele>
        <time>2022-08-22T21:53:19.266Z</time>
      </trkpt>
      <trkpt lat="47.87494" lon="7.65578">
        <ele>234.068684</ele>
        <time>2022-08-22T21:53:23.865Z</time>
      </trkpt>
      <trkpt lat="47.8747" lon="7.65633">
        <ele>234.481725</ele>
        <time>2022-08-22T21:53:30.888Z</time>
      </trkpt>
      <trkpt lat="47.87462" lon="7.6565">
        <ele>234.600214</ele>
        <time>2022-08-22T21:53:33.087Z</time>
      </trkpt>
      <trkpt lat="47.87405" lon="7.65769">
        <ele>235.44607</ele>
        <time>2022-08-22T21:53:49.309Z</time>
      </trkpt>
      <trkpt lat="47.87382" lon="7.65813">
        <ele>235.77466</ele>
        <time>2022-08-22T21:53:55.475Z</time>
      </trkpt>
      <trkpt lat="47.87364" lon="7.65847">
        <ele>236.166489</ele>
        <time>2022-08-22T21:54:00.347Z</time>
      </trkpt>
      <trkpt lat="47.87363" lon="7.65849">
        <ele>236.187057</ele>
        <time>2022-08-22T21:54:00.606Z</time>
      </trkpt>
      <trkpt lat="47.87352" lon="7.6587">
        <ele>236.42071</ele>
        <time>2022-08-22T21:54:03.513Z</time>
      </trkpt>
      <trkpt lat="47.87325" lon="7.65903">
        <ele>236.886382</ele>
        <time>2022-08-22T21:54:09.365Z</time>
      </trkpt>
      <trkpt lat="47.87301" lon="7.65913">
        <ele>237.205531</ele>
        <time>2022-08-22T21:54:13.521Z</time>
      </trkpt>
      <trkpt lat="47.87264" lon="7.6592">
        <ele>237.707045</ele>
        <time>2022-08-22T21:54:20.156Z</time>
      </trkpt>
      <trkpt lat="47.8725" lon="7.65929">
        <ele>237.910563</ele>
        <time>2022-08-22T21:54:22.864Z</time>
      </trkpt>
      <trkpt lat="47.87229" lon="7.65952">
        <ele>238.346825</ele>
        <time>2022-08-22T21:54:27.483Z</time>
      </trkpt>
      <trkpt lat="47.87216" lon="7.65963">
        <ele>238.679257</ele>
        <time>2022-08-22T21:54:30.192Z</time>
      </trkpt>
      <trkpt lat="47.8721" lon="7.65954">
        <ele>238.873519</ele>
        <time>2022-08-22T21:54:31.762Z</time>
      </trkpt>
      <trkpt lat="47.87205" lon="7.65956">
        <ele>238.983925</ele>
        <time>2022-08-22T21:54:32.687Z</time>
      </trkpt>
      <trkpt lat="47.87203" lon="7.65966">
        <ele>239.145095</ele>
        <time>2022-08-22T21:54:34.001Z</time>
      </trkpt>
      <trkpt lat="47.87207" lon="7.65972">
        <ele>239.272345</ele>
        <time>2022-08-22T21:54:35.028Z</time>
      </trkpt>
      <trkpt lat="47.87204" lon="7.65986">
        <ele>239.482475</ele>
        <time>2022-08-22T21:54:38.175Z</time>
      </trkpt>
      <trkpt lat="47.87202" lon="7.66013">
        <ele>239.892561</ele>
        <time>2022-08-22T21:54:44.350Z</time>
      </trkpt>
      <trkpt lat="47.87201" lon="7.66024">
        <ele>240.067385</ele>
        <time>2022-08-22T21:54:46.957Z</time>
      </trkpt>
      <trkpt lat="47.87198" lon="7.6605">
        <ele>240.453125</ele>
        <time>2022-08-22T21:54:50.136Z</time>
      </trkpt>
      <trkpt lat="47.8719" lon="7.66105">
        <ele>241.298103</ele>
        <time>2022-08-22T21:54:57.157Z</time>
      </trkpt>
      <trkpt lat="47.87189" lon="7.66119">
        <ele>241.510152</ele>
        <time>2022-08-22T21:54:58.958Z</time>
      </trkpt>
      <trkpt lat="47.87188" lon="7.66159">
        <ele>242.113761</ele>
        <time>2022-08-22T21:55:04.023Z</time>
      </trkpt>
      <trkpt lat="47.87189" lon="7.66198">
        <ele>242.922097</ele>
        <time>2022-08-22T21:55:09.024Z</time>
      </trkpt>
      <trkpt lat="47.87188" lon="7.66234">
        <ele>243.686294</ele>
        <time>2022-08-22T21:55:13.847Z</time>
      </trkpt>
      <trkpt lat="47.87182" lon="7.66348">
        <ele>246.105172</ele>
        <time>2022-08-22T21:55:29.122Z</time>
      </trkpt>
      <trkpt lat="47.87183" lon="7.66364">
        <ele>246.452276</ele>
        <time>2022-08-22T21:55:31.328Z</time>
      </trkpt>
      <trkpt lat="47.87189" lon="7.66446">
        <ele>248.096729</ele>
        <time>2022-08-22T21:55:42.567Z</time>
      </trkpt>
      <trkpt lat="47.87198" lon="7.66478">
        <ele>248.694158</ele>
        <time>2022-08-22T21:55:47.225Z</time>
      </trkpt>
      <trkpt lat="47.87189" lon="7.66491">
        <ele>249.003596</ele>
        <time>2022-08-22T21:55:49.636Z</time>
      </trkpt>
      <trkpt lat="47.87177" lon="7.66527">
        <ele>249.671502</ele>
        <time>2022-08-22T21:55:54.719Z</time>
      </trkpt>
      <trkpt lat="47.87149" lon="7.66602">
        <ele>251.095978</ele>
        <time>2022-08-22T21:56:05.439Z</time>
      </trkpt>
      <trkpt lat="47.87141" lon="7.66634">
        <ele>251.666313</ele>
        <time>2022-08-22T21:56:09.695Z</time>
      </trkpt>
      <trkpt lat="47.8714" lon="7.66636">
        <ele>251.712964</ele>
        <time>2022-08-22T21:56:10.028Z</time>
      </trkpt>
      <trkpt lat="47.8713" lon="7.6668">
        <ele>252.412184</ele>
        <time>2022-08-22T21:56:15.648Z</time>
      </trkpt>
      <trkpt lat="47.87102" lon="7.66795">
        <ele>253.774828</ele>
        <time>2022-08-22T21:56:29.745Z</time>
      </trkpt>
      <trkpt lat="47.87098" lon="7.6681">
        <ele>253.964169</ele>
        <time>2022-08-22T21:56:31.680Z</time>
      </trkpt>
      <trkpt lat="47.87094" lon="7.66821">
        <ele>254.094947</ele>
        <time>2022-08-22T21:56:32.990Z</time>
      </trkpt>
      <trkpt lat="47.8709" lon="7.66835">
        <ele>254.267264</ele>
        <time>2022-08-22T21:56:34.742Z</time>
      </trkpt>
      <trkpt lat="47.87084" lon="7.66852">
        <ele>254.485261</ele>
        <time>2022-08-22T21:56:36.932Z</time>
      </trkpt>
      <trkpt lat="47.87072" lon="7.66893">
        <ele>254.986208</ele>
        <time>2022-08-22T21:56:42.087Z</time>
      </trkpt>
      <trkpt lat="47.87043" lon="7.66975">
        <ele>256.503003</ele>
        <time>2022-08-22T21:56:53.926Z</time>
      </trkpt>
      <trkpt lat="47.87037" lon="7.66992">
        <ele>256.846866</ele>
        <time>2022-08-22T21:56:56.454Z</time>
      </trkpt>
      <trkpt lat="47.8703" lon="7.6701">
        <ele>257.218991</ele>
        <time>2022-08-22T21:56:59.241Z</time>
      </trkpt>
      <trkpt lat="47.87024" lon="7.6703">
        <ele>257.620166</ele>
        <time>2022-08-22T21:57:02.066Z</time>
      </trkpt>
      <trkpt lat="47.87007" lon="7.67079">
        <ele>258.629318</ele>
        <time>2022-08-22T21:57:09.316Z</time>
      </trkpt>
      <trkpt lat="47.8701" lon="7.67082">
        <ele>258.743707</ele>
        <time>2022-08-22T21:57:10.160Z</time>
      </trkpt>
      <trkpt lat="47.87024" lon="7.67094">
        <ele>259.174337</ele>
        <time>2022-08-22T21:57:13.300Z</time>
      </trkpt>
      <trkpt lat="47.87091" lon="7.67148">
        <ele>260.730796</ele>
        <time>2022-08-22T21:57:27.880Z</time>
      </trkpt>
      <trkpt lat="47.87102" lon="7.67159">
        <ele>260.919698</ele>
        <time>2022-08-22T21:57:30.223Z</time>
      </trkpt>
      <trkpt lat="47.87139" lon="7.67199">
        <ele>261.581803</ele>
        <time>2022-08-22T21:57:38.451Z</time>
      </trkpt>
      <trkpt lat="47.87155" lon="7.67216">
        <ele>261.864751</ele>
        <time>2022-08-22T21:57:41.801Z</time>
      </trkpt>
      <trkpt lat="47.87189" lon="7.67259">
        <ele>262.511325</ele>
        <time>2022-08-22T21:57:48.973Z</time>
      </trkpt>
      <trkpt lat="47.87186" lon="7.67269">
        <ele>262.622103</ele>
        <time>2022-08-22T21:57:50.185Z</time>
      </trkpt>
      <trkpt lat="47.87223" lon="7.67326">
        <ele>262.777545</ele>
        <time>2022-08-22T21:57:57.755Z</time>
      </trkpt>
      <trkpt lat="47.87232" lon="7.67341">
        <ele>262.787125</ele>
        <time>2022-08-22T21:57:59.588Z</time>
      </trkpt>
      <trkpt lat="47.87235" lon="7.67347">
        <ele>262.790463</ele>
        <time>2022-08-22T21:58:00.249Z</time>
      </trkpt>
      <trkpt lat="47.87262" lon="7.67403">
        <ele>262.82327</ele>
        <time>2022-08-22T21:58:06.738Z</time>
      </trkpt>
      <trkpt lat="47.87282" lon="7.67488">
        <ele>262.865884</ele>
        <time>2022-08-22T21:58:15.694Z</time>
      </trkpt>
      <trkpt lat="47.87283" lon="7.67556">
        <ele>263.599922</ele>
        <time>2022-08-22T21:58:24.964Z</time>
      </trkpt>
      <trkpt lat="47.87276" lon="7.67596">
        <ele>264.161016</ele>
        <time>2022-08-22T21:58:30.800Z</time>
      </trkpt>
      <trkpt lat="47.87235" lon="7.67717">
        <ele>266.031302</ele>
        <time>2022-08-22T21:58:51.316Z</time>
      </trkpt>
      <trkpt lat="47.87211" lon="7.67815">
        <ele>267.560623</ele>
        <time>2022-08-22T21:59:07.760Z</time>
      </trkpt>
      <trkpt lat="47.87207" lon="7.67866">
        <ele>268.328812</ele>
        <time>2022-08-22T21:59:15.816Z</time>
      </trkpt>
      <trkpt lat="47.8721" lon="7.67931">
        <ele>269.317716</ele>
        <time>2022-08-22T21:59:25.899Z</time>
      </trkpt>
      <trkpt lat="47.87254" lon="7.68085">
        <ele>269.068776</ele>
        <time>2022-08-22T21:59:43.948Z</time>
      </trkpt>
      <trkpt lat="47.87352" lon="7.68337">
        <ele>262.701561</ele>
        <time>2022-08-22T22:00:02.608Z</time>
      </trkpt>
      <trkpt lat="47.87371" lon="7.68404">
        <ele>260.713966</ele>
        <time>2022-08-22T22:00:07.227Z</time>
      </trkpt>
      <trkpt lat="47.87391" lon="7.6851">
        <ele>258.128467</ele>
        <time>2022-08-22T22:00:14.678Z</time>
      </trkpt>
      <trkpt lat="47.87381" lon="7.68576">
        <ele>257.764056</ele>
        <time>2022-08-22T22:00:19.671Z</time>
      </trkpt>
      <trkpt lat="47.87386" lon="7.68585">
        <ele>257.701106</ele>
        <time>2022-08-22T22:00:20.586Z</time>
      </trkpt>
      <trkpt lat="47.874" lon="7.68598">
        <ele>257.567907</ele>
        <time>2022-08-22T22:00:23.453Z</time>
      </trkpt>
      <trkpt lat="47.87407" lon="7.68613">
        <ele>257.466957</ele>
        <time>2022-08-22T22:00:25.952Z</time>
      </trkpt>
      <trkpt lat="47.87414" lon="7.68645">
        <ele>257.290987</ele>
        <time>2022-08-22T22:00:30.296Z</time>
      </trkpt>
      <trkpt lat="47.87425" lon="7.68882">
        <ele>257.546393</ele>
        <time>2022-08-22T22:01:02.767Z</time>
      </trkpt>
      <trkpt lat="47.87422" lon="7.68994">
        <ele>258.13072</ele>
        <time>2022-08-22T22:01:18.480Z</time>
      </trkpt>
      <trkpt lat="47.87428" lon="7.68998">
        <ele>258.182542</ele>
        <time>2022-08-22T22:01:19.860Z</time>
      </trkpt>
      <trkpt lat="47.8741" lon="7.69545">
        <ele>261.502295</ele>
        <time>2022-08-22T22:02:20.058Z</time>
      </trkpt>
      <trkpt lat="47.87409" lon="7.69597">
        <ele>261.697681</ele>
        <time>2022-08-22T22:02:25.647Z</time>
      </trkpt>
      <trkpt lat="47.8741" lon="7.69686">
        <ele>262.031338</ele>
        <time>2022-08-22T22:02:35.179Z</time>
      </trkpt>
      <trkpt lat="47.87416" lon="7.69777">
        <ele>262.374168</ele>
        <time>2022-08-22T22:02:44.979Z</time>
      </trkpt>
      <trkpt lat="47.87418" lon="7.69794">
        <ele>262.440149</ele>
        <time>2022-08-22T22:02:46.867Z</time>
      </trkpt>
      <trkpt lat="47.87419" lon="7.69802">
        <ele>262.472285</ele>
        <time>2022-08-22T22:02:47.738Z</time>
      </trkpt>
      <trkpt lat="47.87448" lon="7.69982">
        <ele>263.643424</ele>
        <time>2022-08-22T22:03:07.580Z</time>
      </trkpt>
      <trkpt lat="47.87485" lon="7.70112">
        <ele>264.794649</ele>
        <time>2022-08-22T22:03:24.078Z</time>
      </trkpt>
      <trkpt lat="47.87519" lon="7.70198">
        <ele>265.856622</ele>
        <time>2022-08-22T22:03:35.917Z</time>
      </trkpt>
      <trkpt lat="47.87514" lon="7.70218">
        <ele>266.088067</ele>
        <time>2022-08-22T22:03:39.067Z</time>
      </trkpt>
      <trkpt lat="47.8744" lon="7.70541">
        <ele>269.782237</ele>
        <time>2022-08-22T22:04:28.388Z</time>
      </trkpt>
      <trkpt lat="47.87286" lon="7.71224">
        <ele>278.175101</ele>
        <time>2022-08-22T22:06:14.010Z</time>
      </trkpt>
      <trkpt lat="47.87421" lon="7.71361">
        <ele>279.44614</ele>
        <time>2022-08-22T22:06:46.702Z</time>
      </trkpt>
      <trkpt lat="47.87426" lon="7.71366">
        <ele>279.470371</ele>
        <time>2022-08-22T22:06:47.891Z</time>
      </trkpt>
      <trkpt lat="47.87428" lon="7.71369">
        <ele>279.482551</ele>
        <time>2022-08-22T22:06:48.480Z</time>
      </trkpt>
      <trkpt lat="47.874" lon="7.71462">
        <ele>279.753395</ele>
        <time>2022-08-22T22:07:02.085Z</time>
      </trkpt>
      <trkpt lat="47.87376" lon="7.71515">
        <ele>280.002355</ele>
        <time>2022-08-22T22:07:10.813Z</time>
      </trkpt>
      <trkpt lat="47.87339" lon="7.71588">
        <ele>280.369064</ele>
        <time>2022-08-22T22:07:23.303Z</time>
      </trkpt>
      <trkpt lat="47.8733" lon="7.71604">
        <ele>280.452323</ele>
        <time>2022-08-22T22:07:26.188Z</time>
      </trkpt>
      <trkpt lat="47.87325" lon="7.71612">
        <ele>280.494335</ele>
        <time>2022-08-22T22:07:27.619Z</time>
      </trkpt>
      <trkpt lat="47.87336" lon="7.71627">
        <ele>280.584399</ele>
        <time>2022-08-22T22:07:30.013Z</time>
      </trkpt>
      <trkpt lat="47.87339" lon="7.7164">
        <ele>280.638403</ele>
        <time>2022-08-22T22:07:31.493Z</time>
      </trkpt>
      <trkpt lat="47.87403" lon="7.71708">
        <ele>281.162354</ele>
        <time>2022-08-22T22:07:44.029Z</time>
      </trkpt>
      <trkpt lat="47.87426" lon="7.71737">
        <ele>281.38313</ele>
        <time>2022-08-22T22:07:48.882Z</time>
      </trkpt>
      <trkpt lat="47.87485" lon="7.71837">
        <ele>282.035323</ele>
        <time>2022-08-22T22:08:03.240Z</time>
      </trkpt>
      <trkpt lat="47.8754" lon="7.71958">
        <ele>283.129021</ele>
        <time>2022-08-22T22:08:19.503Z</time>
      </trkpt>
      <trkpt lat="47.87544" lon="7.7197">
        <ele>283.229369</ele>
        <time>2022-08-22T22:08:20.915Z</time>
      </trkpt>
      <trkpt lat="47.87541" lon="7.71995">
        <ele>283.434308</ele>
        <time>2022-08-22T22:08:23.801Z</time>
      </trkpt>
      <trkpt lat="47.87547" lon="7.72013">
        <ele>283.601225</ele>
        <time>2022-08-22T22:08:26.186Z</time>
      </trkpt>
      <trkpt lat="47.87545" lon="7.72017">
        <ele>283.634669</ele>
        <time>2022-08-22T22:08:26.651Z</time>
      </trkpt>
      <trkpt lat="47.87506" lon="7.72164">
        <ele>285.139888</ele>
        <time>2022-08-22T22:08:45.055Z</time>
      </trkpt>
      <trkpt lat="47.87482" lon="7.72295">
        <ele>286.653585</ele>
        <time>2022-08-22T22:09:01.154Z</time>
      </trkpt>
      <trkpt lat="47.87448" lon="7.72475">
        <ele>289.008431</ele>
        <time>2022-08-22T22:09:23.948Z</time>
      </trkpt>
      <trkpt lat="47.87445" lon="7.72493">
        <ele>289.258265</ele>
        <time>2022-08-22T22:09:26.282Z</time>
      </trkpt>
      <trkpt lat="47.87437" lon="7.72521">
        <ele>289.651865</ele>
        <time>2022-08-22T22:09:29.891Z</time>
      </trkpt>
      <trkpt lat="47.87389" lon="7.72641">
        <ele>291.417293</ele>
        <time>2022-08-22T22:09:46.759Z</time>
      </trkpt>
      <trkpt lat="47.87373" lon="7.72686">
        <ele>292.017174</ele>
        <time>2022-08-22T22:09:53.010Z</time>
      </trkpt>
      <trkpt lat="47.87341" lon="7.72757">
        <ele>293.01863</ele>
        <time>2022-08-22T22:10:03.327Z</time>
      </trkpt>
      <trkpt lat="47.87263" lon="7.72961">
        <ele>295.567121</ele>
        <time>2022-08-22T22:10:30.876Z</time>
      </trkpt>
      <trkpt lat="47.87132" lon="7.73343">
        <ele>299.849458</ele>
        <time>2022-08-22T22:11:21.132Z</time>
      </trkpt>
      <trkpt lat="47.87149" lon="7.73359">
        <ele>300.081197</ele>
        <time>2022-08-22T22:11:24.360Z</time>
      </trkpt>
      <trkpt lat="47.87203" lon="7.73412">
        <ele>300.849963</ele>
        <time>2022-08-22T22:11:35.218Z</time>
      </trkpt>
      <trkpt lat="47.87213" lon="7.73422">
        <ele>300.98843</ele>
        <time>2022-08-22T22:11:37.177Z</time>
      </trkpt>
      <trkpt lat="47.87215" lon="7.7344">
        <ele>301.133252</ele>
        <time>2022-08-22T22:11:39.218Z</time>
      </trkpt>
      <trkpt lat="47.87219" lon="7.73458">
        <ele>301.285817</ele>
        <time>2022-08-22T22:11:41.377Z</time>
      </trkpt>
      <trkpt lat="47.87199" lon="7.7347">
        <ele>301.549733</ele>
        <time>2022-08-22T22:11:45.106Z</time>
      </trkpt>
      <trkpt lat="47.87164" lon="7.735">
        <ele>302.173517</ele>
        <time>2022-08-22T22:11:51.761Z</time>
      </trkpt>
      <trkpt lat="47.87135" lon="7.73542">
        <ele>302.843551</ele>
        <time>2022-08-22T22:11:58.687Z</time>
      </trkpt>
      <trkpt lat="47.87097" lon="7.73606">
        <ele>303.789735</ele>
        <time>2022-08-22T22:12:08.830Z</time>
      </trkpt>
      <trkpt lat="47.87061" lon="7.73666">
        <ele>304.711826</ele>
        <time>2022-08-22T22:12:18.866Z</time>
      </trkpt>
      <trkpt lat="47.87023" lon="7.73753">
        <ele>306.295522</ele>
        <time>2022-08-22T22:12:31.835Z</time>
      </trkpt>
      <trkpt lat="47.86943" lon="7.73934">
        <ele>309.539077</ele>
        <time>2022-08-22T22:12:58.842Z</time>
      </trkpt>
      <trkpt lat="47.86911" lon="7.74">
        <ele>310.675294</ele>
        <time>2022-08-22T22:13:08.972Z</time>
      </trkpt>
      <trkpt lat="47.86891" lon="7.74041">
        <ele>311.393016</ele>
        <time>2022-08-22T22:13:15.295Z</time>
      </trkpt>
      <trkpt lat="47.86847" lon="7.74134">
        <ele>312.79452</ele>
        <time>2022-08-22T22:13:29.049Z</time>
      </trkpt>
      <trkpt lat="47.86801" lon="7.74279">
        <ele>314.185156</ele>
        <time>2022-08-22T22:13:47.439Z</time>
      </trkpt>
      <trkpt lat="47.86763" lon="7.74374">
        <ele>315.109875</ele>
        <time>2022-08-22T22:13:59.413Z</time>
      </trkpt>
      <trkpt lat="47.86706" lon="7.74585">
        <ele>316.867193</ele>
        <time>2022-08-22T22:14:25.112Z</time>
      </trkpt>
      <trkpt lat="47.86671" lon="7.74705">
        <ele>318.281479</ele>
        <time>2022-08-22T22:14:40.483Z</time>
      </trkpt>
      <trkpt lat="47.86646" lon="7.74772">
        <ele>319.112302</ele>
        <time>2022-08-22T22:14:49.648Z</time>
      </trkpt>
      <trkpt lat="47.86591" lon="7.74837">
        <ele>320.60134</ele>
        <time>2022-08-22T22:15:02.342Z</time>
      </trkpt>
      <trkpt lat="47.86537" lon="7.749">
        <ele>322.498567</ele>
        <time>2022-08-22T22:15:14.572Z</time>
      </trkpt>
      <trkpt lat="47.86471" lon="7.75006">
        <ele>325.854051</ele>
        <time>2022-08-22T22:15:33.904Z</time>
      </trkpt>
      <trkpt lat="47.864" lon="7.75074">
        <ele>331.726269</ele>
        <time>2022-08-22T22:15:55.076Z</time>
      </trkpt>
      <trkpt lat="47.86375" lon="7.75114">
        <ele>334.238756</ele>
        <time>2022-08-22T22:16:05.218Z</time>
      </trkpt>
      <trkpt lat="47.86371" lon="7.75121">
        <ele>334.668984</ele>
        <time>2022-08-22T22:16:07.030Z</time>
      </trkpt>
      <trkpt lat="47.86353" lon="7.75151">
        <ele>336.528797</ele>
        <time>2022-08-22T22:16:15.012Z</time>
      </trkpt>
      <trkpt lat="47.86287" lon="7.75301">
        <ele>346.393726</ele>
        <time>2022-08-22T22:16:52.007Z</time>
      </trkpt>
      <trkpt lat="47.86217" lon="7.75423">
        <ele>353.466177</ele>
        <time>2022-08-22T22:17:20.373Z</time>
      </trkpt>
      <trkpt lat="47.86138" lon="7.75543">
        <ele>357.35372</ele>
        <time>2022-08-22T22:17:41.893Z</time>
      </trkpt>
      <trkpt lat="47.86058" lon="7.75692">
        <ele>360.142245</ele>
        <time>2022-08-22T22:18:02.921Z</time>
      </trkpt>
      <trkpt lat="47.86005" lon="7.75816">
        <ele>362.23475</ele>
        <time>2022-08-22T22:18:21.235Z</time>
      </trkpt>
      <trkpt lat="47.85937" lon="7.75919">
        <ele>365.568838</ele>
        <time>2022-08-22T22:18:42.217Z</time>
      </trkpt>
      <trkpt lat="47.85879" lon="7.76041">
        <ele>367.167902</ele>
        <time>2022-08-22T22:19:02.483Z</time>
      </trkpt>
      <trkpt lat="47.85824" lon="7.76179">
        <ele>365.27383</ele>
        <time>2022-08-22T22:19:14.295Z</time>
      </trkpt>
      <trkpt lat="47.85809" lon="7.76235">
        <ele>364.410117</ele>
        <time>2022-08-22T22:19:17.999Z</time>
      </trkpt>
      <trkpt lat="47.85803" lon="7.7628">
        <ele>362.564157</ele>
        <time>2022-08-22T22:19:20.768Z</time>
      </trkpt>
      <trkpt lat="47.85803" lon="7.7629">
        <ele>362.157133</ele>
        <time>2022-08-22T22:19:21.380Z</time>
      </trkpt>
      <trkpt lat="47.85805" lon="7.76321">
        <ele>360.87758</ele>
        <time>2022-08-22T22:19:23.289Z</time>
      </trkpt>
      <trkpt lat="47.85807" lon="7.76351">
        <ele>359.676472</ele>
        <time>2022-08-22T22:19:25.117Z</time>
      </trkpt>
      <trkpt lat="47.85807" lon="7.76374">
        <ele>358.768562</ele>
        <time>2022-08-22T22:19:26.474Z</time>
      </trkpt>
      <trkpt lat="47.85805" lon="7.76415">
        <ele>357.111661</ele>
        <time>2022-08-22T22:19:28.984Z</time>
      </trkpt>
      <trkpt lat="47.85801" lon="7.76448">
        <ele>355.741694</ele>
        <time>2022-08-22T22:19:31.069Z</time>
      </trkpt>
      <trkpt lat="47.85795" lon="7.7648">
        <ele>354.395089</ele>
        <time>2022-08-22T22:19:33.092Z</time>
      </trkpt>
      <trkpt lat="47.85787" lon="7.76514">
        <ele>353.633579</ele>
        <time>2022-08-22T22:19:35.324Z</time>
      </trkpt>
      <trkpt lat="47.85781" lon="7.76541">
        <ele>353.378463</ele>
        <time>2022-08-22T22:19:37.136Z</time>
      </trkpt>
      <trkpt lat="47.85772" lon="7.76586">
        <ele>352.952661</ele>
        <time>2022-08-22T22:19:40.472Z</time>
      </trkpt>
      <trkpt lat="47.85755" lon="7.76688">
        <ele>352.007862</ele>
        <time>2022-08-22T22:19:51.130Z</time>
      </trkpt>
      <trkpt lat="47.85746" lon="7.76742">
        <ele>351.507731</ele>
        <time>2022-08-22T22:19:57.310Z</time>
      </trkpt>
      <trkpt lat="47.85732" lon="7.7681">
        <ele>352.228176</ele>
        <time>2022-08-22T22:20:05.188Z</time>
      </trkpt>
      <trkpt lat="47.85681" lon="7.76933">
        <ele>354.160988</ele>
        <time>2022-08-22T22:20:22.823Z</time>
      </trkpt>
      <trkpt lat="47.8567" lon="7.7696">
        <ele>354.576319</ele>
        <time>2022-08-22T22:20:27.004Z</time>
      </trkpt>
      <trkpt lat="47.85634" lon="7.77062">
        <ele>356.570655</ele>
        <time>2022-08-22T22:20:42.258Z</time>
      </trkpt>
      <trkpt lat="47.8563" lon="7.77071">
        <ele>356.768822</ele>
        <time>2022-08-22T22:20:43.624Z</time>
      </trkpt>
      <trkpt lat="47.85606" lon="7.77141">
        <ele>358.24802</ele>
        <time>2022-08-22T22:20:53.726Z</time>
      </trkpt>
      <trkpt lat="47.85594" lon="7.77185">
        <ele>359.131276</ele>
        <time>2022-08-22T22:20:59.785Z</time>
      </trkpt>
      <trkpt lat="47.85587" lon="7.77217">
        <ele>359.768127</ele>
        <time>2022-08-22T22:21:04.108Z</time>
      </trkpt>
      <trkpt lat="47.85581" lon="7.77249">
        <ele>360.387947</ele>
        <time>2022-08-22T22:21:08.336Z</time>
      </trkpt>
      <trkpt lat="47.85557" lon="7.7735">
        <ele>362.430929</ele>
        <time>2022-08-22T22:21:22.233Z</time>
      </trkpt>
      <trkpt lat="47.85518" lon="7.77483">
        <ele>365.218479</ele>
        <time>2022-08-22T22:21:40.577Z</time>
      </trkpt>
      <trkpt lat="47.85491" lon="7.77563">
        <ele>367.495619</ele>
        <time>2022-08-22T22:21:53.537Z</time>
      </trkpt>
      <trkpt lat="47.85449" lon="7.77644">
        <ele>370.04346</ele>
        <time>2022-08-22T22:22:08.195Z</time>
      </trkpt>
      <trkpt lat="47.85428" lon="7.77716">
        <ele>371.939445</ele>
        <time>2022-08-22T22:22:18.997Z</time>
      </trkpt>
      <trkpt lat="47.85426" lon="7.77726">
        <ele>372.056037</ele>
        <time>2022-08-22T22:22:20.432Z</time>
      </trkpt>
      <trkpt lat="47.85419" lon="7.77784">
        <ele>372.689621</ele>
        <time>2022-08-22T22:22:27.822Z</time>
      </trkpt>
      <trkpt lat="47.85433" lon="7.77876">
        <ele>373.713608</ele>
        <time>2022-08-22T22:22:39.118Z</time>
      </trkpt>
      <trkpt lat="47.85436" lon="7.77901">
        <ele>373.997058</ele>
        <time>2022-08-22T22:22:41.921Z</time>
      </trkpt>
      <trkpt lat="47.85441" lon="7.77964">
        <ele>374.684326</ele>
        <time>2022-08-22T22:22:48.503Z</time>
      </trkpt>
      <trkpt lat="47.85441" lon="7.77983">
        <ele>374.840293</ele>
        <time>2022-08-22T22:22:50.243Z</time>
      </trkpt>
      <trkpt lat="47.8544" lon="7.78015">
        <ele>375.017142</ele>
        <time>2022-08-22T22:22:53.401Z</time>
      </trkpt>
      <trkpt lat="47.85433" lon="7.78082">
        <ele>375.39223</ele>
        <time>2022-08-22T22:23:00.674Z</time>
      </trkpt>
      <trkpt lat="47.85433" lon="7.78109">
        <ele>375.54134</ele>
        <time>2022-08-22T22:23:03.582Z</time>
      </trkpt>
      <trkpt lat="47.85438" lon="7.78144">
        <ele>375.741909</ele>
        <time>2022-08-22T22:23:07.675Z</time>
      </trkpt>
      <trkpt lat="47.8544" lon="7.78153">
        <ele>375.789697</ele>
        <time>2022-08-22T22:23:08.653Z</time>
      </trkpt>
      <trkpt lat="47.85452" lon="7.78209">
        <ele>376.116927</ele>
        <time>2022-08-22T22:23:15.296Z</time>
      </trkpt>
      <trkpt lat="47.85456" lon="7.78231">
        <ele>376.243087</ele>
        <time>2022-08-22T22:23:17.950Z</time>
      </trkpt>
      <trkpt lat="47.85459" lon="7.78245">
        <ele>376.421821</ele>
        <time>2022-08-22T22:23:19.591Z</time>
      </trkpt>
      <trkpt lat="47.85462" lon="7.78266">
        <ele>376.751865</ele>
        <time>2022-08-22T22:23:22.089Z</time>
      </trkpt>
      <trkpt lat="47.85466" lon="7.78308">
        <ele>377.407891</ele>
        <time>2022-08-22T22:23:27.177Z</time>
      </trkpt>
      <trkpt lat="47.85458" lon="7.78377">
        <ele>378.473297</ele>
        <time>2022-08-22T22:23:35.972Z</time>
      </trkpt>
      <trkpt lat="47.85456" lon="7.78419">
        <ele>379.128682</ele>
        <time>2022-08-22T22:23:41.594Z</time>
      </trkpt>
      <trkpt lat="47.85461" lon="7.78453">
        <ele>379.654501</ele>
        <time>2022-08-22T22:23:46.105Z</time>
      </trkpt>
      <trkpt lat="47.85467" lon="7.78474">
        <ele>380.004734</ele>
        <time>2022-08-22T22:23:49.095Z</time>
      </trkpt>
      <trkpt lat="47.85476" lon="7.78506">
        <ele>380.545891</ele>
        <time>2022-08-22T22:23:53.537Z</time>
      </trkpt>
      <trkpt lat="47.85482" lon="7.78525">
        <ele>380.870036</ele>
        <time>2022-08-22T22:23:56.135Z</time>
      </trkpt>
      <trkpt lat="47.85485" lon="7.78535">
        <ele>381.039025</ele>
        <time>2022-08-22T22:23:57.477Z</time>
      </trkpt>
      <trkpt lat="47.855" lon="7.78591">
        <ele>381.983563</ele>
        <time>2022-08-22T22:24:04.939Z</time>
      </trkpt>
      <trkpt lat="47.85516" lon="7.78645">
        <ele>382.892504</ele>
        <time>2022-08-22T22:24:12.159Z</time>
      </trkpt>
      <trkpt lat="47.85544" lon="7.78747">
        <ele>384.616723</ele>
        <time>2022-08-22T22:24:25.989Z</time>
      </trkpt>
      <trkpt lat="47.85547" lon="7.78759">
        <ele>384.852293</ele>
        <time>2022-08-22T22:24:27.640Z</time>
      </trkpt>
      <trkpt lat="47.85563" lon="7.78831">
        <ele>386.186145</ele>
        <time>2022-08-22T22:24:37.175Z</time>
      </trkpt>
      <trkpt lat="47.85587" lon="7.78965">
        <ele>388.618084</ele>
        <time>2022-08-22T22:24:54.618Z</time>
      </trkpt>
      <trkpt lat="47.85604" lon="7.79041">
        <ele>390.369245</ele>
        <time>2022-08-22T22:25:05.222Z</time>
      </trkpt>
      <trkpt lat="47.85606" lon="7.79051">
        <ele>390.650033</ele>
        <time>2022-08-22T22:25:06.721Z</time>
      </trkpt>
      <trkpt lat="47.8565" lon="7.79167">
        <ele>394.077516</ele>
        <time>2022-08-22T22:25:25.631Z</time>
      </trkpt>
      <trkpt lat="47.85676" lon="7.79246">
        <ele>396.305926</ele>
        <time>2022-08-22T22:25:38.087Z</time>
      </trkpt>
      <trkpt lat="47.85699" lon="7.7932">
        <ele>398.201189</ele>
        <time>2022-08-22T22:25:49.431Z</time>
      </trkpt>
      <trkpt lat="47.85763" lon="7.7942">
        <ele>401.381272</ele>
        <time>2022-08-22T22:26:08.118Z</time>
      </trkpt>
      <trkpt lat="47.85804" lon="7.79471">
        <ele>402.976845</ele>
        <time>2022-08-22T22:26:18.359Z</time>
      </trkpt>
      <trkpt lat="47.8585" lon="7.79512">
        <ele>404.31413</ele>
        <time>2022-08-22T22:26:28.383Z</time>
      </trkpt>
      <trkpt lat="47.85911" lon="7.79549">
        <ele>405.938183</ele>
        <time>2022-08-22T22:26:40.378Z</time>
      </trkpt>
      <trkpt lat="47.85927" lon="7.79563">
        <ele>406.413058</ele>
        <time>2022-08-22T22:26:44.050Z</time>
      </trkpt>
      <trkpt lat="47.85961" lon="7.79593">
        <ele>407.450051</ele>
        <time>2022-08-22T22:26:51.620Z</time>
      </trkpt>
      <trkpt lat="47.85988" lon="7.79609">
        <ele>408.225902</ele>
        <time>2022-08-22T22:26:57.102Z</time>
      </trkpt>
      <trkpt lat="47.85996" lon="7.79613">
        <ele>408.454888</ele>
        <time>2022-08-22T22:26:58.702Z</time>
      </trkpt>
      <trkpt lat="47.86035" lon="7.79634">
        <ele>409.603645</ele>
        <time>2022-08-22T22:27:06.831Z</time>
      </trkpt>
      <trkpt lat="47.86062" lon="7.79649">
        <ele>410.371612</ele>
        <time>2022-08-22T22:27:12.361Z</time>
      </trkpt>
      <trkpt lat="47.86072" lon="7.79655">
        <ele>410.686038</ele>
        <time>2022-08-22T22:27:14.564Z</time>
      </trkpt>
      <trkpt lat="47.86106" lon="7.79675">
        <ele>411.678694</ele>
        <time>2022-08-22T22:27:21.510Z</time>
      </trkpt>
      <trkpt lat="47.86172" lon="7.79722">
        <ele>414.108654</ele>
        <time>2022-08-22T22:27:35.382Z</time>
      </trkpt>
      <trkpt lat="47.86221" lon="7.79735">
        <ele>415.794079</ele>
        <time>2022-08-22T22:27:45.600Z</time>
      </trkpt>
      <trkpt lat="47.86295" lon="7.79744">
        <ele>418.499763</ele>
        <time>2022-08-22T22:28:01.044Z</time>
      </trkpt>
      <trkpt lat="47.86346" lon="7.7977">
        <ele>421.018029</ele>
        <time>2022-08-22T22:28:12.537Z</time>
      </trkpt>
      <trkpt lat="47.86361" lon="7.79796">
        <ele>422.115355</ele>
        <time>2022-08-22T22:28:17.590Z</time>
      </trkpt>
      <trkpt lat="47.86364" lon="7.79804">
        <ele>422.400028</ele>
        <time>2022-08-22T22:28:18.937Z</time>
      </trkpt>
      <trkpt lat="47.86373" lon="7.79832">
        <ele>423.386482</ele>
        <time>2022-08-22T22:28:23.580Z</time>
      </trkpt>
      <trkpt lat="47.8638" lon="7.79847">
        <ele>423.963065</ele>
        <time>2022-08-22T22:28:26.379Z</time>
      </trkpt>
      <trkpt lat="47.86482" lon="7.79995">
        <ele>430.610122</ele>
        <time>2022-08-22T22:28:59.368Z</time>
      </trkpt>
      <trkpt lat="47.86498" lon="7.80046">
        <ele>432.350472</ele>
        <time>2022-08-22T22:29:07.208Z</time>
      </trkpt>
      <trkpt lat="47.865" lon="7.80085">
        <ele>433.556229</ele>
        <time>2022-08-22T22:29:12.688Z</time>
      </trkpt>
      <trkpt lat="47.86511" lon="7.80142">
        <ele>435.099338</ele>
        <time>2022-08-22T22:29:20.886Z</time>
      </trkpt>
      <trkpt lat="47.86533" lon="7.80198">
        <ele>436.357784</ele>
        <time>2022-08-22T22:29:29.489Z</time>
      </trkpt>
      <trkpt lat="47.8655" lon="7.80235">
        <ele>437.237163</ele>
        <time>2022-08-22T22:29:35.573Z</time>
      </trkpt>
      <trkpt lat="47.86565" lon="7.80271">
        <ele>438.043189</ele>
        <time>2022-08-22T22:29:40.970Z</time>
      </trkpt>
      <trkpt lat="47.86605" lon="7.80366">
        <ele>440.121421</ele>
        <time>2022-08-22T22:29:54.635Z</time>
      </trkpt>
      <trkpt lat="47.86613" lon="7.80383">
        <ele>440.438646</ele>
        <time>2022-08-22T22:29:57.163Z</time>
      </trkpt>
      <trkpt lat="47.86642" lon="7.80427">
        <ele>441.354853</ele>
        <time>2022-08-22T22:30:05.030Z</time>
      </trkpt>
      <trkpt lat="47.86686" lon="7.80485">
        <ele>442.677066</ele>
        <time>2022-08-22T22:30:15.899Z</time>
      </trkpt>
      <trkpt lat="47.86715" lon="7.80529">
        <ele>443.593175</ele>
        <time>2022-08-22T22:30:23.316Z</time>
      </trkpt>
      <trkpt lat="47.86734" lon="7.80561">
        <ele>444.359166</ele>
        <time>2022-08-22T22:30:28.841Z</time>
      </trkpt>
      <trkpt lat="47.86759" lon="7.80608">
        <ele>445.506693</ele>
        <time>2022-08-22T22:30:36.541Z</time>
      </trkpt>
      <trkpt lat="47.86789" lon="7.80671">
        <ele>446.968848</ele>
        <time>2022-08-22T22:30:46.525Z</time>
      </trkpt>
      <trkpt lat="47.86793" lon="7.80678">
        <ele>447.153683</ele>
        <time>2022-08-22T22:30:47.756Z</time>
      </trkpt>
      <trkpt lat="47.86856" lon="7.80785">
        <ele>450.12752</ele>
        <time>2022-08-22T22:31:06.786Z</time>
      </trkpt>
      <trkpt lat="47.86873" lon="7.80809">
        <ele>450.955</ele>
        <time>2022-08-22T22:31:11.306Z</time>
      </trkpt>
      <trkpt lat="47.86899" lon="7.80844">
        <ele>452.205491</ele>
        <time>2022-08-22T22:31:18.429Z</time>
      </trkpt>
      <trkpt lat="47.86934" lon="7.80883">
        <ele>453.756077</ele>
        <time>2022-08-22T22:31:27.381Z</time>
      </trkpt>
      <trkpt lat="47.86955" lon="7.80908">
        <ele>454.712971</ele>
        <time>2022-08-22T22:31:32.779Z</time>
      </trkpt>
      <trkpt lat="47.87015" lon="7.80975">
        <ele>458.400881</ele>
        <time>2022-08-22T22:31:48.662Z</time>
      </trkpt>
      <trkpt lat="47.87054" lon="7.81021">
        <ele>461.03752</ele>
        <time>2022-08-22T22:32:00.279Z</time>
      </trkpt>
      <trkpt lat="47.8709" lon="7.81066">
        <ele>463.543338</ele>
        <time>2022-08-22T22:32:12.137Z</time>
      </trkpt>
      <trkpt lat="47.87109" lon="7.81101">
        <ele>465.093101</ele>
        <time>2022-08-22T22:32:19.519Z</time>
      </trkpt>
      <trkpt lat="47.8714" lon="7.81169">
        <ele>467.644193</ele>
        <time>2022-08-22T22:32:32.733Z</time>
      </trkpt>
      <trkpt lat="47.87176" lon="7.81224">
        <ele>470.020143</ele>
        <time>2022-08-22T22:32:44.021Z</time>
      </trkpt>
      <trkpt lat="47.87262" lon="7.81334">
        <ele>474.249773</ele>
        <time>2022-08-22T22:33:06.903Z</time>
      </trkpt>
      <trkpt lat="47.87295" lon="7.81371">
        <ele>475.208033</ele>
        <time>2022-08-22T22:33:13.806Z</time>
      </trkpt>
      <trkpt lat="47.8732" lon="7.81409">
        <ele>476.030771</ele>
        <time>2022-08-22T22:33:19.892Z</time>
      </trkpt>
      <trkpt lat="47.87334" lon="7.81442">
        <ele>476.643744</ele>
        <time>2022-08-22T22:33:24.797Z</time>
      </trkpt>
      <trkpt lat="47.87366" lon="7.81561">
        <ele>479.630934</ele>
        <time>2022-08-22T22:33:41.236Z</time>
      </trkpt>
      <trkpt lat="47.87387" lon="7.81601">
        <ele>481.019465</ele>
        <time>2022-08-22T22:33:48.583Z</time>
      </trkpt>
      <trkpt lat="47.87413" lon="7.8165">
        <ele>482.760329</ele>
        <time>2022-08-22T22:33:57.711Z</time>
      </trkpt>
      <trkpt lat="47.87426" lon="7.81688">
        <ele>483.939489</ele>
        <time>2022-08-22T22:34:03.940Z</time>
      </trkpt>
      <trkpt lat="47.87438" lon="7.81736">
        <ele>485.616387</ele>
        <time>2022-08-22T22:34:11.746Z</time>
      </trkpt>
      <trkpt lat="47.87504" lon="7.82007">
        <ele>497.244018</ele>
        <time>2022-08-22T22:34:59.879Z</time>
      </trkpt>
      <trkpt lat="47.87505" lon="7.8201">
        <ele>497.377413</ele>
        <time>2022-08-22T22:35:00.484Z</time>
      </trkpt>
      <trkpt lat="47.87531" lon="7.82108">
        <ele>501.121504</ele>
        <time>2022-08-22T22:35:16.624Z</time>
      </trkpt>
      <trkpt lat="47.8758" lon="7.82244">
        <ele>506.922089</ele>
        <time>2022-08-22T22:35:39.325Z</time>
      </trkpt>
      <trkpt lat="47.87599" lon="7.8229">
        <ele>509.283082</ele>
        <time>2022-08-22T22:35:47.872Z</time>
      </trkpt>
      <trkpt lat="47.87617" lon="7.82335">
        <ele>511.624087</ele>
        <time>2022-08-22T22:35:56.571Z</time>
      </trkpt>
      <trkpt lat="47.87625" lon="7.8236">
        <ele>512.86046</ele>
        <time>2022-08-22T22:36:01.308Z</time>
      </trkpt>
      <trkpt lat="47.87639" lon="7.8242">
        <ele>515.642171</ele>
        <time>2022-08-22T22:36:12.880Z</time>
      </trkpt>
      <trkpt lat="47.87647" lon="7.82457">
        <ele>517.388686</ele>
        <time>2022-08-22T22:36:20.238Z</time>
      </trkpt>
      <trkpt lat="47.87664" lon="7.82537">
        <ele>521.309944</ele>
        <time>2022-08-22T22:36:36.196Z</time>
      </trkpt>
      <trkpt lat="47.87676" lon="7.82606">
        <ele>524.671359</ele>
        <time>2022-08-22T22:36:49.771Z</time>
      </trkpt>
      <trkpt lat="47.87684" lon="7.82657">
        <ele>527.123446</ele>
        <time>2022-08-22T22:36:58.806Z</time>
      </trkpt>
      <trkpt lat="47.87689" lon="7.82684">
        <ele>528.44719</ele>
        <time>2022-08-22T22:37:03.325Z</time>
      </trkpt>
      <trkpt lat="47.8771" lon="7.82782">
        <ele>531.015423</ele>
        <time>2022-08-22T22:37:17.827Z</time>
      </trkpt>
      <trkpt lat="47.87728" lon="7.8291">
        <ele>533.157139</ele>
        <time>2022-08-22T22:37:32.482Z</time>
      </trkpt>
      <trkpt lat="47.87765" lon="7.83013">
        <ele>535.385798</ele>
        <time>2022-08-22T22:37:46.546Z</time>
      </trkpt>
      <trkpt lat="47.87771" lon="7.83051">
        <ele>536.268148</ele>
        <time>2022-08-22T22:37:52.822Z</time>
      </trkpt>
      <trkpt lat="47.8777" lon="7.83091">
        <ele>537.154384</ele>
        <time>2022-08-22T22:37:59.187Z</time>
      </trkpt>
      <trkpt lat="47.87758" lon="7.83209">
        <ele>539.822166</ele>
        <time>2022-08-22T22:38:15.771Z</time>
      </trkpt>
      <trkpt lat="47.87751" lon="7.83254">
        <ele>540.885974</ele>
        <time>2022-08-22T22:38:22.124Z</time>
      </trkpt>
      <trkpt lat="47.87749" lon="7.83271">
        <ele>541.305302</ele>
        <time>2022-08-22T22:38:25.151Z</time>
      </trkpt>
      <trkpt lat="47.87741" lon="7.83316">
        <ele>542.402835</ele>
        <time>2022-08-22T22:38:32.834Z</time>
      </trkpt>
      <trkpt lat="47.87739" lon="7.83321">
        <ele>542.526171</ele>
        <time>2022-08-22T22:38:33.626Z</time>
      </trkpt>
      <trkpt lat="47.87714" lon="7.83417">
        <ele>544.958726</ele>
        <time>2022-08-22T22:38:47.983Z</time>
      </trkpt>
      <trkpt lat="47.87706" lon="7.83448">
        <ele>545.754868</ele>
        <time>2022-08-22T22:38:52.319Z</time>
      </trkpt>
      <trkpt lat="47.87702" lon="7.83468">
        <ele>546.25286</ele>
        <time>2022-08-22T22:38:55.157Z</time>
      </trkpt>
      <trkpt lat="47.87697" lon="7.83528">
        <ele>547.028824</ele>
        <time>2022-08-22T22:39:02.373Z</time>
      </trkpt>
      <trkpt lat="47.87697" lon="7.83588">
        <ele>547.641795</ele>
        <time>2022-08-22T22:39:08.771Z</time>
      </trkpt>
      <trkpt lat="47.87694" lon="7.83649">
        <ele>548.272654</ele>
        <time>2022-08-22T22:39:15.359Z</time>
      </trkpt>
      <trkpt lat="47.8768" lon="7.8371">
        <ele>548.926875</ele>
        <time>2022-08-22T22:39:22.758Z</time>
      </trkpt>
      <trkpt lat="47.87675" lon="7.83786">
        <ele>550.302192</ele>
        <time>2022-08-22T22:39:32.324Z</time>
      </trkpt>
      <trkpt lat="47.87676" lon="7.83812">
        <ele>550.906001</ele>
        <time>2022-08-22T22:39:35.593Z</time>
      </trkpt>
      <trkpt lat="47.87688" lon="7.83854">
        <ele>552.002985</ele>
        <time>2022-08-22T22:39:41.637Z</time>
      </trkpt>
      <trkpt lat="47.87693" lon="7.83866">
        <ele>552.329807</ele>
        <time>2022-08-22T22:39:43.590Z</time>
      </trkpt>
      <trkpt lat="47.87698" lon="7.83879">
        <ele>552.698073</ele>
        <time>2022-08-22T22:39:45.687Z</time>
      </trkpt>
      <trkpt lat="47.87709" lon="7.83897">
        <ele>553.263065</ele>
        <time>2022-08-22T22:39:48.926Z</time>
      </trkpt>
      <trkpt lat="47.87711" lon="7.839">
        <ele>553.375019</ele>
        <time>2022-08-22T22:39:49.624Z</time>
      </trkpt>
      <trkpt lat="47.87715" lon="7.83907">
        <ele>553.593651</ele>
        <time>2022-08-22T22:39:50.961Z</time>
      </trkpt>
      <trkpt lat="47.87722" lon="7.83917">
        <ele>553.9365</ele>
        <time>2022-08-22T22:39:52.922Z</time>
      </trkpt>
      <trkpt lat="47.87724" lon="7.83919">
        <ele>554.023939</ele>
        <time>2022-08-22T22:39:53.422Z</time>
      </trkpt>
      <trkpt lat="47.87727" lon="7.83923">
        <ele>554.150059</ele>
        <time>2022-08-22T22:39:54.161Z</time>
      </trkpt>
      <trkpt lat="47.87733" lon="7.83932">
        <ele>554.469014</ele>
        <time>2022-08-22T22:39:56.029Z</time>
      </trkpt>
      <trkpt lat="47.87741" lon="7.83942">
        <ele>554.834663</ele>
        <time>2022-08-22T22:39:58.276Z</time>
      </trkpt>
      <trkpt lat="47.87765" lon="7.8397">
        <ele>556.049092</ele>
        <time>2022-08-22T22:40:04.985Z</time>
      </trkpt>
      <trkpt lat="47.87824" lon="7.84035">
        <ele>560.103781</ele>
        <time>2022-08-22T22:40:22.467Z</time>
      </trkpt>
      <trkpt lat="47.8797" lon="7.84174">
        <ele>570.498703</ele>
        <time>2022-08-22T22:41:03.229Z</time>
      </trkpt>
      <trkpt lat="47.88061" lon="7.84268">
        <ele>577.929976</ele>
        <time>2022-08-22T22:41:32.208Z</time>
      </trkpt>
      <trkpt lat="47.88116" lon="7.84308">
        <ele>583.13069</ele>
        <time>2022-08-22T22:41:49.424Z</time>
      </trkpt>
      <trkpt lat="47.88143" lon="7.84326">
        <ele>585.629175</ele>
        <time>2022-08-22T22:41:58.461Z</time>
      </trkpt>
      <trkpt lat="47.88176" lon="7.84353">
        <ele>588.780999</ele>
        <time>2022-08-22T22:42:09.404Z</time>
      </trkpt>
      <trkpt lat="47.88204" lon="7.84389">
        <ele>591.907532</ele>
        <time>2022-08-22T22:42:20.141Z</time>
      </trkpt>
      <trkpt lat="47.88211" lon="7.84402">
        <ele>592.854474</ele>
        <time>2022-08-22T22:42:23.494Z</time>
      </trkpt>
      <trkpt lat="47.88252" lon="7.84485">
        <ele>599.933809</ele>
        <time>2022-08-22T22:42:43.422Z</time>
      </trkpt>
      <trkpt lat="47.88278" lon="7.84504">
        <ele>602.861513</ele>
        <time>2022-08-22T22:42:52.455Z</time>
      </trkpt>
      <trkpt lat="47.88304" lon="7.84508">
        <ele>605.545262</ele>
        <time>2022-08-22T22:43:01.301Z</time>
      </trkpt>
      <trkpt lat="47.88321" lon="7.84505">
        <ele>607.321722</ele>
        <time>2022-08-22T22:43:08.044Z</time>
      </trkpt>
      <trkpt lat="47.88341" lon="7.84505">
        <ele>609.381198</ele>
        <time>2022-08-22T22:43:15.182Z</time>
      </trkpt>
      <trkpt lat="47.88357" lon="7.84517">
        <ele>611.225528</ele>
        <time>2022-08-22T22:43:22.154Z</time>
      </trkpt>
      <trkpt lat="47.88365" lon="7.84534">
        <ele>612.832139</ele>
        <time>2022-08-22T22:43:26.379Z</time>
      </trkpt>
      <trkpt lat="47.88367" lon="7.84559">
        <ele>614.848205</ele>
        <time>2022-08-22T22:43:32.663Z</time>
      </trkpt>
      <trkpt lat="47.88364" lon="7.84573">
        <ele>616.002989</ele>
        <time>2022-08-22T22:43:36.148Z</time>
      </trkpt>
      <trkpt lat="47.88382" lon="7.84583">
        <ele>618.196007</ele>
        <time>2022-08-22T22:43:41.963Z</time>
      </trkpt>
      <trkpt lat="47.88411" lon="7.84611">
        <ele>622.264286</ele>
        <time>2022-08-22T22:43:55.374Z</time>
      </trkpt>
      <trkpt lat="47.88434" lon="7.8466">
        <ele>627.027718</ele>
        <time>2022-08-22T22:44:11.475Z</time>
      </trkpt>
      <trkpt lat="47.8847" lon="7.84772">
        <ele>635.884958</ele>
        <time>2022-08-22T22:44:39.230Z</time>
      </trkpt>
      <trkpt lat="47.88473" lon="7.84808">
        <ele>638.130621</ele>
        <time>2022-08-22T22:44:46.015Z</time>
      </trkpt>
      <trkpt lat="47.88482" lon="7.84839">
        <ele>640.154371</ele>
        <time>2022-08-22T22:44:51.061Z</time>
      </trkpt>
      <trkpt lat="47.88501" lon="7.84858">
        <ele>642.29298</ele>
        <time>2022-08-22T22:44:56.146Z</time>
      </trkpt>
      <trkpt lat="47.8852" lon="7.84867">
        <ele>644.135465</ele>
        <time>2022-08-22T22:45:01.977Z</time>
      </trkpt>
      <trkpt lat="47.88605" lon="7.84865">
        <ele>653.6089</ele>
        <time>2022-08-22T22:45:31.245Z</time>
      </trkpt>
      <trkpt lat="47.88651" lon="7.84851">
        <ele>660.406892</ele>
        <time>2022-08-22T22:45:47.942Z</time>
      </trkpt>
      <trkpt lat="47.88657" lon="7.8485">
        <ele>661.248545</ele>
        <time>2022-08-22T22:45:50.448Z</time>
      </trkpt>
      <trkpt lat="47.88704" lon="7.84856">
        <ele>668.074383</ele>
        <time>2022-08-22T22:46:11.614Z</time>
      </trkpt>
      <trkpt lat="47.88724" lon="7.84869">
        <ele>671.325754</ele>
        <time>2022-08-22T22:46:21.818Z</time>
      </trkpt>
      <trkpt lat="47.88749" lon="7.84906">
        <ele>676.284984</ele>
        <time>2022-08-22T22:46:38.886Z</time>
      </trkpt>
      <trkpt lat="47.88795" lon="7.85005">
        <ele>687.977888</ele>
        <time>2022-08-22T22:47:21.370Z</time>
      </trkpt>
      <trkpt lat="47.88809" lon="7.85026">
        <ele>690.924312</ele>
        <time>2022-08-22T22:47:29.172Z</time>
      </trkpt>
      <trkpt lat="47.88858" lon="7.85075">
        <ele>699.409876</ele>
        <time>2022-08-22T22:47:47.117Z</time>
      </trkpt>
      <trkpt lat="47.88897" lon="7.85091">
        <ele>704.096666</ele>
        <time>2022-08-22T22:47:59.166Z</time>
      </trkpt>
      <trkpt lat="47.88957" lon="7.85098">
        <ele>710.688788</ele>
        <time>2022-08-22T22:48:16.232Z</time>
      </trkpt>
      <trkpt lat="47.88983" lon="7.85107">
        <ele>713.527904</ele>
        <time>2022-08-22T22:48:24.118Z</time>
      </trkpt>
      <trkpt lat="47.88995" lon="7.85132">
        <ele>715.815033</ele>
        <time>2022-08-22T22:48:30.944Z</time>
      </trkpt>
      <trkpt lat="47.88942" lon="7.8535">
        <ele>740.516933</ele>
        <time>2022-08-22T22:49:41.046Z</time>
      </trkpt>
      <trkpt lat="47.88879" lon="7.85473">
        <ele>759.22551</ele>
        <time>2022-08-22T22:50:39.725Z</time>
      </trkpt>
      <trkpt lat="47.88865" lon="7.85532">
        <ele>766.911556</ele>
        <time>2022-08-22T22:51:02.397Z</time>
      </trkpt>
      <trkpt lat="47.88861" lon="7.85587">
        <ele>773.721174</ele>
        <time>2022-08-22T22:51:22.043Z</time>
      </trkpt>
      <trkpt lat="47.88865" lon="7.85859">
        <ele>801.094904</ele>
        <time>2022-08-22T22:52:38.874Z</time>
      </trkpt>
      <trkpt lat="47.88872" lon="7.85898">
        <ele>804.739265</ele>
        <time>2022-08-22T22:52:48.578Z</time>
      </trkpt>
      <trkpt lat="47.88885" lon="7.85929">
        <ele>807.962286</ele>
        <time>2022-08-22T22:52:56.773Z</time>
      </trkpt>
      <trkpt lat="47.88907" lon="7.85965">
        <ele>811.175766</ele>
        <time>2022-08-22T22:53:07.140Z</time>
      </trkpt>
      <trkpt lat="47.88946" lon="7.86006">
        <ele>815.202546</ele>
        <time>2022-08-22T22:53:20.493Z</time>
      </trkpt>
      <trkpt lat="47.88967" lon="7.86037">
        <ele>817.72824</ele>
        <time>2022-08-22T22:53:28.310Z</time>
      </trkpt>
      <trkpt lat="47.88983" lon="7.86085">
        <ele>820.758115</ele>
        <time>2022-08-22T22:53:37.232Z</time>
      </trkpt>
      <trkpt lat="47.89043" lon="7.86114">
        <ele>826.602008</ele>
        <time>2022-08-22T22:53:55.126Z</time>
      </trkpt>
      <trkpt lat="47.89108" lon="7.86146">
        <ele>833.986962</ele>
        <time>2022-08-22T22:54:18.189Z</time>
      </trkpt>
      <trkpt lat="47.89109" lon="7.86162">
        <ele>835.116484</ele>
        <time>2022-08-22T22:54:21.825Z</time>
      </trkpt>
      <trkpt lat="47.89105" lon="7.86165">
        <ele>835.569046</ele>
        <time>2022-08-22T22:54:23.595Z</time>
      </trkpt>
      <trkpt lat="47.89078" lon="7.86166">
        <ele>838.460636</ele>
        <time>2022-08-22T22:54:31.400Z</time>
      </trkpt>
      <trkpt lat="47.89073" lon="7.86174">
        <ele>839.283329</ele>
        <time>2022-08-22T22:54:35.197Z</time>
      </trkpt>
      <trkpt lat="47.89089" lon="7.86191">
        <ele>841.388948</ele>
        <time>2022-08-22T22:54:42.145Z</time>
      </trkpt>
      <trkpt lat="47.89101" lon="7.86216">
        <ele>843.622021</ele>
        <time>2022-08-22T22:54:50.265Z</time>
      </trkpt>
      <trkpt lat="47.89124" lon="7.86345">
        <ele>854.39946</ele>
        <time>2022-08-22T22:55:23.297Z</time>
      </trkpt>
      <trkpt lat="47.89152" lon="7.86435">
        <ele>862.449224</ele>
        <time>2022-08-22T22:55:47.343Z</time>
      </trkpt>
      <trkpt lat="47.89205" lon="7.86525">
        <ele>871.692649</ele>
        <time>2022-08-22T22:56:15.417Z</time>
      </trkpt>
      <trkpt lat="47.89212" lon="7.86544">
        <ele>873.240596</ele>
        <time>2022-08-22T22:56:20.271Z</time>
      </trkpt>
      <trkpt lat="47.89207" lon="7.86587">
        <ele>876.536616</ele>
        <time>2022-08-22T22:56:29.970Z</time>
      </trkpt>
      <trkpt lat="47.89207" lon="7.86656">
        <ele>881.637128</ele>
        <time>2022-08-22T22:56:45.515Z</time>
      </trkpt>
      <trkpt lat="47.89205" lon="7.86692">
        <ele>884.348514</ele>
        <time>2022-08-22T22:56:53.627Z</time>
      </trkpt>
      <trkpt lat="47.89196" lon="7.86725">
        <ele>886.990593</ele>
        <time>2022-08-22T22:57:02.132Z</time>
      </trkpt>
      <trkpt lat="47.89195" lon="7.8676">
        <ele>889.526022</ele>
        <time>2022-08-22T22:57:10.458Z</time>
      </trkpt>
      <trkpt lat="47.8919" lon="7.86782">
        <ele>891.180639</ele>
        <time>2022-08-22T22:57:15.360Z</time>
      </trkpt>
      <trkpt lat="47.89152" lon="7.86885">
        <ele>899.759814</ele>
        <time>2022-08-22T22:57:42.294Z</time>
      </trkpt>
      <trkpt lat="47.89151" lon="7.8689">
        <ele>900.213086</ele>
        <time>2022-08-22T22:57:43.731Z</time>
      </trkpt>
      <trkpt lat="47.89149" lon="7.86901">
        <ele>901.011163</ele>
        <time>2022-08-22T22:57:46.212Z</time>
      </trkpt>
      <trkpt lat="47.89149" lon="7.86911">
        <ele>901.755702</ele>
        <time>2022-08-22T22:57:48.297Z</time>
      </trkpt>
      <trkpt lat="47.89152" lon="7.86926">
        <ele>902.895093</ele>
        <time>2022-08-22T22:57:51.338Z</time>
      </trkpt>
      <trkpt lat="47.89156" lon="7.86936">
        <ele>903.709594</ele>
        <time>2022-08-22T22:57:53.882Z</time>
      </trkpt>
      <trkpt lat="47.89173" lon="7.86965">
        <ele>906.387554</ele>
        <time>2022-08-22T22:58:02.191Z</time>
      </trkpt>
      <trkpt lat="47.89254" lon="7.87026">
        <ele>914.860716</ele>
        <time>2022-08-22T22:58:33.185Z</time>
      </trkpt>
      <trkpt lat="47.89297" lon="7.87084">
        <ele>920.30745</ele>
        <time>2022-08-22T22:58:48.021Z</time>
      </trkpt>
      <trkpt lat="47.89301" lon="7.87104">
        <ele>921.617258</ele>
        <time>2022-08-22T22:58:53.528Z</time>
      </trkpt>
      <trkpt lat="47.89287" lon="7.87102">
        <ele>922.752225</ele>
        <time>2022-08-22T22:58:56.589Z</time>
      </trkpt>
      <trkpt lat="47.89253" lon="7.87075">
        <ele>925.621425</ele>
        <time>2022-08-22T22:59:06.957Z</time>
      </trkpt>
      <trkpt lat="47.89202" lon="7.87067">
        <ele>929.432276</ele>
        <time>2022-08-22T22:59:20.637Z</time>
      </trkpt>
      <trkpt lat="47.89146" lon="7.87075">
        <ele>933.575234</ele>
        <time>2022-08-22T22:59:34.217Z</time>
      </trkpt>
      <trkpt lat="47.89126" lon="7.87096">
        <ele>935.431881</ele>
        <time>2022-08-22T22:59:40.270Z</time>
      </trkpt>
      <trkpt lat="47.89102" lon="7.87156">
        <ele>941.131657</ele>
        <time>2022-08-22T22:59:54.640Z</time>
      </trkpt>
      <trkpt lat="47.89093" lon="7.87258">
        <ele>949.413897</ele>
        <time>2022-08-22T23:00:21.750Z</time>
      </trkpt>
      <trkpt lat="47.89107" lon="7.87336">
        <ele>955.934354</ele>
        <time>2022-08-22T23:00:43.060Z</time>
      </trkpt>
      <trkpt lat="47.89124" lon="7.87379">
        <ele>960.154914</ele>
        <time>2022-08-22T23:00:56.942Z</time>
      </trkpt>
      <trkpt lat="47.89153" lon="7.87424">
        <ele>965.498954</ele>
        <time>2022-08-22T23:01:14.898Z</time>
      </trkpt>
      <trkpt lat="47.8921" lon="7.8749">
        <ele>974.595776</ele>
        <time>2022-08-22T23:01:43.340Z</time>
      </trkpt>
      <trkpt lat="47.89245" lon="7.87534">
        <ele>980.170254</ele>
        <time>2022-08-22T23:01:57.889Z</time>
      </trkpt>
      <trkpt lat="47.89249" lon="7.8756">
        <ele>981.624814</ele>
        <time>2022-08-22T23:02:02.899Z</time>
      </trkpt>
      <trkpt lat="47.89238" lon="7.87609">
        <ele>984.383159</ele>
        <time>2022-08-22T23:02:11.722Z</time>
      </trkpt>
      <trkpt lat="47.89246" lon="7.87622">
        <ele>985.286257</ele>
        <time>2022-08-22T23:02:14.793Z</time>
      </trkpt>
      <trkpt lat="47.8926" lon="7.87607">
        <ele>986.722312</ele>
        <time>2022-08-22T23:02:19.468Z</time>
      </trkpt>
      <trkpt lat="47.89279" lon="7.87537">
        <ele>990.747143</ele>
        <time>2022-08-22T23:02:33.849Z</time>
      </trkpt>
      <trkpt lat="47.89292" lon="7.8753">
        <ele>991.896657</ele>
        <time>2022-08-22T23:02:37.905Z</time>
      </trkpt>
      <trkpt lat="47.8933" lon="7.87531">
        <ele>994.891119</ele>
        <time>2022-08-22T23:02:47.736Z</time>
      </trkpt>
      <trkpt lat="47.89442" lon="7.87529">
        <ele>1003.065591</ele>
        <time>2022-08-22T23:03:16.747Z</time>
      </trkpt>
      <trkpt lat="47.89568" lon="7.87498">
        <ele>1012.003701</ele>
        <time>2022-08-22T23:03:51.653Z</time>
      </trkpt>
      <trkpt lat="47.89606" lon="7.87492">
        <ele>1014.537478</ele>
        <time>2022-08-22T23:04:01.108Z</time>
      </trkpt>
      <trkpt lat="47.89673" lon="7.87495">
        <ele>1019.056051</ele>
        <time>2022-08-22T23:04:17.491Z</time>
      </trkpt>
      <trkpt lat="47.8977" lon="7.87529">
        <ele>1022.839395</ele>
        <time>2022-08-22T23:04:40.316Z</time>
      </trkpt>
      <trkpt lat="47.89866" lon="7.87581">
        <ele>1025.671348</ele>
        <time>2022-08-22T23:04:59.280Z</time>
      </trkpt>
      <trkpt lat="47.89938" lon="7.87652">
        <ele>1024.162562</ele>
        <time>2022-08-22T23:05:09.074Z</time>
      </trkpt>
      <trkpt lat="47.89953" lon="7.87653">
        <ele>1023.902062</ele>
        <time>2022-08-22T23:05:10.578Z</time>
      </trkpt>
      <trkpt lat="47.8997" lon="7.87628">
        <ele>1023.485524</ele>
        <time>2022-08-22T23:05:12.972Z</time>
      </trkpt>
      <trkpt lat="47.89972" lon="7.87525">
        <ele>1022.607157</ele>
        <time>2022-08-22T23:05:19.842Z</time>
      </trkpt>
      <trkpt lat="47.89926" lon="7.87409">
        <ele>1022.009568</ele>
        <time>2022-08-22T23:05:29.242Z</time>
      </trkpt>
      <trkpt lat="47.89883" lon="7.87264">
        <ele>1024.423824</ele>
        <time>2022-08-22T23:05:51.189Z</time>
      </trkpt>
      <trkpt lat="47.89882" lon="7.87208">
        <ele>1026.635855</ele>
        <time>2022-08-22T23:06:00.411Z</time>
      </trkpt>
      <trkpt lat="47.89891" lon="7.87171">
        <ele>1028.215777</ele>
        <time>2022-08-22T23:06:07.387Z</time>
      </trkpt>
      <trkpt lat="47.89918" lon="7.87124">
        <ele>1030.652838</ele>
        <time>2022-08-22T23:06:18.192Z</time>
      </trkpt>
      <trkpt lat="47.89936" lon="7.87108">
        <ele>1031.885479</ele>
        <time>2022-08-22T23:06:23.478Z</time>
      </trkpt>
      <trkpt lat="47.89977" lon="7.87089">
        <ele>1034.530393</ele>
        <time>2022-08-22T23:06:34.893Z</time>
      </trkpt>
      <trkpt lat="47.89994" lon="7.87068">
        <ele>1035.871617</ele>
        <time>2022-08-22T23:06:40.733Z</time>
      </trkpt>
      <trkpt lat="47.90004" lon="7.87038">
        <ele>1037.238742</ele>
        <time>2022-08-22T23:06:47.058Z</time>
      </trkpt>
      <trkpt lat="47.90016" lon="7.86908">
        <ele>1042.592806</ele>
        <time>2022-08-22T23:07:05.652Z</time>
      </trkpt>
      <trkpt lat="47.90028" lon="7.86864">
        <ele>1044.90398</ele>
        <time>2022-08-22T23:07:13.530Z</time>
      </trkpt>
      <trkpt lat="47.90035" lon="7.86879">
        <ele>1045.814986</ele>
        <time>2022-08-22T23:07:17.031Z</time>
      </trkpt>
      <trkpt lat="47.90034" lon="7.86894">
        <ele>1046.597309</ele>
        <time>2022-08-22T23:07:19.947Z</time>
      </trkpt>
      <trkpt lat="47.90031" lon="7.86908">
        <ele>1047.308949</ele>
        <time>2022-08-22T23:07:22.306Z</time>
      </trkpt>
      <trkpt lat="47.90031" lon="7.86927">
        <ele>1048.289714</ele>
        <time>2022-08-22T23:07:25.844Z</time>
      </trkpt>
      <trkpt lat="47.90032" lon="7.86952">
        <ele>1049.568303</ele>
        <time>2022-08-22T23:07:30.615Z</time>
      </trkpt>
      <trkpt lat="47.90037" lon="7.86981">
        <ele>1051.121451</ele>
        <time>2022-08-22T23:07:36.146Z</time>
      </trkpt>
      <trkpt lat="47.9004" lon="7.86996">
        <ele>1051.896522</ele>
        <time>2022-08-22T23:07:39.209Z</time>
      </trkpt>
      <trkpt lat="47.90042" lon="7.87003">
        <ele>1052.292866</ele>
        <time>2022-08-22T23:07:40.530Z</time>
      </trkpt>
      <trkpt lat="47.90053" lon="7.87022">
        <ele>1053.576649</ele>
        <time>2022-08-22T23:07:44.946Z</time>
      </trkpt>
      <trkpt lat="47.90086" lon="7.87073">
        <ele>1057.299854</ele>
        <time>2022-08-22T23:07:58.948Z</time>
      </trkpt>
      <trkpt lat="47.90095" lon="7.87099">
        <ele>1059.084742</ele>
        <time>2022-08-22T23:08:04.465Z</time>
      </trkpt>
      <trkpt lat="47.90105" lon="7.87166">
        <ele>1063.442315</ele>
        <time>2022-08-22T23:08:18.660Z</time>
      </trkpt>
      <trkpt lat="47.90108" lon="7.87272">
        <ele>1070.144654</ele>
        <time>2022-08-22T23:08:41.610Z</time>
      </trkpt>
      <trkpt lat="47.90114" lon="7.87308">
        <ele>1072.50846</ele>
        <time>2022-08-22T23:08:49.018Z</time>
      </trkpt>
      <trkpt lat="47.90166" lon="7.87494">
        <ele>1085.817053</ele>
        <time>2022-08-22T23:09:29.496Z</time>
      </trkpt>
      <trkpt lat="47.9019" lon="7.87651">
        <ele>1098.043309</ele>
        <time>2022-08-22T23:10:06.433Z</time>
      </trkpt>
      <trkpt lat="47.90203" lon="7.87863">
        <ele>1116.70312</ele>
        <time>2022-08-22T23:11:04.778Z</time>
      </trkpt>
      <trkpt lat="47.9021" lon="7.87914">
        <ele>1120.844525</ele>
        <time>2022-08-22T23:11:18.149Z</time>
      </trkpt>
      <trkpt lat="47.90211" lon="7.87971">
        <ele>1125.513989</ele>
        <time>2022-08-22T23:11:32.698Z</time>
      </trkpt>
      <trkpt lat="47.90181" lon="7.88082">
        <ele>1135.143117</ele>
        <time>2022-08-22T23:12:01.049Z</time>
      </trkpt>
      <trkpt lat="47.90177" lon="7.8813">
        <ele>1138.514936</ele>
        <time>2022-08-22T23:12:11.775Z</time>
      </trkpt>
      <trkpt lat="47.9017" lon="7.88219">
        <ele>1143.762827</ele>
        <time>2022-08-22T23:12:28.083Z</time>
      </trkpt>
      <trkpt lat="47.90173" lon="7.88384">
        <ele>1153.235904</ele>
        <time>2022-08-22T23:13:00.589Z</time>
      </trkpt>
      <trkpt lat="47.90162" lon="7.88442">
        <ele>1155.638053</ele>
        <time>2022-08-22T23:13:11.748Z</time>
      </trkpt>
      <trkpt lat="47.90115" lon="7.88539">
        <ele>1160.432673</ele>
        <time>2022-08-22T23:13:31.150Z</time>
      </trkpt>
      <trkpt lat="47.90104" lon="7.88578">
        <ele>1162.146449</ele>
        <time>2022-08-22T23:13:37.513Z</time>
      </trkpt>
      <trkpt lat="47.90103" lon="7.88623">
        <ele>1163.547516</ele>
        <time>2022-08-22T23:13:43.963Z</time>
      </trkpt>
      <trkpt lat="47.90116" lon="7.88689">
        <ele>1163.78908</ele>
        <time>2022-08-22T23:13:52.214Z</time>
      </trkpt>
      <trkpt lat="47.90093" lon="7.88707">
        <ele>1163.927291</ele>
        <time>2022-08-22T23:13:56.611Z</time>
      </trkpt>
      <trkpt lat="47.90051" lon="7.88752">
        <ele>1164.199863</ele>
        <time>2022-08-22T23:14:03.063Z</time>
      </trkpt>
      <trkpt lat="47.90032" lon="7.88774">
        <ele>1164.32524</ele>
        <time>2022-08-22T23:14:06.062Z</time>
      </trkpt>
      <trkpt lat="47.90013" lon="7.88799">
        <ele>1164.455505</ele>
        <time>2022-08-22T23:14:08.829Z</time>
      </trkpt>
      <trkpt lat="47.89944" lon="7.88866">
        <ele>1163.504359</ele>
        <time>2022-08-22T23:14:18.275Z</time>
      </trkpt>
      <trkpt lat="47.89901" lon="7.88889">
        <ele>1162.976995</ele>
        <time>2022-08-22T23:14:23.521Z</time>
      </trkpt>
      <trkpt lat="47.89802" lon="7.88926">
        <ele>1162.357653</ele>
        <time>2022-08-22T23:14:37.333Z</time>
      </trkpt>
      <trkpt lat="47.89717" lon="7.88982">
        <ele>1162.317802</ele>
        <time>2022-08-22T23:14:52.197Z</time>
      </trkpt>
      <trkpt lat="47.89656" lon="7.89017">
        <ele>1161.951829</ele>
        <time>2022-08-22T23:15:01.750Z</time>
      </trkpt>
      <trkpt lat="47.89538" lon="7.8905">
        <ele>1160.519971</ele>
        <time>2022-08-22T23:15:16.242Z</time>
      </trkpt>
      <trkpt lat="47.89439" lon="7.89097">
        <ele>1157.923764</ele>
        <time>2022-08-22T23:15:27.120Z</time>
      </trkpt>
      <trkpt lat="47.89405" lon="7.89115">
        <ele>1156.833004</ele>
        <time>2022-08-22T23:15:30.809Z</time>
      </trkpt>
      <trkpt lat="47.89375" lon="7.89131">
        <ele>1155.881515</ele>
        <time>2022-08-22T23:15:33.938Z</time>
      </trkpt>
      <trkpt lat="47.89321" lon="7.89154">
        <ele>1153.960122</ele>
        <time>2022-08-22T23:15:39.547Z</time>
      </trkpt>
      <trkpt lat="47.89327" lon="7.89175">
        <ele>1153.315529</ele>
        <time>2022-08-22T23:15:41.065Z</time>
      </trkpt>
      <trkpt lat="47.89329" lon="7.89183">
        <ele>1153.08231</ele>
        <time>2022-08-22T23:15:41.615Z</time>
      </trkpt>
      <trkpt lat="47.8934" lon="7.89216">
        <ele>1152.068229</ele>
        <time>2022-08-22T23:15:43.981Z</time>
      </trkpt>
      <trkpt lat="47.89307" lon="7.89228">
        <ele>1150.670236</ele>
        <time>2022-08-22T23:15:47.207Z</time>
      </trkpt>
      <trkpt lat="47.89294" lon="7.89233">
        <ele>1150.09927</ele>
        <time>2022-08-22T23:15:48.527Z</time>
      </trkpt>
      <trkpt lat="47.89212" lon="7.89265">
        <ele>1146.69829</ele>
        <time>2022-08-22T23:15:56.678Z</time>
      </trkpt>
      <trkpt lat="47.89177" lon="7.89258">
        <ele>1145.544721</ele>
        <time>2022-08-22T23:16:00.028Z</time>
      </trkpt>
      <trkpt lat="47.89072" lon="7.89223">
        <ele>1142.038044</ele>
        <time>2022-08-22T23:16:10.860Z</time>
      </trkpt>
      <trkpt lat="47.89044" lon="7.89213">
        <ele>1141.349021</ele>
        <time>2022-08-22T23:16:14.065Z</time>
      </trkpt>
      <trkpt lat="47.88967" lon="7.8919">
        <ele>1141.662875</ele>
        <time>2022-08-22T23:16:24.658Z</time>
      </trkpt>
      <trkpt lat="47.88853" lon="7.8922">
        <ele>1142.522296</ele>
        <time>2022-08-22T23:16:44.921Z</time>
      </trkpt>
      <trkpt lat="47.88803" lon="7.89246">
        <ele>1143.770674</ele>
        <time>2022-08-22T23:16:55.096Z</time>
      </trkpt>
      <trkpt lat="47.88763" lon="7.89286">
        <ele>1144.894782</ele>
        <time>2022-08-22T23:17:04.154Z</time>
      </trkpt>
      <trkpt lat="47.88747" lon="7.89292">
        <ele>1145.273106</ele>
        <time>2022-08-22T23:17:07.134Z</time>
      </trkpt>
      <trkpt lat="47.88733" lon="7.89282">
        <ele>1145.637253</ele>
        <time>2022-08-22T23:17:10.211Z</time>
      </trkpt>
      <trkpt lat="47.88712" lon="7.89318">
        <ele>1146.308653</ele>
        <time>2022-08-22T23:17:16.242Z</time>
      </trkpt>
      <trkpt lat="47.8868" lon="7.89389">
        <ele>1146.862516</ele>
        <time>2022-08-22T23:17:26.918Z</time>
      </trkpt>
      <trkpt lat="47.88643" lon="7.89514">
        <ele>1147.753011</ele>
        <time>2022-08-22T23:17:41.585Z</time>
      </trkpt>
      <trkpt lat="47.88634" lon="7.89545">
        <ele>1147.97499</ele>
        <time>2022-08-22T23:17:44.416Z</time>
      </trkpt>
      <trkpt lat="47.88613" lon="7.89588">
        <ele>1147.776911</ele>
        <time>2022-08-22T23:17:48.680Z</time>
      </trkpt>
      <trkpt lat="47.88607" lon="7.89598">
        <ele>1147.719238</ele>
        <time>2022-08-22T23:17:49.663Z</time>
      </trkpt>
      <trkpt lat="47.8858" lon="7.89622">
        <ele>1147.515118</ele>
        <time>2022-08-22T23:17:53.444Z</time>
      </trkpt>
      <trkpt lat="47.88564" lon="7.8963">
        <ele>1147.404219</ele>
        <time>2022-08-22T23:17:55.461Z</time>
      </trkpt>
      <trkpt lat="47.88512" lon="7.89632">
        <ele>1147.062836</ele>
        <time>2022-08-22T23:18:02.450Z</time>
      </trkpt>
      <trkpt lat="47.88501" lon="7.89629">
        <ele>1146.989149</ele>
        <time>2022-08-22T23:18:03.885Z</time>
      </trkpt>
      <trkpt lat="47.88474" lon="7.89622">
        <ele>1146.811474</ele>
        <time>2022-08-22T23:18:07.586Z</time>
      </trkpt>
      <trkpt lat="47.88437" lon="7.89628">
        <ele>1146.674197</ele>
        <time>2022-08-22T23:18:12.460Z</time>
      </trkpt>
      <trkpt lat="47.88406" lon="7.8965">
        <ele>1146.54549</ele>
        <time>2022-08-22T23:18:17.750Z</time>
      </trkpt>
      <trkpt lat="47.88387" lon="7.89674">
        <ele>1146.45151</ele>
        <time>2022-08-22T23:18:21.799Z</time>
      </trkpt>
      <trkpt lat="47.88356" lon="7.89739">
        <ele>1146.252786</ele>
        <time>2022-08-22T23:18:30.301Z</time>
      </trkpt>
      <trkpt lat="47.88294" lon="7.89924">
        <ele>1143.869773</ele>
        <time>2022-08-22T23:18:45.641Z</time>
      </trkpt>
      <trkpt lat="47.88269" lon="7.89998">
        <ele>1142.733306</ele>
        <time>2022-08-22T23:18:51.186Z</time>
      </trkpt>
      <trkpt lat="47.88258" lon="7.90018">
        <ele>1142.378743</ele>
        <time>2022-08-22T23:18:53.235Z</time>
      </trkpt>
      <trkpt lat="47.88217" lon="7.90061">
        <ele>1141.627725</ele>
        <time>2022-08-22T23:18:58.727Z</time>
      </trkpt>
      <trkpt lat="47.88111" lon="7.90126">
        <ele>1139.926412</ele>
        <time>2022-08-22T23:19:12.687Z</time>
      </trkpt>
      <trkpt lat="47.88042" lon="7.90189">
        <ele>1137.804821</ele>
        <time>2022-08-22T23:19:22.155Z</time>
      </trkpt>
      <trkpt lat="47.88019" lon="7.90242">
        <ele>1136.597109</ele>
        <time>2022-08-22T23:19:26.495Z</time>
      </trkpt>
      <trkpt lat="47.87991" lon="7.904">
        <ele>1133.408583</ele>
        <time>2022-08-22T23:19:37.089Z</time>
      </trkpt>
      <trkpt lat="47.87968" lon="7.90456">
        <ele>1132.053753</ele>
        <time>2022-08-22T23:19:41.423Z</time>
      </trkpt>
      <trkpt lat="47.8795" lon="7.90478">
        <ele>1131.358246</ele>
        <time>2022-08-22T23:19:43.712Z</time>
      </trkpt>
      <trkpt lat="47.87932" lon="7.90491">
        <ele>1130.738915</ele>
        <time>2022-08-22T23:19:45.819Z</time>
      </trkpt>
      <trkpt lat="47.879" lon="7.905">
        <ele>1129.751345</ele>
        <time>2022-08-22T23:19:49.309Z</time>
      </trkpt>
      <trkpt lat="47.87824" lon="7.90485">
        <ele>1129.082279</ele>
        <time>2022-08-22T23:19:58.747Z</time>
      </trkpt>
      <trkpt lat="47.87791" lon="7.905">
        <ele>1129.030154</ele>
        <time>2022-08-22T23:20:04.356Z</time>
      </trkpt>
      <trkpt lat="47.87766" lon="7.90526">
        <ele>1128.984545</ele>
        <time>2022-08-22T23:20:09.259Z</time>
      </trkpt>
      <trkpt lat="47.87732" lon="7.90596">
        <ele>1128.883849</ele>
        <time>2022-08-22T23:20:18.532Z</time>
      </trkpt>
      <trkpt lat="47.87687" lon="7.90725">
        <ele>1127.097798</ele>
        <time>2022-08-22T23:20:31.879Z</time>
      </trkpt>
      <trkpt lat="47.87653" lon="7.90832">
        <ele>1125.636023</ele>
        <time>2022-08-22T23:20:39.871Z</time>
      </trkpt>
      <trkpt lat="47.87644" lon="7.90878">
        <ele>1124.190715</ele>
        <time>2022-08-22T23:20:42.933Z</time>
      </trkpt>
      <trkpt lat="47.87646" lon="7.90893">
        <ele>1123.712563</ele>
        <time>2022-08-22T23:20:43.860Z</time>
      </trkpt>
      <trkpt lat="47.87648" lon="7.90902">
        <ele>1123.419846</ele>
        <time>2022-08-22T23:20:44.440Z</time>
      </trkpt>
      <trkpt lat="47.87651" lon="7.90913">
        <ele>1123.036051</ele>
        <time>2022-08-22T23:20:45.216Z</time>
      </trkpt>
      <trkpt lat="47.87657" lon="7.90926">
        <ele>1122.533409</ele>
        <time>2022-08-22T23:20:46.256Z</time>
      </trkpt>
      <trkpt lat="47.87628" lon="7.90963">
        <ele>1120.753356</ele>
        <time>2022-08-22T23:20:49.816Z</time>
      </trkpt>
      <trkpt lat="47.87626" lon="7.90965">
        <ele>1120.641783</ele>
        <time>2022-08-22T23:20:50.039Z</time>
      </trkpt>
      <trkpt lat="47.87618" lon="7.90977">
        <ele>1120.107089</ele>
        <time>2022-08-22T23:20:51.098Z</time>
      </trkpt>
      <trkpt lat="47.87605" lon="7.91">
        <ele>1119.155353</ele>
        <time>2022-08-22T23:20:53.064Z</time>
      </trkpt>
      <trkpt lat="47.87599" lon="7.9101">
        <ele>1118.762045</ele>
        <time>2022-08-22T23:20:53.833Z</time>
      </trkpt>
      <trkpt lat="47.87594" lon="7.9102">
        <ele>1118.325504</ele>
        <time>2022-08-22T23:20:54.712Z</time>
      </trkpt>
      <trkpt lat="47.87575" lon="7.91057">
        <ele>1117.029072</ele>
        <time>2022-08-22T23:20:57.650Z</time>
      </trkpt>
      <trkpt lat="47.87571" lon="7.91065">
        <ele>1116.86137</ele>
        <time>2022-08-22T23:20:58.309Z</time>
      </trkpt>
      <trkpt lat="47.87556" lon="7.91093">
        <ele>1116.273774</ele>
        <time>2022-08-22T23:21:00.677Z</time>
      </trkpt>
      <trkpt lat="47.8754" lon="7.91117">
        <ele>1115.703146</ele>
        <time>2022-08-22T23:21:03.050Z</time>
      </trkpt>
      <trkpt lat="47.87528" lon="7.91132">
        <ele>1115.309201</ele>
        <time>2022-08-22T23:21:04.720Z</time>
      </trkpt>
      <trkpt lat="47.87517" lon="7.91141">
        <ele>1115.000911</ele>
        <time>2022-08-22T23:21:06.159Z</time>
      </trkpt>
      <trkpt lat="47.87481" lon="7.91165">
        <ele>1114.017474</ele>
        <time>2022-08-22T23:21:10.936Z</time>
      </trkpt>
      <trkpt lat="47.87413" lon="7.91197">
        <ele>1112.008602</ele>
        <time>2022-08-22T23:21:19.018Z</time>
      </trkpt>
      <trkpt lat="47.8733" lon="7.91227">
        <ele>1108.774465</ele>
        <time>2022-08-22T23:21:27.795Z</time>
      </trkpt>
      <trkpt lat="47.8728" lon="7.91252">
        <ele>1106.776639</ele>
        <time>2022-08-22T23:21:32.791Z</time>
      </trkpt>
      <trkpt lat="47.87248" lon="7.91277">
        <ele>1105.086569</ele>
        <time>2022-08-22T23:21:36.096Z</time>
      </trkpt>
      <trkpt lat="47.87224" lon="7.91317">
        <ele>1102.833609</ele>
        <time>2022-08-22T23:21:39.371Z</time>
      </trkpt>
      <trkpt lat="47.87177" lon="7.91444">
        <ele>1096.774716</ele>
        <time>2022-08-22T23:21:48.251Z</time>
      </trkpt>
      <trkpt lat="47.87164" lon="7.91466">
        <ele>1095.520265</ele>
        <time>2022-08-22T23:21:50.118Z</time>
      </trkpt>
      <trkpt lat="47.87043" lon="7.91534">
        <ele>1085.066794</ele>
        <time>2022-08-22T23:22:01.599Z</time>
      </trkpt>
      <trkpt lat="47.86983" lon="7.91622">
        <ele>1077.407345</ele>
        <time>2022-08-22T23:22:08.893Z</time>
      </trkpt>
      <trkpt lat="47.86964" lon="7.9164">
        <ele>1074.89407</ele>
        <time>2022-08-22T23:22:10.770Z</time>
      </trkpt>
      <trkpt lat="47.86951" lon="7.91649">
        <ele>1073.369198</ele>
        <time>2022-08-22T23:22:11.942Z</time>
      </trkpt>
      <trkpt lat="47.86943" lon="7.91653">
        <ele>1072.368742</ele>
        <time>2022-08-22T23:22:12.691Z</time>
      </trkpt>
      <trkpt lat="47.8681" lon="7.91689">
        <ele>1058.109719</ele>
        <time>2022-08-22T23:22:24.131Z</time>
      </trkpt>
      <trkpt lat="47.86759" lon="7.91703">
        <ele>1054.602445</ele>
        <time>2022-08-22T23:22:28.728Z</time>
      </trkpt>
      <trkpt lat="47.86679" lon="7.91723">
        <ele>1049.084819</ele>
        <time>2022-08-22T23:22:36.348Z</time>
      </trkpt>
      <trkpt lat="47.86603" lon="7.91707">
        <ele>1044.5097</ele>
        <time>2022-08-22T23:22:43.890Z</time>
      </trkpt>
      <trkpt lat="47.86567" lon="7.91696">
        <ele>1042.491048</ele>
        <time>2022-08-22T23:22:47.375Z</time>
      </trkpt>
      <trkpt lat="47.86559" lon="7.91693">
        <ele>1042.029066</ele>
        <time>2022-08-22T23:22:48.166Z</time>
      </trkpt>
      <trkpt lat="47.86475" lon="7.91673">
        <ele>1037.355263</ele>
        <time>2022-08-22T23:22:55.817Z</time>
      </trkpt>
      <trkpt lat="47.8641" lon="7.91688">
        <ele>1032.216529</ele>
        <time>2022-08-22T23:23:01.708Z</time>
      </trkpt>
      <trkpt lat="47.86398" lon="7.91693">
        <ele>1031.250503</ele>
        <time>2022-08-22T23:23:02.809Z</time>
      </trkpt>
      <trkpt lat="47.86345" lon="7.91728">
        <ele>1026.803057</ele>
        <time>2022-08-22T23:23:07.839Z</time>
      </trkpt>
      <trkpt lat="47.8631" lon="7.91763">
        <ele>1023.522203</ele>
        <time>2022-08-22T23:23:11.569Z</time>
      </trkpt>
      <trkpt lat="47.8628" lon="7.91802">
        <ele>1021.383643</ele>
        <time>2022-08-22T23:23:15.163Z</time>
      </trkpt>
      <trkpt lat="47.86212" lon="7.91915">
        <ele>1016.038958</ele>
        <time>2022-08-22T23:23:24.816Z</time>
      </trkpt>
      <trkpt lat="47.86194" lon="7.91933">
        <ele>1014.924095</ele>
        <time>2022-08-22T23:23:26.962Z</time>
      </trkpt>
      <trkpt lat="47.86162" lon="7.91952">
        <ele>1012.691809</ele>
        <time>2022-08-22T23:23:30.538Z</time>
      </trkpt>
      <trkpt lat="47.86127" lon="7.91957">
        <ele>1010.088917</ele>
        <time>2022-08-22T23:23:34.071Z</time>
      </trkpt>
      <trkpt lat="47.86081" lon="7.91944">
        <ele>1006.672499</ele>
        <time>2022-08-22T23:23:38.129Z</time>
      </trkpt>
      <trkpt lat="47.8605" lon="7.91922">
        <ele>1004.112022</ele>
        <time>2022-08-22T23:23:41.121Z</time>
      </trkpt>
      <trkpt lat="47.86003" lon="7.91863">
        <ele>999.047653</ele>
        <time>2022-08-22T23:23:46.448Z</time>
      </trkpt>
      <trkpt lat="47.85971" lon="7.91837">
        <ele>995.184482</ele>
        <time>2022-08-22T23:23:49.590Z</time>
      </trkpt>
      <trkpt lat="47.85918" lon="7.91821">
        <ele>989.531693</ele>
        <time>2022-08-22T23:23:54.173Z</time>
      </trkpt>
      <trkpt lat="47.85883" lon="7.91825">
        <ele>985.8001</ele>
        <time>2022-08-22T23:23:57.181Z</time>
      </trkpt>
      <trkpt lat="47.85855" lon="7.91836">
        <ele>982.736852</ele>
        <time>2022-08-22T23:23:59.653Z</time>
      </trkpt>
      <trkpt lat="47.85851" lon="7.91837">
        <ele>982.310328</ele>
        <time>2022-08-22T23:23:59.995Z</time>
      </trkpt>
      <trkpt lat="47.85842" lon="7.91837">
        <ele>981.499421</ele>
        <time>2022-08-22T23:24:00.700Z</time>
      </trkpt>
      <trkpt lat="47.8583" lon="7.91836">
        <ele>980.622382</ele>
        <time>2022-08-22T23:24:01.728Z</time>
      </trkpt>
      <trkpt lat="47.85827" lon="7.91835">
        <ele>980.399226</ele>
        <time>2022-08-22T23:24:01.991Z</time>
      </trkpt>
      <trkpt lat="47.85781" lon="7.918">
        <ele>976.574276</ele>
        <time>2022-08-22T23:24:06.627Z</time>
      </trkpt>
      <trkpt lat="47.85766" lon="7.91787">
        <ele>975.366633</ele>
        <time>2022-08-22T23:24:08.143Z</time>
      </trkpt>
      <trkpt lat="47.85761" lon="7.91782">
        <ele>974.899362</ele>
        <time>2022-08-22T23:24:08.739Z</time>
      </trkpt>
      <trkpt lat="47.85738" lon="7.91763">
        <ele>972.959454</ele>
        <time>2022-08-22T23:24:11.201Z</time>
      </trkpt>
      <trkpt lat="47.85727" lon="7.91754">
        <ele>972.057785</ele>
        <time>2022-08-22T23:24:12.355Z</time>
      </trkpt>
      <trkpt lat="47.85721" lon="7.91749">
        <ele>971.562848</ele>
        <time>2022-08-22T23:24:12.993Z</time>
      </trkpt>
      <trkpt lat="47.85706" lon="7.91737">
        <ele>970.346191</ele>
        <time>2022-08-22T23:24:14.549Z</time>
      </trkpt>
      <trkpt lat="47.85672" lon="7.91719">
        <ele>967.768393</ele>
        <time>2022-08-22T23:24:17.872Z</time>
      </trkpt>
      <trkpt lat="47.85562" lon="7.91735">
        <ele>960.436127</ele>
        <time>2022-08-22T23:24:27.808Z</time>
      </trkpt>
      <trkpt lat="47.85505" lon="7.91756">
        <ele>956.463788</ele>
        <time>2022-08-22T23:24:33.221Z</time>
      </trkpt>
      <trkpt lat="47.85399" lon="7.91824">
        <ele>947.451804</ele>
        <time>2022-08-22T23:24:43.518Z</time>
      </trkpt>
      <trkpt lat="47.85367" lon="7.91855">
        <ele>944.470202</ele>
        <time>2022-08-22T23:24:46.846Z</time>
      </trkpt>
      <trkpt lat="47.85302" lon="7.91942">
        <ele>936.628189</ele>
        <time>2022-08-22T23:24:54.396Z</time>
      </trkpt>
      <trkpt lat="47.85196" lon="7.92123">
        <ele>922.512527</ele>
        <time>2022-08-22T23:25:08.374Z</time>
      </trkpt>
      <trkpt lat="47.85173" lon="7.9223">
        <ele>917.379225</ele>
        <time>2022-08-22T23:25:15.065Z</time>
      </trkpt>
      <trkpt lat="47.85128" lon="7.92303">
        <ele>912.974939</ele>
        <time>2022-08-22T23:25:21.384Z</time>
      </trkpt>
      <trkpt lat="47.85078" lon="7.92346">
        <ele>910.752934</ele>
        <time>2022-08-22T23:25:27.300Z</time>
      </trkpt>
      <trkpt lat="47.84981" lon="7.92411">
        <ele>906.69842</ele>
        <time>2022-08-22T23:25:37.979Z</time>
      </trkpt>
      <trkpt lat="47.84923" lon="7.92424">
        <ele>902.382546</ele>
        <time>2022-08-22T23:25:43.563Z</time>
      </trkpt>
      <trkpt lat="47.84847" lon="7.92466">
        <ele>895.827957</ele>
        <time>2022-08-22T23:25:50.739Z</time>
      </trkpt>
      <trkpt lat="47.84624" lon="7.92523">
        <ele>870.610868</ele>
        <time>2022-08-22T23:26:09.840Z</time>
      </trkpt>
      <trkpt lat="47.84562" lon="7.9256">
        <ele>862.580007</ele>
        <time>2022-08-22T23:26:15.483Z</time>
      </trkpt>
      <trkpt lat="47.84537" lon="7.92585">
        <ele>858.977434</ele>
        <time>2022-08-22T23:26:18.022Z</time>
      </trkpt>
      <trkpt lat="47.8441" lon="7.92846">
        <ele>835.704631</ele>
        <time>2022-08-22T23:26:36.456Z</time>
      </trkpt>
      <trkpt lat="47.84397" lon="7.92881">
        <ele>833.061291</ele>
        <time>2022-08-22T23:26:38.819Z</time>
      </trkpt>
      <trkpt lat="47.84382" lon="7.92952">
        <ele>829.327092</ele>
        <time>2022-08-22T23:26:43.313Z</time>
      </trkpt>
      <trkpt lat="47.84334" lon="7.93116">
        <ele>822.948301</ele>
        <time>2022-08-22T23:26:54.805Z</time>
      </trkpt>
      <trkpt lat="47.84245" lon="7.9335">
        <ele>813.282086</ele>
        <time>2022-08-22T23:27:11.798Z</time>
      </trkpt>
      <trkpt lat="47.84232" lon="7.93389">
        <ele>811.716437</ele>
        <time>2022-08-22T23:27:14.433Z</time>
      </trkpt>
      <trkpt lat="47.8422" lon="7.93391">
        <ele>810.930136</ele>
        <time>2022-08-22T23:27:15.605Z</time>
      </trkpt>
      <trkpt lat="47.84216" lon="7.93381">
        <ele>810.353932</ele>
        <time>2022-08-22T23:27:16.259Z</time>
      </trkpt>
      <trkpt lat="47.84221" lon="7.93358">
        <ele>809.17287</ele>
        <time>2022-08-22T23:27:17.756Z</time>
      </trkpt>
      <trkpt lat="47.84224" lon="7.9335">
        <ele>808.714954</ele>
        <time>2022-08-22T23:27:18.375Z</time>
      </trkpt>
      <trkpt lat="47.84244" lon="7.93296">
        <ele>805.660751</ele>
        <time>2022-08-22T23:27:22.113Z</time>
      </trkpt>
      <trkpt lat="47.84256" lon="7.93262">
        <ele>803.74858</ele>
        <time>2022-08-22T23:27:24.373Z</time>
      </trkpt>
      <trkpt lat="47.84265" lon="7.93234">
        <ele>802.236521</ele>
        <time>2022-08-22T23:27:26.153Z</time>
      </trkpt>
      <trkpt lat="47.84269" lon="7.93216">
        <ele>801.267208</ele>
        <time>2022-08-22T23:27:27.323Z</time>
      </trkpt>
      <trkpt lat="47.84273" lon="7.93198">
        <ele>800.333405</ele>
        <time>2022-08-22T23:27:28.485Z</time>
      </trkpt>
      <trkpt lat="47.84281" lon="7.93155">
        <ele>798.108139</ele>
        <time>2022-08-22T23:27:31.080Z</time>
      </trkpt>
      <trkpt lat="47.84284" lon="7.93135">
        <ele>797.093041</ele>
        <time>2022-08-22T23:27:32.275Z</time>
      </trkpt>
      <trkpt lat="47.84289" lon="7.93096">
        <ele>795.026585</ele>
        <time>2022-08-22T23:27:34.732Z</time>
      </trkpt>
      <trkpt lat="47.84292" lon="7.9305">
        <ele>792.65528</ele>
        <time>2022-08-22T23:27:37.540Z</time>
      </trkpt>
      <trkpt lat="47.84292" lon="7.93027">
        <ele>791.46787</ele>
        <time>2022-08-22T23:27:38.898Z</time>
      </trkpt>
      <trkpt lat="47.84292" lon="7.93002">
        <ele>790.183222</ele>
        <time>2022-08-22T23:27:40.376Z</time>
      </trkpt>
      <trkpt lat="47.84292" lon="7.92958">
        <ele>787.942587</ele>
        <time>2022-08-22T23:27:42.937Z</time>
      </trkpt>
      <trkpt lat="47.84292" lon="7.92938">
        <ele>786.919549</ele>
        <time>2022-08-22T23:27:44.133Z</time>
      </trkpt>
      <trkpt lat="47.84293" lon="7.92922">
        <ele>786.052167</ele>
        <time>2022-08-22T23:27:45.117Z</time>
      </trkpt>
      <trkpt lat="47.84309" lon="7.92859">
        <ele>782.919261</ele>
        <time>2022-08-22T23:27:49.116Z</time>
      </trkpt>
      <trkpt lat="47.84305" lon="7.92837">
        <ele>781.897468</ele>
        <time>2022-08-22T23:27:50.575Z</time>
      </trkpt>
      <trkpt lat="47.84298" lon="7.92835">
        <ele>781.46708</ele>
        <time>2022-08-22T23:27:51.162Z</time>
      </trkpt>
      <trkpt lat="47.84284" lon="7.92849">
        <ele>780.361515</ele>
        <time>2022-08-22T23:27:52.697Z</time>
      </trkpt>
      <trkpt lat="47.8426" lon="7.9292">
        <ele>776.876297</ele>
        <time>2022-08-22T23:27:57.642Z</time>
      </trkpt>
      <trkpt lat="47.84242" lon="7.93026">
        <ele>772.172184</ele>
        <time>2022-08-22T23:28:04.280Z</time>
      </trkpt>
      <trkpt lat="47.84215" lon="7.93089">
        <ele>769.038899</ele>
        <time>2022-08-22T23:28:08.869Z</time>
      </trkpt>
      <trkpt lat="47.84212" lon="7.93093">
        <ele>768.777688</ele>
        <time>2022-08-22T23:28:09.256Z</time>
      </trkpt>
      <trkpt lat="47.8418" lon="7.93162">
        <ele>765.2586</ele>
        <time>2022-08-22T23:28:14.488Z</time>
      </trkpt>
      <trkpt lat="47.84161" lon="7.93221">
        <ele>762.528205</ele>
        <time>2022-08-22T23:28:18.436Z</time>
      </trkpt>
      <trkpt lat="47.84153" lon="7.93246">
        <ele>761.384955</ele>
        <time>2022-08-22T23:28:20.105Z</time>
      </trkpt>
      <trkpt lat="47.84147" lon="7.93261">
        <ele>760.689646</ele>
        <time>2022-08-22T23:28:21.165Z</time>
      </trkpt>
      <trkpt lat="47.84138" lon="7.9328">
        <ele>759.774062</ele>
        <time>2022-08-22T23:28:22.562Z</time>
      </trkpt>
      <trkpt lat="47.84036" lon="7.93473">
        <ele>750.862402</ele>
        <time>2022-08-22T23:28:37.643Z</time>
      </trkpt>
      <trkpt lat="47.83976" lon="7.93621">
        <ele>749.160312</ele>
        <time>2022-08-22T23:28:51.548Z</time>
      </trkpt>
      <trkpt lat="47.83974" lon="7.93648">
        <ele>748.886386</ele>
        <time>2022-08-22T23:28:54.890Z</time>
      </trkpt>
      <trkpt lat="47.83984" lon="7.93697">
        <ele>748.383037</ele>
        <time>2022-08-22T23:29:00.309Z</time>
      </trkpt>
      <trkpt lat="47.83983" lon="7.93727">
        <ele>748.056979</ele>
        <time>2022-08-22T23:29:03.246Z</time>
      </trkpt>
      <trkpt lat="47.8398" lon="7.93735">
        <ele>747.962137</ele>
        <time>2022-08-22T23:29:04.319Z</time>
      </trkpt>
      <trkpt lat="47.83971" lon="7.93753">
        <ele>747.71573</ele>
        <time>2022-08-22T23:29:07.174Z</time>
      </trkpt>
      <trkpt lat="47.83958" lon="7.93763">
        <ele>747.47968</ele>
        <time>2022-08-22T23:29:08.702Z</time>
      </trkpt>
      <trkpt lat="47.83938" lon="7.93765">
        <ele>747.168702</ele>
        <time>2022-08-22T23:29:12.059Z</time>
      </trkpt>
      <trkpt lat="47.83844" lon="7.9375">
        <ele>745.640285</ele>
        <time>2022-08-22T23:29:22.640Z</time>
      </trkpt>
      <trkpt lat="47.83814" lon="7.93731">
        <ele>742.887835</ele>
        <time>2022-08-22T23:29:25.593Z</time>
      </trkpt>
      <trkpt lat="47.83764" lon="7.93683">
        <ele>737.305122</ele>
        <time>2022-08-22T23:29:30.757Z</time>
      </trkpt>
      <trkpt lat="47.83728" lon="7.93673">
        <ele>733.847508</ele>
        <time>2022-08-22T23:29:33.890Z</time>
      </trkpt>
      <trkpt lat="47.83666" lon="7.93701">
        <ele>727.38209</ele>
        <time>2022-08-22T23:29:39.371Z</time>
      </trkpt>
      <trkpt lat="47.8351" lon="7.93801">
        <ele>704.754418</ele>
        <time>2022-08-22T23:29:53.629Z</time>
      </trkpt>
      <trkpt lat="47.83483" lon="7.93813">
        <ele>701.707871</ele>
        <time>2022-08-22T23:29:55.951Z</time>
      </trkpt>
      <trkpt lat="47.83438" lon="7.93819">
        <ele>696.746933</ele>
        <time>2022-08-22T23:29:59.756Z</time>
      </trkpt>
      <trkpt lat="47.83433" lon="7.9382">
        <ele>696.207157</ele>
        <time>2022-08-22T23:30:00.172Z</time>
      </trkpt>
      <trkpt lat="47.83412" lon="7.9382">
        <ele>693.849698</ele>
        <time>2022-08-22T23:30:01.980Z</time>
      </trkpt>
      <trkpt lat="47.83401" lon="7.9382">
        <ele>692.648878</ele>
        <time>2022-08-22T23:30:02.925Z</time>
      </trkpt>
      <trkpt lat="47.83373" lon="7.93826">
        <ele>689.496221</ele>
        <time>2022-08-22T23:30:05.382Z</time>
      </trkpt>
      <trkpt lat="47.83363" lon="7.93829">
        <ele>688.450335</ele>
        <time>2022-08-22T23:30:06.212Z</time>
      </trkpt>
      <trkpt lat="47.83349" lon="7.93836">
        <ele>686.785299</ele>
        <time>2022-08-22T23:30:07.522Z</time>
      </trkpt>
      <trkpt lat="47.83324" lon="7.93849">
        <ele>684.192039</ele>
        <time>2022-08-22T23:30:09.810Z</time>
      </trkpt>
      <trkpt lat="47.8333" lon="7.93891">
        <ele>681.85831</ele>
        <time>2022-08-22T23:30:13.488Z</time>
      </trkpt>
      <trkpt lat="47.83319" lon="7.93915">
        <ele>680.335032</ele>
        <time>2022-08-22T23:30:15.848Z</time>
      </trkpt>
      <trkpt lat="47.83297" lon="7.93938">
        <ele>678.168316</ele>
        <time>2022-08-22T23:30:19.293Z</time>
      </trkpt>
      <trkpt lat="47.83261" lon="7.9395">
        <ele>675.176275</ele>
        <time>2022-08-22T23:30:24.010Z</time>
      </trkpt>
      <trkpt lat="47.83216" lon="7.93954">
        <ele>671.612275</ele>
        <time>2022-08-22T23:30:29.597Z</time>
      </trkpt>
      <trkpt lat="47.83197" lon="7.9397">
        <ele>669.934166</ele>
        <time>2022-08-22T23:30:32.370Z</time>
      </trkpt>
      <trkpt lat="47.8318" lon="7.94011">
        <ele>667.57704</ele>
        <time>2022-08-22T23:30:36.444Z</time>
      </trkpt>
      <trkpt lat="47.83155" lon="7.94112">
        <ele>662.34669</ele>
        <time>2022-08-22T23:30:45.591Z</time>
      </trkpt>
      <trkpt lat="47.8315" lon="7.94128">
        <ele>661.475089</ele>
        <time>2022-08-22T23:30:47.122Z</time>
      </trkpt>
      <trkpt lat="47.83146" lon="7.94147">
        <ele>660.504985</ele>
        <time>2022-08-22T23:30:48.831Z</time>
      </trkpt>
      <trkpt lat="47.83122" lon="7.94238">
        <ele>656.523365</ele>
        <time>2022-08-22T23:30:57.275Z</time>
      </trkpt>
      <trkpt lat="47.83107" lon="7.94419">
        <ele>651.489815</ele>
        <time>2022-08-22T23:31:14.415Z</time>
      </trkpt>
      <trkpt lat="47.83098" lon="7.94466">
        <ele>650.154307</ele>
        <time>2022-08-22T23:31:19.368Z</time>
      </trkpt>
      <trkpt lat="47.83096" lon="7.94523">
        <ele>649.879284</ele>
        <time>2022-08-22T23:31:25.887Z</time>
      </trkpt>
      <trkpt lat="47.83029" lon="7.94557">
        <ele>649.432477</ele>
        <time>2022-08-22T23:31:38.116Z</time>
      </trkpt>
      <trkpt lat="47.8304" lon="7.94602">
        <ele>649.231451</ele>
        <time>2022-08-22T23:31:43.905Z</time>
      </trkpt>
      <trkpt lat="47.83056" lon="7.94673">
        <ele>649.259094</ele>
        <time>2022-08-22T23:31:54.338Z</time>
      </trkpt>
      <trkpt lat="47.83058" lon="7.94689">
        <ele>649.532745</ele>
        <time>2022-08-22T23:31:56.580Z</time>
      </trkpt>
      <trkpt lat="47.82996" lon="7.94722">
        <ele>651.250639</ele>
        <time>2022-08-22T23:32:09.174Z</time>
      </trkpt>
      <trkpt lat="47.82952" lon="7.94742">
        <ele>652.443911</ele>
        <time>2022-08-22T23:32:18.472Z</time>
      </trkpt>
      <trkpt lat="47.82966" lon="7.94797">
        <ele>653.462679</ele>
        <time>2022-08-22T23:32:26.205Z</time>
      </trkpt>
      <trkpt lat="47.82974" lon="7.94842">
        <ele>654.950392</ele>
        <time>2022-08-22T23:32:32.093Z</time>
      </trkpt>
      <trkpt lat="47.82981" lon="7.94895">
        <ele>656.906892</ele>
        <time>2022-08-22T23:32:39.731Z</time>
      </trkpt>
      <trkpt lat="47.82996" lon="7.94887">
        <ele>657.792147</ele>
        <time>2022-08-22T23:32:43.779Z</time>
      </trkpt>
      <trkpt lat="47.83004" lon="7.94928">
        <ele>659.342463</ele>
        <time>2022-08-22T23:32:51.702Z</time>
      </trkpt>
      <trkpt lat="47.83008" lon="7.94951">
        <ele>660.205355</ele>
        <time>2022-08-22T23:32:56.134Z</time>
      </trkpt>
      <trkpt lat="47.83004" lon="7.94928">
        <ele>661.068247</ele>
        <time>2022-08-22T23:33:00.647Z</time>
      </trkpt>
      <trkpt lat="47.82996" lon="7.94887">
        <ele>662.618563</ele>
        <time>2022-08-22T23:33:08.794Z</time>
      </trkpt>
      <trkpt lat="47.82981" lon="7.94895">
        <ele>663.569797</ele>
        <time>2022-08-22T23:33:13.532Z</time>
      </trkpt>
      <trkpt lat="47.83005" lon="7.9501">
        <ele>669.899817</ele>
        <time>2022-08-22T23:33:35.881Z</time>
      </trkpt>
      <trkpt lat="47.83056" lon="7.9515">
        <ele>678.118846</ele>
        <time>2022-08-22T23:34:06.309Z</time>
      </trkpt>
      <trkpt lat="47.83132" lon="7.95331">
        <ele>687.480692</ele>
        <time>2022-08-22T23:34:42.652Z</time>
      </trkpt>
      <trkpt lat="47.83151" lon="7.95374">
        <ele>689.628375</ele>
        <time>2022-08-22T23:34:50.173Z</time>
      </trkpt>
      <trkpt lat="47.83166" lon="7.95418">
        <ele>691.509375</ele>
        <time>2022-08-22T23:34:57.509Z</time>
      </trkpt>
      <trkpt lat="47.83187" lon="7.95502">
        <ele>694.903986</ele>
        <time>2022-08-22T23:35:10.831Z</time>
      </trkpt>
      <trkpt lat="47.8322" lon="7.95604">
        <ele>699.165478</ele>
        <time>2022-08-22T23:35:29.340Z</time>
      </trkpt>
      <trkpt lat="47.83251" lon="7.95662">
        <ele>702.941033</ele>
        <time>2022-08-22T23:35:42.443Z</time>
      </trkpt>
      <trkpt lat="47.83266" lon="7.95693">
        <ele>704.916045</ele>
        <time>2022-08-22T23:35:49.412Z</time>
      </trkpt>
      <trkpt lat="47.83268" lon="7.95686">
        <ele>705.289894</ele>
        <time>2022-08-22T23:35:54.257Z</time>
      </trkpt>
      <trkpt lat="47.83277" lon="7.95707">
        <ele>706.60805</ele>
        <time>2022-08-22T23:35:59.464Z</time>
      </trkpt>
      <trkpt lat="47.83289" lon="7.95756">
        <ele>709.249426</ele>
        <time>2022-08-22T23:36:08.874Z</time>
      </trkpt>
      <trkpt lat="47.83288" lon="7.9581">
        <ele>712.033554</ele>
        <time>2022-08-22T23:36:20.652Z</time>
      </trkpt>
      <trkpt lat="47.83275" lon="7.95853">
        <ele>713.920475</ele>
        <time>2022-08-22T23:36:29.135Z</time>
      </trkpt>
      <trkpt lat="47.83224" lon="7.95936">
        <ele>717.350164</ele>
        <time>2022-08-22T23:36:47.769Z</time>
      </trkpt>
      <trkpt lat="47.83215" lon="7.95979">
        <ele>718.73318</ele>
        <time>2022-08-22T23:36:53.768Z</time>
      </trkpt>
      <trkpt lat="47.83208" lon="7.95978">
        <ele>719.051597</ele>
        <time>2022-08-22T23:36:55.384Z</time>
      </trkpt>
      <trkpt lat="47.83201" lon="7.96016">
        <ele>720.264423</ele>
        <time>2022-08-22T23:36:59.663Z</time>
      </trkpt>
      <trkpt lat="47.83195" lon="7.96036">
        <ele>720.952679</ele>
        <time>2022-08-22T23:37:02.425Z</time>
      </trkpt>
      <trkpt lat="47.8312" lon="7.96187">
        <ele>721.807072</ele>
        <time>2022-08-22T23:37:22.510Z</time>
      </trkpt>
      <trkpt lat="47.83104" lon="7.96235">
        <ele>721.964038</ele>
        <time>2022-08-22T23:37:27.247Z</time>
      </trkpt>
      <trkpt lat="47.83089" lon="7.96316">
        <ele>722.203513</ele>
        <time>2022-08-22T23:37:36.350Z</time>
      </trkpt>
      <trkpt lat="47.83087" lon="7.96386">
        <ele>722.394062</ele>
        <time>2022-08-22T23:37:43.823Z</time>
      </trkpt>
      <trkpt lat="47.83102" lon="7.96484">
        <ele>722.66853</ele>
        <time>2022-08-22T23:37:54.637Z</time>
      </trkpt>
      <trkpt lat="47.83137" lon="7.96618">
        <ele>723.191287</ele>
        <time>2022-08-22T23:38:07.898Z</time>
      </trkpt>
      <trkpt lat="47.83156" lon="7.96667">
        <ele>723.426567</ele>
        <time>2022-08-22T23:38:13.756Z</time>
      </trkpt>
      <trkpt lat="47.8321" lon="7.96788">
        <ele>724.358523</ele>
        <time>2022-08-22T23:38:30.267Z</time>
      </trkpt>
      <trkpt lat="47.83329" lon="7.97015">
        <ele>728.899741</ele>
        <time>2022-08-22T23:39:07.673Z</time>
      </trkpt>
      <trkpt lat="47.83374" lon="7.97097">
        <ele>730.100109</ele>
        <time>2022-08-22T23:39:19.977Z</time>
      </trkpt>
      <trkpt lat="47.83394" lon="7.97124">
        <ele>730.544049</ele>
        <time>2022-08-22T23:39:24.427Z</time>
      </trkpt>
      <trkpt lat="47.83425" lon="7.97157">
        <ele>731.192057</ele>
        <time>2022-08-22T23:39:30.864Z</time>
      </trkpt>
      <trkpt lat="47.83457" lon="7.97178">
        <ele>732.053736</ele>
        <time>2022-08-22T23:39:36.685Z</time>
      </trkpt>
      <trkpt lat="47.83484" lon="7.97186">
        <ele>732.842538</ele>
        <time>2022-08-22T23:39:41.590Z</time>
      </trkpt>
      <trkpt lat="47.8358" lon="7.97207">
        <ele>735.616262</ele>
        <time>2022-08-22T23:40:00.475Z</time>
      </trkpt>
      <trkpt lat="47.83626" lon="7.97226">
        <ele>737.392696</ele>
        <time>2022-08-22T23:40:10.843Z</time>
      </trkpt>
      <trkpt lat="47.83636" lon="7.97232">
        <ele>737.949608</ele>
        <time>2022-08-22T23:40:13.162Z</time>
      </trkpt>
      <trkpt lat="47.83647" lon="7.9724">
        <ele>738.651131</ele>
        <time>2022-08-22T23:40:16.079Z</time>
      </trkpt>
      <trkpt lat="47.83706" lon="7.97275">
        <ele>742.128087</ele>
        <time>2022-08-22T23:40:31.024Z</time>
      </trkpt>
      <trkpt lat="47.83794" lon="7.97286">
        <ele>746.830632</ele>
        <time>2022-08-22T23:40:52.759Z</time>
      </trkpt>
      <trkpt lat="47.83827" lon="7.97296">
        <ele>748.22387</ele>
        <time>2022-08-22T23:41:00.425Z</time>
      </trkpt>
      <trkpt lat="47.83883" lon="7.97324">
        <ele>750.613436</ele>
        <time>2022-08-22T23:41:13.018Z</time>
      </trkpt>
      <trkpt lat="47.83909" lon="7.97331">
        <ele>751.693074</ele>
        <time>2022-08-22T23:41:18.403Z</time>
      </trkpt>
      <trkpt lat="47.83923" lon="7.97335">
        <ele>752.285762</ele>
        <time>2022-08-22T23:41:21.281Z</time>
      </trkpt>
      <trkpt lat="47.83994" lon="7.97355">
        <ele>754.706712</ele>
        <time>2022-08-22T23:41:34.905Z</time>
      </trkpt>
      <trkpt lat="47.8406" lon="7.97371">
        <ele>756.439886</ele>
        <time>2022-08-22T23:41:46.773Z</time>
      </trkpt>
      <trkpt lat="47.84079" lon="7.97373">
        <ele>756.9385</ele>
        <time>2022-08-22T23:41:50.211Z</time>
      </trkpt>
      <trkpt lat="47.84113" lon="7.97376">
        <ele>757.820357</ele>
        <time>2022-08-22T23:41:56.699Z</time>
      </trkpt>
      <trkpt lat="47.84149" lon="7.97383">
        <ele>759.212056</ele>
        <time>2022-08-22T23:42:04.090Z</time>
      </trkpt>
      <trkpt lat="47.84179" lon="7.97399">
        <ele>761.213967</ele>
        <time>2022-08-22T23:42:10.948Z</time>
      </trkpt>
      <trkpt lat="47.84267" lon="7.97468">
        <ele>767.41252</ele>
        <time>2022-08-22T23:42:35.521Z</time>
      </trkpt>
      <trkpt lat="47.84319" lon="7.9751">
        <ele>772.015335</ele>
        <time>2022-08-22T23:42:52.722Z</time>
      </trkpt>
      <trkpt lat="47.84331" lon="7.9752">
        <ele>773.395331</ele>
        <time>2022-08-22T23:42:56.855Z</time>
      </trkpt>
      <trkpt lat="47.8436" lon="7.97547">
        <ele>776.849739</ele>
        <time>2022-08-22T23:43:07.723Z</time>
      </trkpt>
      <trkpt lat="47.84382" lon="7.97591">
        <ele>780.609752</ele>
        <time>2022-08-22T23:43:20.773Z</time>
      </trkpt>
      <trkpt lat="47.84389" lon="7.9762">
        <ele>782.703932</ele>
        <time>2022-08-22T23:43:27.666Z</time>
      </trkpt>
      <trkpt lat="47.84404" lon="7.97759">
        <ele>792.088698</ele>
        <time>2022-08-22T23:43:58.934Z</time>
      </trkpt>
      <trkpt lat="47.84397" lon="7.97757">
        <ele>792.722539</ele>
        <time>2022-08-22T23:44:00.953Z</time>
      </trkpt>
      <trkpt lat="47.84402" lon="7.97783">
        <ele>794.408401</ele>
        <time>2022-08-22T23:44:07.428Z</time>
      </trkpt>
      <trkpt lat="47.84435" lon="7.9788">
        <ele>801.473115</ele>
        <time>2022-08-22T23:44:30.192Z</time>
      </trkpt>
      <trkpt lat="47.84457" lon="7.97967">
        <ele>807.161219</ele>
        <time>2022-08-22T23:44:46.716Z</time>
      </trkpt>
      <trkpt lat="47.84461" lon="7.97965">
        <ele>807.477252</ele>
        <time>2022-08-22T23:44:48.783Z</time>
      </trkpt>
      <trkpt lat="47.84491" lon="7.98134">
        <ele>816.977673</ele>
        <time>2022-08-22T23:45:22.385Z</time>
      </trkpt>
      <trkpt lat="47.84499" lon="7.98137">
        <ele>817.654219</ele>
        <time>2022-08-22T23:45:24.137Z</time>
      </trkpt>
      <trkpt lat="47.84504" lon="7.98161">
        <ele>818.998231</ele>
        <time>2022-08-22T23:45:29.257Z</time>
      </trkpt>
      <trkpt lat="47.845" lon="7.98203">
        <ele>821.269982</ele>
        <time>2022-08-22T23:45:36.411Z</time>
      </trkpt>
      <trkpt lat="47.84497" lon="7.98263">
        <ele>824.486563</ele>
        <time>2022-08-22T23:45:46.986Z</time>
      </trkpt>
      <trkpt lat="47.84503" lon="7.98295">
        <ele>826.267252</ele>
        <time>2022-08-22T23:45:52.367Z</time>
      </trkpt>
      <trkpt lat="47.84522" lon="7.98346">
        <ele>829.395107</ele>
        <time>2022-08-22T23:46:02.452Z</time>
      </trkpt>
      <trkpt lat="47.8454" lon="7.98375">
        <ele>831.548813</ele>
        <time>2022-08-22T23:46:11.297Z</time>
      </trkpt>
      <trkpt lat="47.8456" lon="7.98411">
        <ele>834.067978</ele>
        <time>2022-08-22T23:46:21.873Z</time>
      </trkpt>
      <trkpt lat="47.84586" lon="7.98504">
        <ele>840.356015</ele>
        <time>2022-08-22T23:46:41.387Z</time>
      </trkpt>
      <trkpt lat="47.84597" lon="7.98534">
        <ele>842.492075</ele>
        <time>2022-08-22T23:46:47.874Z</time>
      </trkpt>
      <trkpt lat="47.84598" lon="7.9856">
        <ele>844.193271</ele>
        <time>2022-08-22T23:46:52.594Z</time>
      </trkpt>
      <trkpt lat="47.84602" lon="7.98583">
        <ele>845.626133</ele>
        <time>2022-08-22T23:47:00.302Z</time>
      </trkpt>
      <trkpt lat="47.84634" lon="7.98658">
        <ele>851.22082</ele>
        <time>2022-08-22T23:47:18.330Z</time>
      </trkpt>
      <trkpt lat="47.8465" lon="7.98736">
        <ele>853.935739</ele>
        <time>2022-08-22T23:47:33.822Z</time>
      </trkpt>
      <trkpt lat="47.84651" lon="7.98765">
        <ele>854.862804</ele>
        <time>2022-08-22T23:47:37.788Z</time>
      </trkpt>
      <trkpt lat="47.84647" lon="7.98767">
        <ele>855.074584</ele>
        <time>2022-08-22T23:47:40.418Z</time>
      </trkpt>
      <trkpt lat="47.84658" lon="7.98809">
        <ele>856.585837</ele>
        <time>2022-08-22T23:47:45.464Z</time>
      </trkpt>
      <trkpt lat="47.84669" lon="7.98829">
        <ele>857.420037</ele>
        <time>2022-08-22T23:47:49.420Z</time>
      </trkpt>
      <trkpt lat="47.84721" lon="7.98859">
        <ele>859.976079</ele>
        <time>2022-08-22T23:47:58.898Z</time>
      </trkpt>
      <trkpt lat="47.84738" lon="7.98872">
        <ele>859.649572</ele>
        <time>2022-08-22T23:48:02.500Z</time>
      </trkpt>
      <trkpt lat="47.84756" lon="7.98897">
        <ele>859.219091</ele>
        <time>2022-08-22T23:48:07.130Z</time>
      </trkpt>
      <trkpt lat="47.84804" lon="7.98978">
        <ele>857.9786</ele>
        <time>2022-08-22T23:48:14.256Z</time>
      </trkpt>
      <trkpt lat="47.84833" lon="7.99033">
        <ele>857.16324</ele>
        <time>2022-08-22T23:48:18.883Z</time>
      </trkpt>
      <trkpt lat="47.84856" lon="7.99096">
        <ele>857.211002</ele>
        <time>2022-08-22T23:48:24.159Z</time>
      </trkpt>
      <trkpt lat="47.84874" lon="7.99123">
        <ele>857.427243</ele>
        <time>2022-08-22T23:48:27.041Z</time>
      </trkpt>
      <trkpt lat="47.84894" lon="7.99133">
        <ele>857.60654</ele>
        <time>2022-08-22T23:48:29.802Z</time>
      </trkpt>
      <trkpt lat="47.8495" lon="7.99133">
        <ele>858.084392</ele>
        <time>2022-08-22T23:48:39.427Z</time>
      </trkpt>
      <trkpt lat="47.84977" lon="7.99155">
        <ele>858.341407</ele>
        <time>2022-08-22T23:48:45.730Z</time>
      </trkpt>
      <trkpt lat="47.85011" lon="7.99213">
        <ele>861.530949</ele>
        <time>2022-08-22T23:48:57.675Z</time>
      </trkpt>
      <trkpt lat="47.85026" lon="7.99253">
        <ele>863.918975</ele>
        <time>2022-08-22T23:49:05.938Z</time>
      </trkpt>
      <trkpt lat="47.85047" lon="7.99359">
        <ele>869.729374</ele>
        <time>2022-08-22T23:49:29.019Z</time>
      </trkpt>
      <trkpt lat="47.85082" lon="7.99437">
        <ele>873.888542</ele>
        <time>2022-08-22T23:49:48.341Z</time>
      </trkpt>
      <trkpt lat="47.8511" lon="7.99477">
        <ele>875.890508</ele>
        <time>2022-08-22T23:49:58.446Z</time>
      </trkpt>
      <trkpt lat="47.85206" lon="7.9957">
        <ele>881.858828</ele>
        <time>2022-08-22T23:50:22.042Z</time>
      </trkpt>
      <trkpt lat="47.85263" lon="7.99644">
        <ele>884.411351</ele>
        <time>2022-08-22T23:50:34.865Z</time>
      </trkpt>
      <trkpt lat="47.85275" lon="7.9966">
        <ele>884.968109</ele>
        <time>2022-08-22T23:50:37.481Z</time>
      </trkpt>
      <trkpt lat="47.85338" lon="7.99705">
        <ele>887.331064</ele>
        <time>2022-08-22T23:50:52.473Z</time>
      </trkpt>
      <trkpt lat="47.85365" lon="7.99747">
        <ele>889.948878</ele>
        <time>2022-08-22T23:51:01.842Z</time>
      </trkpt>
      <trkpt lat="47.85388" lon="7.99811">
        <ele>894.56741</ele>
        <time>2022-08-22T23:51:14.772Z</time>
      </trkpt>
      <trkpt lat="47.85416" lon="7.99954">
        <ele>903.99803</ele>
        <time>2022-08-22T23:51:49.637Z</time>
      </trkpt>
      <trkpt lat="47.85428" lon="7.99989">
        <ele>906.585058</ele>
        <time>2022-08-22T23:51:59.278Z</time>
      </trkpt>
      <trkpt lat="47.85487" lon="8.00122">
        <ele>917.706393</ele>
        <time>2022-08-22T23:52:35.203Z</time>
      </trkpt>
      <trkpt lat="47.85539" lon="8.00238">
        <ele>926.614391</ele>
        <time>2022-08-22T23:53:03.252Z</time>
      </trkpt>
      <trkpt lat="47.85588" lon="8.00324">
        <ele>932.816073</ele>
        <time>2022-08-22T23:53:23.588Z</time>
      </trkpt>
      <trkpt lat="47.85644" lon="8.0048">
        <ele>941.018939</ele>
        <time>2022-08-22T23:53:57.444Z</time>
      </trkpt>
      <trkpt lat="47.85649" lon="8.00496">
        <ele>941.625715</ele>
        <time>2022-08-22T23:54:00.622Z</time>
      </trkpt>
      <trkpt lat="47.85661" lon="8.00538">
        <ele>943.23319</ele>
        <time>2022-08-22T23:54:08.003Z</time>
      </trkpt>
      <trkpt lat="47.85671" lon="8.00609">
        <ele>945.740757</ele>
        <time>2022-08-22T23:54:18.070Z</time>
      </trkpt>
      <trkpt lat="47.8568" lon="8.00632">
        <ele>946.667029</ele>
        <time>2022-08-22T23:54:21.117Z</time>
      </trkpt>
      <trkpt lat="47.85699" lon="8.00663">
        <ele>947.681848</ele>
        <time>2022-08-22T23:54:26.462Z</time>
      </trkpt>
      <trkpt lat="47.85721" lon="8.00677">
        <ele>947.750682</ele>
        <time>2022-08-22T23:54:30.667Z</time>
      </trkpt>
      <trkpt lat="47.85731" lon="8.0068">
        <ele>947.778187</ele>
        <time>2022-08-22T23:54:32.184Z</time>
      </trkpt>
      <trkpt lat="47.85738" lon="8.00681">
        <ele>947.800571</ele>
        <time>2022-08-22T23:54:33.168Z</time>
      </trkpt>
      <trkpt lat="47.85765" lon="8.00666">
        <ele>947.884358</ele>
        <time>2022-08-22T23:54:37.800Z</time>
      </trkpt>
      <trkpt lat="47.85771" lon="8.00659">
        <ele>947.905007</ele>
        <time>2022-08-22T23:54:38.669Z</time>
      </trkpt>
      <trkpt lat="47.85775" lon="8.00652">
        <ele>947.923977</ele>
        <time>2022-08-22T23:54:39.530Z</time>
      </trkpt>
      <trkpt lat="47.85785" lon="8.00612">
        <ele>948.006678</ele>
        <time>2022-08-22T23:54:43.116Z</time>
      </trkpt>
      <trkpt lat="47.85784" lon="8.00555">
        <ele>948.118179</ele>
        <time>2022-08-22T23:54:47.676Z</time>
      </trkpt>
      <trkpt lat="47.85775" lon="8.00541">
        <ele>948.155745</ele>
        <time>2022-08-22T23:54:49.271Z</time>
      </trkpt>
      <trkpt lat="47.85764" lon="8.00487">
        <ele>949.148031</ele>
        <time>2022-08-22T23:54:54.813Z</time>
      </trkpt>
      <trkpt lat="47.85778" lon="8.00405">
        <ele>950.928959</ele>
        <time>2022-08-22T23:55:04.985Z</time>
      </trkpt>
      <trkpt lat="47.85775" lon="8.00295">
        <ele>953.250886</ele>
        <time>2022-08-22T23:55:21.023Z</time>
      </trkpt>
      <trkpt lat="47.8579" lon="8.00205">
        <ele>957.512368</ele>
        <time>2022-08-22T23:55:37.194Z</time>
      </trkpt>
      <trkpt lat="47.85798" lon="8.00089">
        <ele>963.996075</ele>
        <time>2022-08-22T23:55:59.444Z</time>
      </trkpt>
      <trkpt lat="47.8584" lon="7.99929">
        <ele>974.340399</ele>
        <time>2022-08-22T23:56:35.936Z</time>
      </trkpt>
      <trkpt lat="47.85852" lon="7.99864">
        <ele>978.715212</ele>
        <time>2022-08-22T23:56:51.438Z</time>
      </trkpt>
      <trkpt lat="47.85855" lon="7.99829">
        <ele>980.96505</ele>
        <time>2022-08-22T23:56:59.237Z</time>
      </trkpt>
      <trkpt lat="47.85856" lon="7.99809">
        <ele>982.304659</ele>
        <time>2022-08-22T23:57:03.236Z</time>
      </trkpt>
      <trkpt lat="47.85864" lon="7.99749">
        <ele>986.18765</ele>
        <time>2022-08-22T23:57:14.800Z</time>
      </trkpt>
      <trkpt lat="47.85873" lon="7.99742">
        <ele>986.870429</ele>
        <time>2022-08-22T23:57:17.811Z</time>
      </trkpt>
      <trkpt lat="47.85885" lon="7.99742">
        <ele>987.703335</ele>
        <time>2022-08-22T23:57:21.175Z</time>
      </trkpt>
      <trkpt lat="47.85897" lon="7.99755">
        <ele>988.650085</ele>
        <time>2022-08-22T23:57:24.724Z</time>
      </trkpt>
      <trkpt lat="47.859" lon="7.99768">
        <ele>989.242501</ele>
        <time>2022-08-22T23:57:27.089Z</time>
      </trkpt>
      <trkpt lat="47.85883" lon="7.99846">
        <ele>992.858064</ele>
        <time>2022-08-22T23:57:40.631Z</time>
      </trkpt>
      <trkpt lat="47.85877" lon="7.99905">
        <ele>995.499378</ele>
        <time>2022-08-22T23:57:50.595Z</time>
      </trkpt>
      <trkpt lat="47.85863" lon="8.00088">
        <ele>1003.651169</ele>
        <time>2022-08-22T23:58:19.317Z</time>
      </trkpt>
      <trkpt lat="47.85861" lon="8.00152">
        <ele>1006.510187</ele>
        <time>2022-08-22T23:58:30.693Z</time>
      </trkpt>
      <trkpt lat="47.85863" lon="8.00183">
        <ele>1007.936098</ele>
        <time>2022-08-22T23:58:36.638Z</time>
      </trkpt>
      <trkpt lat="47.85896" lon="8.00411">
        <ele>1020.219137</ele>
        <time>2022-08-22T23:59:19.365Z</time>
      </trkpt>
      <trkpt lat="47.85919" lon="8.00521">
        <ele>1027.396558</ele>
        <time>2022-08-22T23:59:41.515Z</time>
      </trkpt>
      <trkpt lat="47.85952" lon="8.00609">
        <ele>1035.327115</ele>
        <time>2022-08-23T00:00:05.066Z</time>
      </trkpt>
      <trkpt lat="47.85969" lon="8.00645">
        <ele>1038.882923</ele>
        <time>2022-08-23T00:00:14.776Z</time>
      </trkpt>
      <trkpt lat="47.8599" lon="8.00671">
        <ele>1042.038581</ele>
        <time>2022-08-23T00:00:26.690Z</time>
      </trkpt>
      <trkpt lat="47.86028" lon="8.00687">
        <ele>1046.901705</ele>
        <time>2022-08-23T00:00:43.105Z</time>
      </trkpt>
      <trkpt lat="47.86107" lon="8.00666">
        <ele>1059.208802</ele>
        <time>2022-08-23T00:01:15.419Z</time>
      </trkpt>
      <trkpt lat="47.86122" lon="8.00669">
        <ele>1061.474809</ele>
        <time>2022-08-23T00:01:23.844Z</time>
      </trkpt>
      <trkpt lat="47.8614" lon="8.00683">
        <ele>1064.542032</ele>
        <time>2022-08-23T00:01:31.282Z</time>
      </trkpt>
      <trkpt lat="47.86156" lon="8.00709">
        <ele>1068.227439</ele>
        <time>2022-08-23T00:01:43.842Z</time>
      </trkpt>
      <trkpt lat="47.86164" lon="8.00739">
        <ele>1071.559167</ele>
        <time>2022-08-23T00:01:52.601Z</time>
      </trkpt>
      <trkpt lat="47.86166" lon="8.00832">
        <ele>1083.15477</ele>
        <time>2022-08-23T00:02:19.132Z</time>
      </trkpt>
      <trkpt lat="47.86171" lon="8.01183">
        <ele>1126.634681</ele>
        <time>2022-08-23T00:04:31.919Z</time>
      </trkpt>
      <trkpt lat="47.86159" lon="8.01229">
        <ele>1132.38967</ele>
        <time>2022-08-23T00:04:46.305Z</time>
      </trkpt>
      <trkpt lat="47.86145" lon="8.01254">
        <ele>1136.224366</ele>
        <time>2022-08-23T00:04:53.217Z</time>
      </trkpt>
      <trkpt lat="47.8613" lon="8.01269">
        <ele>1139.219257</ele>
        <time>2022-08-23T00:05:00.535Z</time>
      </trkpt>
      <trkpt lat="47.86107" lon="8.01278">
        <ele>1140.606543</ele>
        <time>2022-08-23T00:05:07.807Z</time>
      </trkpt>
      <trkpt lat="47.8609" lon="8.01277">
        <ele>1141.538763</ele>
        <time>2022-08-23T00:05:12.918Z</time>
      </trkpt>
      <trkpt lat="47.86073" lon="8.01271">
        <ele>1142.565515</ele>
        <time>2022-08-23T00:05:17.498Z</time>
      </trkpt>
      <trkpt lat="47.86012" lon="8.0126">
        <ele>1146.080878</ele>
        <time>2022-08-23T00:05:31.484Z</time>
      </trkpt>
      <trkpt lat="47.85994" lon="8.01266">
        <ele>1147.125975</ele>
        <time>2022-08-23T00:05:35.200Z</time>
      </trkpt>
      <trkpt lat="47.85976" lon="8.01282">
        <ele>1148.298188</ele>
        <time>2022-08-23T00:05:38.652Z</time>
      </trkpt>
      <trkpt lat="47.85941" lon="8.01357">
        <ele>1151.108138</ele>
        <time>2022-08-23T00:05:47.872Z</time>
      </trkpt>
      <trkpt lat="47.85901" lon="8.01502">
        <ele>1155.286834</ele>
        <time>2022-08-23T00:06:11.030Z</time>
      </trkpt>
      <trkpt lat="47.85865" lon="8.01631">
        <ele>1159.988601</ele>
        <time>2022-08-23T00:06:33.818Z</time>
      </trkpt>
      <trkpt lat="47.85817" lon="8.01767">
        <ele>1165.752622</ele>
        <time>2022-08-23T00:06:57.055Z</time>
      </trkpt>
      <trkpt lat="47.85799" lon="8.01842">
        <ele>1169.988731</ele>
        <time>2022-08-23T00:07:09.814Z</time>
      </trkpt>
      <trkpt lat="47.85775" lon="8.01987">
        <ele>1178.855678</ele>
        <time>2022-08-23T00:07:38.418Z</time>
      </trkpt>
      <trkpt lat="47.85761" lon="8.02117">
        <ele>1189.191712</ele>
        <time>2022-08-23T00:08:11.583Z</time>
      </trkpt>
      <trkpt lat="47.85748" lon="8.02213">
        <ele>1198.416082</ele>
        <time>2022-08-23T00:08:39.306Z</time>
      </trkpt>
      <trkpt lat="47.85728" lon="8.02345">
        <ele>1210.783452</ele>
        <time>2022-08-23T00:09:19.083Z</time>
      </trkpt>
      <trkpt lat="47.85698" lon="8.02484">
        <ele>1222.243766</ele>
        <time>2022-08-23T00:09:56.834Z</time>
      </trkpt>
      <trkpt lat="47.85684" lon="8.02551">
        <ele>1227.759424</ele>
        <time>2022-08-23T00:10:11.392Z</time>
      </trkpt>
      <trkpt lat="47.85682" lon="8.02565">
        <ele>1228.91961</ele>
        <time>2022-08-23T00:10:13.927Z</time>
      </trkpt>
      <trkpt lat="47.85674" lon="8.02614">
        <ele>1229.958851</ele>
        <time>2022-08-23T00:10:22.140Z</time>
      </trkpt>
      <trkpt lat="47.85668" lon="8.02648">
        <ele>1230.521105</ele>
        <time>2022-08-23T00:10:27.325Z</time>
      </trkpt>
      <trkpt lat="47.85662" lon="8.02688">
        <ele>1231.178277</ele>
        <time>2022-08-23T00:10:32.845Z</time>
      </trkpt>
      <trkpt lat="47.85652" lon="8.02759">
        <ele>1232.334454</ele>
        <time>2022-08-23T00:10:41.220Z</time>
      </trkpt>
      <trkpt lat="47.85651" lon="8.02762">
        <ele>1232.378501</ele>
        <time>2022-08-23T00:10:41.450Z</time>
      </trkpt>
      <trkpt lat="47.85645" lon="8.02801">
        <ele>1233.011779</ele>
        <time>2022-08-23T00:10:44.681Z</time>
      </trkpt>
      <trkpt lat="47.85636" lon="8.02858">
        <ele>1232.852839</ele>
        <time>2022-08-23T00:10:48.874Z</time>
      </trkpt>
      <trkpt lat="47.85634" lon="8.02883">
        <ele>1232.303967</ele>
        <time>2022-08-23T00:10:50.592Z</time>
      </trkpt>
      <trkpt lat="47.85631" lon="8.02933">
        <ele>1231.214196</ele>
        <time>2022-08-23T00:10:53.942Z</time>
      </trkpt>
      <trkpt lat="47.85632" lon="8.02966">
        <ele>1230.495073</ele>
        <time>2022-08-23T00:10:56.128Z</time>
      </trkpt>
      <trkpt lat="47.85645" lon="8.0306">
        <ele>1228.42915</ele>
        <time>2022-08-23T00:11:02.427Z</time>
      </trkpt>
      <trkpt lat="47.85652" lon="8.03119">
        <ele>1227.272737</ele>
        <time>2022-08-23T00:11:06.523Z</time>
      </trkpt>
      <trkpt lat="47.85651" lon="8.03144">
        <ele>1226.883005</ele>
        <time>2022-08-23T00:11:08.210Z</time>
      </trkpt>
      <trkpt lat="47.85646" lon="8.03179">
        <ele>1226.318983</ele>
        <time>2022-08-23T00:11:10.676Z</time>
      </trkpt>
      <trkpt lat="47.85641" lon="8.03199">
        <ele>1225.984559</ele>
        <time>2022-08-23T00:11:12.126Z</time>
      </trkpt>
      <trkpt lat="47.85632" lon="8.03234">
        <ele>1225.394481</ele>
        <time>2022-08-23T00:11:14.770Z</time>
      </trkpt>
      <trkpt lat="47.85611" lon="8.03306">
        <ele>1224.149898</ele>
        <time>2022-08-23T00:11:20.594Z</time>
      </trkpt>
      <trkpt lat="47.85586" lon="8.03403">
        <ele>1223.364989</ele>
        <time>2022-08-23T00:11:28.848Z</time>
      </trkpt>
      <trkpt lat="47.8558" lon="8.03505">
        <ele>1223.226032</ele>
        <time>2022-08-23T00:11:38.314Z</time>
      </trkpt>
      <trkpt lat="47.85595" lon="8.03591">
        <ele>1223.105558</ele>
        <time>2022-08-23T00:11:47.883Z</time>
      </trkpt>
      <trkpt lat="47.85652" lon="8.03762">
        <ele>1223.620186</ele>
        <time>2022-08-23T00:12:09.574Z</time>
      </trkpt>
      <trkpt lat="47.85655" lon="8.03807">
        <ele>1223.759279</ele>
        <time>2022-08-23T00:12:14.412Z</time>
      </trkpt>
      <trkpt lat="47.85636" lon="8.03898">
        <ele>1223.364622</ele>
        <time>2022-08-23T00:12:22.347Z</time>
      </trkpt>
      <trkpt lat="47.85609" lon="8.04003">
        <ele>1222.052769</ele>
        <time>2022-08-23T00:12:30.421Z</time>
      </trkpt>
      <trkpt lat="47.856" lon="8.04078">
        <ele>1221.15515</ele>
        <time>2022-08-23T00:12:36.012Z</time>
      </trkpt>
      <trkpt lat="47.85608" lon="8.04169">
        <ele>1220.685282</ele>
        <time>2022-08-23T00:12:42.725Z</time>
      </trkpt>
      <trkpt lat="47.85624" lon="8.04233">
        <ele>1220.586774</ele>
        <time>2022-08-23T00:12:48.481Z</time>
      </trkpt>
      <trkpt lat="47.85668" lon="8.04382">
        <ele>1220.549467</ele>
        <time>2022-08-23T00:13:06.011Z</time>
      </trkpt>
      <trkpt lat="47.85675" lon="8.04408">
        <ele>1220.772566</ele>
        <time>2022-08-23T00:13:09.400Z</time>
      </trkpt>
      <trkpt lat="47.85696" lon="8.04487">
        <ele>1221.436481</ele>
        <time>2022-08-23T00:13:19.615Z</time>
      </trkpt>
      <trkpt lat="47.85716" lon="8.04576">
        <ele>1222.172733</ele>
        <time>2022-08-23T00:13:29.984Z</time>
      </trkpt>
      <trkpt lat="47.85722" lon="8.0458">
        <ele>1222.251404</ele>
        <time>2022-08-23T00:13:31.290Z</time>
      </trkpt>
      <trkpt lat="47.85734" lon="8.04612">
        <ele>1222.538671</ele>
        <time>2022-08-23T00:13:35.150Z</time>
      </trkpt>
      <trkpt lat="47.85754" lon="8.04676">
        <ele>1223.064172</ele>
        <time>2022-08-23T00:13:42.682Z</time>
      </trkpt>
      <trkpt lat="47.85759" lon="8.04747">
        <ele>1223.605517</ele>
        <time>2022-08-23T00:13:50.342Z</time>
      </trkpt>
      <trkpt lat="47.85755" lon="8.04761">
        <ele>1223.716756</ele>
        <time>2022-08-23T00:13:51.772Z</time>
      </trkpt>
      <trkpt lat="47.85769" lon="8.04887">
        <ele>1225.228598</ele>
        <time>2022-08-23T00:14:07.089Z</time>
      </trkpt>
      <trkpt lat="47.85774" lon="8.05015">
        <ele>1229.06506</ele>
        <time>2022-08-23T00:14:24.513Z</time>
      </trkpt>
      <trkpt lat="47.85776" lon="8.05063">
        <ele>1230.482947</ele>
        <time>2022-08-23T00:14:31.704Z</time>
      </trkpt>
      <trkpt lat="47.85781" lon="8.05098">
        <ele>1231.567023</ele>
        <time>2022-08-23T00:14:37.909Z</time>
      </trkpt>
      <trkpt lat="47.85788" lon="8.05135">
        <ele>1232.787385</ele>
        <time>2022-08-23T00:14:44.793Z</time>
      </trkpt>
      <trkpt lat="47.85797" lon="8.05165">
        <ele>1234.08462</ele>
        <time>2022-08-23T00:14:50.376Z</time>
      </trkpt>
      <trkpt lat="47.85819" lon="8.0522">
        <ele>1236.673814</ele>
        <time>2022-08-23T00:15:02.190Z</time>
      </trkpt>
      <trkpt lat="47.85838" lon="8.05252">
        <ele>1238.382352</ele>
        <time>2022-08-23T00:15:09.828Z</time>
      </trkpt>
      <trkpt lat="47.85872" lon="8.05297">
        <ele>1241.101737</ele>
        <time>2022-08-23T00:15:21.354Z</time>
      </trkpt>
      <trkpt lat="47.85937" lon="8.05379">
        <ele>1242.329968</ele>
        <time>2022-08-23T00:15:37.966Z</time>
      </trkpt>
      <trkpt lat="47.85989" lon="8.05433">
        <ele>1241.094522</ele>
        <time>2022-08-23T00:15:45.920Z</time>
      </trkpt>
      <trkpt lat="47.86186" lon="8.05612">
        <ele>1227.759814</ele>
        <time>2022-08-23T00:16:06.615Z</time>
      </trkpt>
      <trkpt lat="47.86328" lon="8.05721">
        <ele>1213.932738</ele>
        <time>2022-08-23T00:16:20.551Z</time>
      </trkpt>
      <trkpt lat="47.86344" lon="8.05743">
        <ele>1211.989397</ele>
        <time>2022-08-23T00:16:22.477Z</time>
      </trkpt>
      <trkpt lat="47.86361" lon="8.05794">
        <ele>1207.64291</ele>
        <time>2022-08-23T00:16:25.758Z</time>
      </trkpt>
      <trkpt lat="47.86359" lon="8.05876">
        <ele>1200.279773</ele>
        <time>2022-08-23T00:16:30.464Z</time>
      </trkpt>
      <trkpt lat="47.86344" lon="8.05982">
        <ele>1190.653044</ele>
        <time>2022-08-23T00:16:36.464Z</time>
      </trkpt>
      <trkpt lat="47.86318" lon="8.06089">
        <ele>1181.000776</ele>
        <time>2022-08-23T00:16:42.800Z</time>
      </trkpt>
      <trkpt lat="47.86316" lon="8.06123">
        <ele>1178.210241</ele>
        <time>2022-08-23T00:16:44.705Z</time>
      </trkpt>
      <trkpt lat="47.8631" lon="8.06141">
        <ele>1176.613532</ele>
        <time>2022-08-23T00:16:45.792Z</time>
      </trkpt>
      <trkpt lat="47.86292" lon="8.06158">
        <ele>1174.001938</ele>
        <time>2022-08-23T00:16:47.589Z</time>
      </trkpt>
      <trkpt lat="47.86271" lon="8.06162">
        <ele>1171.412055</ele>
        <time>2022-08-23T00:16:49.378Z</time>
      </trkpt>
      <trkpt lat="47.86255" lon="8.06157">
        <ele>1169.39754</ele>
        <time>2022-08-23T00:16:50.765Z</time>
      </trkpt>
      <trkpt lat="47.86149" lon="8.06155">
        <ele>1163.76661</ele>
        <time>2022-08-23T00:17:00.377Z</time>
      </trkpt>
      <trkpt lat="47.86076" lon="8.06168">
        <ele>1162.655385</ele>
        <time>2022-08-23T00:17:13.464Z</time>
      </trkpt>
      <trkpt lat="47.85997" lon="8.06216">
        <ele>1161.568706</ele>
        <time>2022-08-23T00:17:29.447Z</time>
      </trkpt>
      <trkpt lat="47.85974" lon="8.06253">
        <ele>1161.189592</ele>
        <time>2022-08-23T00:17:34.942Z</time>
      </trkpt>
      <trkpt lat="47.85963" lon="8.06285">
        <ele>1160.924094</ele>
        <time>2022-08-23T00:17:37.881Z</time>
      </trkpt>
      <trkpt lat="47.85957" lon="8.06346">
        <ele>1160.475614</ele>
        <time>2022-08-23T00:17:42.128Z</time>
      </trkpt>
      <trkpt lat="47.85958" lon="8.06555">
        <ele>1152.714245</ele>
        <time>2022-08-23T00:17:55.387Z</time>
      </trkpt>
      <trkpt lat="47.85963" lon="8.06609">
        <ele>1150.182738</ele>
        <time>2022-08-23T00:17:58.546Z</time>
      </trkpt>
      <trkpt lat="47.85971" lon="8.06649">
        <ele>1148.241256</ele>
        <time>2022-08-23T00:18:00.944Z</time>
      </trkpt>
      <trkpt lat="47.85992" lon="8.06695">
        <ele>1145.072147</ele>
        <time>2022-08-23T00:18:04.131Z</time>
      </trkpt>
      <trkpt lat="47.86016" lon="8.06729">
        <ele>1142.102418</ele>
        <time>2022-08-23T00:18:06.989Z</time>
      </trkpt>
      <trkpt lat="47.86092" lon="8.06784">
        <ele>1134.473806</ele>
        <time>2022-08-23T00:18:14.387Z</time>
      </trkpt>
      <trkpt lat="47.86157" lon="8.06835">
        <ele>1128.770321</ele>
        <time>2022-08-23T00:18:20.834Z</time>
      </trkpt>
      <trkpt lat="47.8619" lon="8.06879">
        <ele>1125.812735</ele>
        <time>2022-08-23T00:18:24.747Z</time>
      </trkpt>
      <trkpt lat="47.86216" lon="8.06931">
        <ele>1122.881156</ele>
        <time>2022-08-23T00:18:28.785Z</time>
      </trkpt>
      <trkpt lat="47.86278" lon="8.07079">
        <ele>1115.397916</ele>
        <time>2022-08-23T00:18:39.773Z</time>
      </trkpt>
      <trkpt lat="47.863" lon="8.07146">
        <ele>1112.344741</ele>
        <time>2022-08-23T00:18:44.290Z</time>
      </trkpt>
      <trkpt lat="47.86354" lon="8.07374">
        <ele>1102.055327</ele>
        <time>2022-08-23T00:18:58.976Z</time>
      </trkpt>
      <trkpt lat="47.86389" lon="8.07574">
        <ele>1093.006149</ele>
        <time>2022-08-23T00:19:11.675Z</time>
      </trkpt>
      <trkpt lat="47.86431" lon="8.07736">
        <ele>1085.236696</ele>
        <time>2022-08-23T00:19:22.219Z</time>
      </trkpt>
      <trkpt lat="47.86466" lon="8.07822">
        <ele>1079.288124</ele>
        <time>2022-08-23T00:19:28.131Z</time>
      </trkpt>
      <trkpt lat="47.8651" lon="8.07912">
        <ele>1072.547245</ele>
        <time>2022-08-23T00:19:34.599Z</time>
      </trkpt>
      <trkpt lat="47.86542" lon="8.08007">
        <ele>1066.094228</ele>
        <time>2022-08-23T00:19:40.768Z</time>
      </trkpt>
      <trkpt lat="47.86561" lon="8.08066">
        <ele>1062.172858</ele>
        <time>2022-08-23T00:19:44.533Z</time>
      </trkpt>
      <trkpt lat="47.86577" lon="8.081">
        <ele>1059.637993</ele>
        <time>2022-08-23T00:19:46.964Z</time>
      </trkpt>
      <trkpt lat="47.86735" lon="8.08336">
        <ele>1041.661994</ele>
        <time>2022-08-23T00:20:06.636Z</time>
      </trkpt>
      <trkpt lat="47.86918" lon="8.08613">
        <ele>1026.196254</ele>
        <time>2022-08-23T00:20:31.090Z</time>
      </trkpt>
      <trkpt lat="47.86987" lon="8.08761">
        <ele>1018.348916</ele>
        <time>2022-08-23T00:20:42.041Z</time>
      </trkpt>
      <trkpt lat="47.87017" lon="8.08833">
        <ele>1013.980266</ele>
        <time>2022-08-23T00:20:47.042Z</time>
      </trkpt>
      <trkpt lat="47.87035" lon="8.08905">
        <ele>1009.808284</ele>
        <time>2022-08-23T00:20:51.548Z</time>
      </trkpt>
      <trkpt lat="47.87048" lon="8.09048">
        <ele>1001.886218</ele>
        <time>2022-08-23T00:21:00.101Z</time>
      </trkpt>
      <trkpt lat="47.87049" lon="8.09112">
        <ele>998.342288</ele>
        <time>2022-08-23T00:21:03.867Z</time>
      </trkpt>
      <trkpt lat="47.87045" lon="8.09161">
        <ele>995.598202</ele>
        <time>2022-08-23T00:21:06.732Z</time>
      </trkpt>
      <trkpt lat="47.87041" lon="8.09198">
        <ele>993.507643</ele>
        <time>2022-08-23T00:21:08.927Z</time>
      </trkpt>
      <trkpt lat="47.87034" lon="8.09262">
        <ele>989.880448</ele>
        <time>2022-08-23T00:21:12.748Z</time>
      </trkpt>
      <trkpt lat="47.87025" lon="8.09325">
        <ele>986.772332</ele>
        <time>2022-08-23T00:21:16.611Z</time>
      </trkpt>
      <trkpt lat="47.87021" lon="8.09349">
        <ele>985.847777</ele>
        <time>2022-08-23T00:21:18.098Z</time>
      </trkpt>
      <trkpt lat="47.87017" lon="8.09369">
        <ele>985.050381</ele>
        <time>2022-08-23T00:21:19.405Z</time>
      </trkpt>
      <trkpt lat="47.87004" lon="8.09423">
        <ele>982.930362</ele>
        <time>2022-08-23T00:21:22.907Z</time>
      </trkpt>
      <trkpt lat="47.87009" lon="8.09439">
        <ele>982.274917</ele>
        <time>2022-08-23T00:21:24.010Z</time>
      </trkpt>
      <trkpt lat="47.87016" lon="8.09447">
        <ele>981.784919</ele>
        <time>2022-08-23T00:21:24.812Z</time>
      </trkpt>
      <trkpt lat="47.87019" lon="8.09446">
        <ele>981.622752</ele>
        <time>2022-08-23T00:21:25.092Z</time>
      </trkpt>
      <trkpt lat="47.87036" lon="8.09432">
        <ele>980.504971</ele>
        <time>2022-08-23T00:21:26.979Z</time>
      </trkpt>
      <trkpt lat="47.87041" lon="8.09427">
        <ele>980.180675</ele>
        <time>2022-08-23T00:21:27.524Z</time>
      </trkpt>
      <trkpt lat="47.87065" lon="8.09387">
        <ele>978.164039</ele>
        <time>2022-08-23T00:21:30.990Z</time>
      </trkpt>
      <trkpt lat="47.87105" lon="8.09319">
        <ele>975.813657</ele>
        <time>2022-08-23T00:21:37.074Z</time>
      </trkpt>
      <trkpt lat="47.87121" lon="8.09281">
        <ele>974.704379</ele>
        <time>2022-08-23T00:21:40.073Z</time>
      </trkpt>
      <trkpt lat="47.87125" lon="8.09249">
        <ele>973.904204</ele>
        <time>2022-08-23T00:21:42.276Z</time>
      </trkpt>
      <trkpt lat="47.87123" lon="8.09185">
        <ele>972.325128</ele>
        <time>2022-08-23T00:21:46.556Z</time>
      </trkpt>
      <trkpt lat="47.8713" lon="8.09169">
        <ele>971.867239</ele>
        <time>2022-08-23T00:21:47.922Z</time>
      </trkpt>
      <trkpt lat="47.87143" lon="8.0917">
        <ele>971.39817</ele>
        <time>2022-08-23T00:21:49.154Z</time>
      </trkpt>
      <trkpt lat="47.8715" lon="8.09181">
        <ele>971.03767</ele>
        <time>2022-08-23T00:21:50.066Z</time>
      </trkpt>
      <trkpt lat="47.87161" lon="8.09307">
        <ele>967.743082</ele>
        <time>2022-08-23T00:21:58.583Z</time>
      </trkpt>
      <trkpt lat="47.87175" lon="8.09453">
        <ele>964.077587</ele>
        <time>2022-08-23T00:22:08.052Z</time>
      </trkpt>
      <trkpt lat="47.87188" lon="8.0949">
        <ele>963.495521</ele>
        <time>2022-08-23T00:22:11.001Z</time>
      </trkpt>
      <trkpt lat="47.87217" lon="8.09543">
        <ele>962.550555</ele>
        <time>2022-08-23T00:22:16.011Z</time>
      </trkpt>
      <trkpt lat="47.87229" lon="8.09577">
        <ele>962.021093</ele>
        <time>2022-08-23T00:22:19.120Z</time>
      </trkpt>
      <trkpt lat="47.87231" lon="8.09601">
        <ele>961.675283</ele>
        <time>2022-08-23T00:22:21.195Z</time>
      </trkpt>
      <trkpt lat="47.87216" lon="8.09725">
        <ele>958.880738</ele>
        <time>2022-08-23T00:22:30.938Z</time>
      </trkpt>
      <trkpt lat="47.87219" lon="8.09776">
        <ele>956.824797</ele>
        <time>2022-08-23T00:22:34.715Z</time>
      </trkpt>
      <trkpt lat="47.87233" lon="8.09806">
        <ele>955.364499</ele>
        <time>2022-08-23T00:22:37.374Z</time>
      </trkpt>
      <trkpt lat="47.8729" lon="8.09865">
        <ele>951.305583</ele>
        <time>2022-08-23T00:22:43.538Z</time>
      </trkpt>
      <trkpt lat="47.87353" lon="8.09945">
        <ele>942.251322</ele>
        <time>2022-08-23T00:22:50.493Z</time>
      </trkpt>
      <trkpt lat="47.87377" lon="8.09965">
        <ele>938.717548</ele>
        <time>2022-08-23T00:22:52.761Z</time>
      </trkpt>
      <trkpt lat="47.87403" lon="8.09967">
        <ele>935.323189</ele>
        <time>2022-08-23T00:22:54.956Z</time>
      </trkpt>
      <trkpt lat="47.87447" lon="8.09938">
        <ele>929.161141</ele>
        <time>2022-08-23T00:22:58.949Z</time>
      </trkpt>
      <trkpt lat="47.87472" lon="8.09931">
        <ele>926.285144</ele>
        <time>2022-08-23T00:23:01.108Z</time>
      </trkpt>
      <trkpt lat="47.87489" lon="8.09937">
        <ele>925.150105</ele>
        <time>2022-08-23T00:23:02.589Z</time>
      </trkpt>
      <trkpt lat="47.87602" lon="8.10007">
        <ele>917.258245</ele>
        <time>2022-08-23T00:23:13.702Z</time>
      </trkpt>
      <trkpt lat="47.87642" lon="8.10035">
        <ele>914.583261</ele>
        <time>2022-08-23T00:23:19.241Z</time>
      </trkpt>
      <trkpt lat="47.87654" lon="8.10058">
        <ele>913.775235</ele>
        <time>2022-08-23T00:23:21.336Z</time>
      </trkpt>
      <trkpt lat="47.87665" lon="8.10135">
        <ele>911.458692</ele>
        <time>2022-08-23T00:23:27.174Z</time>
      </trkpt>
      <trkpt lat="47.87677" lon="8.10177">
        <ele>910.156779</ele>
        <time>2022-08-23T00:23:30.097Z</time>
      </trkpt>
      <trkpt lat="47.87744" lon="8.10323">
        <ele>901.866134</ele>
        <time>2022-08-23T00:23:40.836Z</time>
      </trkpt>
      <trkpt lat="47.87761" lon="8.1038">
        <ele>897.537043</ele>
        <time>2022-08-23T00:23:44.386Z</time>
      </trkpt>
      <trkpt lat="47.87775" lon="8.10469">
        <ele>891.232151</ele>
        <time>2022-08-23T00:23:49.564Z</time>
      </trkpt>
      <trkpt lat="47.87773" lon="8.10509">
        <ele>888.427279</ele>
        <time>2022-08-23T00:23:51.868Z</time>
      </trkpt>
      <trkpt lat="47.87763" lon="8.10548">
        <ele>885.524781</ele>
        <time>2022-08-23T00:23:54.228Z</time>
      </trkpt>
      <trkpt lat="47.8775" lon="8.10598">
        <ele>881.850849</ele>
        <time>2022-08-23T00:23:57.240Z</time>
      </trkpt>
      <trkpt lat="47.87752" lon="8.10636">
        <ele>879.170485</ele>
        <time>2022-08-23T00:23:59.447Z</time>
      </trkpt>
      <trkpt lat="47.87759" lon="8.10659">
        <ele>877.39546</ele>
        <time>2022-08-23T00:24:00.919Z</time>
      </trkpt>
      <trkpt lat="47.87768" lon="8.10677">
        <ele>875.827599</ele>
        <time>2022-08-23T00:24:02.206Z</time>
      </trkpt>
      <trkpt lat="47.87835" lon="8.10761">
        <ele>868.73421</ele>
        <time>2022-08-23T00:24:09.851Z</time>
      </trkpt>
      <trkpt lat="47.87859" lon="8.10789">
        <ele>867.365777</ele>
        <time>2022-08-23T00:24:12.798Z</time>
      </trkpt>
      <trkpt lat="47.87872" lon="8.10802">
        <ele>866.678801</ele>
        <time>2022-08-23T00:24:14.307Z</time>
      </trkpt>
      <trkpt lat="47.87892" lon="8.10824">
        <ele>865.587372</ele>
        <time>2022-08-23T00:24:16.791Z</time>
      </trkpt>
      <trkpt lat="47.87929" lon="8.10862">
        <ele>863.617694</ele>
        <time>2022-08-23T00:24:21.351Z</time>
      </trkpt>
      <trkpt lat="47.87939" lon="8.10873">
        <ele>863.073692</ele>
        <time>2022-08-23T00:24:22.654Z</time>
      </trkpt>
      <trkpt lat="47.87971" lon="8.10919">
        <ele>861.835453</ele>
        <time>2022-08-23T00:24:27.519Z</time>
      </trkpt>
      <trkpt lat="47.88077" lon="8.11131">
        <ele>859.285473</ele>
        <time>2022-08-23T00:24:48.443Z</time>
      </trkpt>
      <trkpt lat="47.88119" lon="8.1119">
        <ele>858.729202</ele>
        <time>2022-08-23T00:24:55.338Z</time>
      </trkpt>
      <trkpt lat="47.88181" lon="8.11257">
        <ele>857.987332</ele>
        <time>2022-08-23T00:25:04.833Z</time>
      </trkpt>
      <trkpt lat="47.8825" lon="8.11348">
        <ele>857.67075</ele>
        <time>2022-08-23T00:25:17.298Z</time>
      </trkpt>
      <trkpt lat="47.88276" lon="8.11395">
        <ele>857.615155</ele>
        <time>2022-08-23T00:25:23.223Z</time>
      </trkpt>
      <trkpt lat="47.88302" lon="8.11459">
        <ele>857.547775</ele>
        <time>2022-08-23T00:25:30.696Z</time>
      </trkpt>
      <trkpt lat="47.88338" lon="8.11547">
        <ele>857.780571</ele>
        <time>2022-08-23T00:25:41.569Z</time>
      </trkpt>
      <trkpt lat="47.88364" lon="8.11587">
        <ele>857.977457</ele>
        <time>2022-08-23T00:25:47.667Z</time>
      </trkpt>
      <trkpt lat="47.8839" lon="8.11615">
        <ele>858.149147</ele>
        <time>2022-08-23T00:25:53.092Z</time>
      </trkpt>
      <trkpt lat="47.88447" lon="8.11643">
        <ele>858.464273</ele>
        <time>2022-08-23T00:26:02.663Z</time>
      </trkpt>
      <trkpt lat="47.88519" lon="8.11654">
        <ele>858.314507</ele>
        <time>2022-08-23T00:26:13.279Z</time>
      </trkpt>
      <trkpt lat="47.8861" lon="8.11688">
        <ele>858.110573</ele>
        <time>2022-08-23T00:26:26.325Z</time>
      </trkpt>
      <trkpt lat="47.88664" lon="8.11726">
        <ele>857.782034</ele>
        <time>2022-08-23T00:26:33.673Z</time>
      </trkpt>
      <trkpt lat="47.88716" lon="8.11775">
        <ele>857.373646</ele>
        <time>2022-08-23T00:26:41.061Z</time>
      </trkpt>
      <trkpt lat="47.88756" lon="8.1184">
        <ele>856.983467</ele>
        <time>2022-08-23T00:26:48.805Z</time>
      </trkpt>
      <trkpt lat="47.8877" lon="8.11878">
        <ele>856.990301</ele>
        <time>2022-08-23T00:26:52.988Z</time>
      </trkpt>
      <trkpt lat="47.88797" lon="8.11988">
        <ele>857.508367</ele>
        <time>2022-08-23T00:27:05.614Z</time>
      </trkpt>
      <trkpt lat="47.888" lon="8.12">
        <ele>857.562248</ele>
        <time>2022-08-23T00:27:06.927Z</time>
      </trkpt>
      <trkpt lat="47.8882" lon="8.12132">
        <ele>858.199801</ele>
        <time>2022-08-23T00:27:22.140Z</time>
      </trkpt>
      <trkpt lat="47.88825" lon="8.12196">
        <ele>858.618277</ele>
        <time>2022-08-23T00:27:29.546Z</time>
      </trkpt>
      <trkpt lat="47.88823" lon="8.12237">
        <ele>858.887333</ele>
        <time>2022-08-23T00:27:34.245Z</time>
      </trkpt>
      <trkpt lat="47.88817" lon="8.12357">
        <ele>859.662629</ele>
        <time>2022-08-23T00:27:47.500Z</time>
      </trkpt>
      <trkpt lat="47.88821" lon="8.12481">
        <ele>859.786054</ele>
        <time>2022-08-23T00:28:00.701Z</time>
      </trkpt>
      <trkpt lat="47.88837" lon="8.12759">
        <ele>859.959066</ele>
        <time>2022-08-23T00:28:26.629Z</time>
      </trkpt>
      <trkpt lat="47.88853" lon="8.12821">
        <ele>860.087905</ele>
        <time>2022-08-23T00:28:32.655Z</time>
      </trkpt>
      <trkpt lat="47.88873" lon="8.12868">
        <ele>860.195806</ele>
        <time>2022-08-23T00:28:38.621Z</time>
      </trkpt>
      <trkpt lat="47.88878" lon="8.12887">
        <ele>860.235142</ele>
        <time>2022-08-23T00:28:40.884Z</time>
      </trkpt>
      <trkpt lat="47.88877" lon="8.12947">
        <ele>861.129652</ele>
        <time>2022-08-23T00:28:48.203Z</time>
      </trkpt>
      <trkpt lat="47.8888" lon="8.12977">
        <ele>861.69841</ele>
        <time>2022-08-23T00:28:52.170Z</time>
      </trkpt>
      <trkpt lat="47.88884" lon="8.12991">
        <ele>861.980958</ele>
        <time>2022-08-23T00:28:54.188Z</time>
      </trkpt>
      <trkpt lat="47.88931" lon="8.13136">
        <ele>865.002145</ele>
        <time>2022-08-23T00:29:15.411Z</time>
      </trkpt>
      <trkpt lat="47.88994" lon="8.13212">
        <ele>867.334816</ele>
        <time>2022-08-23T00:29:32.413Z</time>
      </trkpt>
      <trkpt lat="47.89021" lon="8.13285">
        <ele>868.962265</ele>
        <time>2022-08-23T00:29:43.229Z</time>
      </trkpt>
      <trkpt lat="47.89038" lon="8.1331">
        <ele>869.650905</ele>
        <time>2022-08-23T00:29:48.032Z</time>
      </trkpt>
      <trkpt lat="47.89089" lon="8.13353">
        <ele>870.527936</ele>
        <time>2022-08-23T00:29:58.065Z</time>
      </trkpt>
      <trkpt lat="47.89122" lon="8.1345">
        <ele>870.593396</ele>
        <time>2022-08-23T00:30:09.718Z</time>
      </trkpt>
      <trkpt lat="47.89188" lon="8.13524">
        <ele>870.515881</ele>
        <time>2022-08-23T00:30:20.626Z</time>
      </trkpt>
      <trkpt lat="47.89225" lon="8.13611">
        <ele>868.307684</ele>
        <time>2022-08-23T00:30:28.120Z</time>
      </trkpt>
      <trkpt lat="47.89247" lon="8.13641">
        <ele>867.351861</ele>
        <time>2022-08-23T00:30:31.008Z</time>
      </trkpt>
      <trkpt lat="47.89251" lon="8.13645">
        <ele>867.219219</ele>
        <time>2022-08-23T00:30:31.402Z</time>
      </trkpt>
      <trkpt lat="47.89266" lon="8.13653">
        <ele>866.686101</ele>
        <time>2022-08-23T00:30:33.038Z</time>
      </trkpt>
      <trkpt lat="47.89294" lon="8.13681">
        <ele>865.617169</ele>
        <time>2022-08-23T00:30:36.217Z</time>
      </trkpt>
      <trkpt lat="47.89302" lon="8.13699">
        <ele>865.163616</ele>
        <time>2022-08-23T00:30:37.601Z</time>
      </trkpt>
      <trkpt lat="47.89308" lon="8.1382">
        <ele>863.26465</ele>
        <time>2022-08-23T00:30:45.652Z</time>
      </trkpt>
      <trkpt lat="47.89334" lon="8.13882">
        <ele>862.151319</ele>
        <time>2022-08-23T00:30:51.189Z</time>
      </trkpt>
      <trkpt lat="47.89372" lon="8.13936">
        <ele>860.95511</ele>
        <time>2022-08-23T00:30:57.322Z</time>
      </trkpt>
      <trkpt lat="47.89445" lon="8.14026">
        <ele>860.308592</ele>
        <time>2022-08-23T00:31:12.176Z</time>
      </trkpt>
      <trkpt lat="47.89477" lon="8.14058">
        <ele>860.069201</ele>
        <time>2022-08-23T00:31:18.391Z</time>
      </trkpt>
      <trkpt lat="47.89539" lon="8.1412">
        <ele>859.101856</ele>
        <time>2022-08-23T00:31:26.916Z</time>
      </trkpt>
      <trkpt lat="47.89619" lon="8.14242">
        <ele>856.0493</ele>
        <time>2022-08-23T00:31:38.472Z</time>
      </trkpt>
      <trkpt lat="47.89627" lon="8.14252">
        <ele>855.773355</ele>
        <time>2022-08-23T00:31:39.478Z</time>
      </trkpt>
      <trkpt lat="47.89654" lon="8.14285">
        <ele>854.858486</ele>
        <time>2022-08-23T00:31:43.169Z</time>
      </trkpt>
      <trkpt lat="47.89678" lon="8.14301">
        <ele>854.330061</ele>
        <time>2022-08-23T00:31:45.969Z</time>
      </trkpt>
      <trkpt lat="47.89802" lon="8.14347">
        <ele>851.748978</ele>
        <time>2022-08-23T00:31:59.710Z</time>
      </trkpt>
      <trkpt lat="47.89832" lon="8.14365">
        <ele>851.180576</ele>
        <time>2022-08-23T00:32:03.904Z</time>
      </trkpt>
      <trkpt lat="47.89849" lon="8.14382">
        <ele>850.934647</ele>
        <time>2022-08-23T00:32:07.036Z</time>
      </trkpt>
      <trkpt lat="47.89873" lon="8.14417">
        <ele>850.523363</ele>
        <time>2022-08-23T00:32:11.447Z</time>
      </trkpt>
      <trkpt lat="47.89881" lon="8.14438">
        <ele>850.330144</ele>
        <time>2022-08-23T00:32:13.194Z</time>
      </trkpt>
      <trkpt lat="47.89931" lon="8.14524">
        <ele>849.404649</ele>
        <time>2022-08-23T00:32:22.012Z</time>
      </trkpt>
      <trkpt lat="47.89957" lon="8.14573">
        <ele>849.122349</ele>
        <time>2022-08-23T00:32:26.817Z</time>
      </trkpt>
      <trkpt lat="47.8998" lon="8.1464">
        <ele>849.110674</ele>
        <time>2022-08-23T00:32:33.243Z</time>
      </trkpt>
      <trkpt lat="47.90008" lon="8.14786">
        <ele>849.087398</ele>
        <time>2022-08-23T00:32:49.535Z</time>
      </trkpt>
      <trkpt lat="47.9002" lon="8.14819">
        <ele>849.338437</ele>
        <time>2022-08-23T00:32:53.724Z</time>
      </trkpt>
      <trkpt lat="47.90052" lon="8.14896">
        <ele>850.246715</ele>
        <time>2022-08-23T00:33:04.107Z</time>
      </trkpt>
      <trkpt lat="47.90074" lon="8.14968">
        <ele>851.041159</ele>
        <time>2022-08-23T00:33:13.722Z</time>
      </trkpt>
      <trkpt lat="47.90084" lon="8.15011">
        <ele>851.505439</ele>
        <time>2022-08-23T00:33:19.505Z</time>
      </trkpt>
      <trkpt lat="47.9009" lon="8.15039">
        <ele>851.77966</ele>
        <time>2022-08-23T00:33:23.052Z</time>
      </trkpt>
      <trkpt lat="47.90093" lon="8.15054">
        <ele>851.749218</ele>
        <time>2022-08-23T00:33:24.889Z</time>
      </trkpt>
      <trkpt lat="47.90099" lon="8.15085">
        <ele>851.685159</ele>
        <time>2022-08-23T00:33:28.596Z</time>
      </trkpt>
      <trkpt lat="47.90111" lon="8.15147">
        <ele>851.558131</ele>
        <time>2022-08-23T00:33:35.371Z</time>
      </trkpt>
      <trkpt lat="47.90121" lon="8.15171">
        <ele>851.503309</ele>
        <time>2022-08-23T00:33:37.872Z</time>
      </trkpt>
      <trkpt lat="47.90114" lon="8.15174">
        <ele>851.481577</ele>
        <time>2022-08-23T00:33:38.797Z</time>
      </trkpt>
      <trkpt lat="47.90063" lon="8.1519">
        <ele>851.330033</ele>
        <time>2022-08-23T00:33:44.794Z</time>
      </trkpt>
      <trkpt lat="47.90046" lon="8.15197">
        <ele>851.277139</ele>
        <time>2022-08-23T00:33:46.843Z</time>
      </trkpt>
      <trkpt lat="47.89994" lon="8.15232">
        <ele>851.25334</ele>
        <time>2022-08-23T00:33:53.132Z</time>
      </trkpt>
      <trkpt lat="47.89986" lon="8.15242">
        <ele>851.25334</ele>
        <time>2022-08-23T00:33:54.345Z</time>
      </trkpt>
      <trkpt lat="47.89961" lon="8.15279">
        <ele>851.25334</ele>
        <time>2022-08-23T00:33:58.161Z</time>
      </trkpt>
      <trkpt lat="47.89936" lon="8.15319">
        <ele>851.25334</ele>
        <time>2022-08-23T00:34:02.301Z</time>
      </trkpt>
      <trkpt lat="47.89925" lon="8.15341">
        <ele>851.25334</ele>
        <time>2022-08-23T00:34:04.450Z</time>
      </trkpt>
      <trkpt lat="47.89911" lon="8.15372">
        <ele>851.25334</ele>
        <time>2022-08-23T00:34:07.278Z</time>
      </trkpt>
      <trkpt lat="47.89907" lon="8.1538">
        <ele>851.25334</ele>
        <time>2022-08-23T00:34:08.079Z</time>
      </trkpt>
      <trkpt lat="47.89901" lon="8.15392">
        <ele>851.25334</ele>
        <time>2022-08-23T00:34:09.319Z</time>
      </trkpt>
      <trkpt lat="47.89889" lon="8.15421">
        <ele>851.25334</ele>
        <time>2022-08-23T00:34:12.239Z</time>
      </trkpt>
    </trkseg>
  </trk>
</gpx>